[[{"header":{"parameterUnit":"m.s-1","parameterCategory":1,"la1":30.6,"la2":29.2853,"lo1":-89.7004,"lo2":-87.6739,"dx":0.0162,"dy":0.0183,"nx":112,"ny":82,"refTime":"2023-01-20T18:00:00:Z","depth":0,"parameterNumber":2,"parameterNumberName":"U-component_of_WINDS"},"data":[0.0,0.0,0.0,0.0,0.0,0.0,0.0,0.0,0.0,0.0,0.0,0.0,0.0,0.0,0.0,0.0,0.0,0.0,0.0,0.0,0.0,0.0,0.0,0.0,0.0,0.0,0.0,0.0,0.0,0.0,0.0,0.0,0.0,0.0,0.0,0.0,0.0,0.0,0.0,0.0,0.0,0.0,0.0,0.0,0.0,0.0,0.0,0.0,0.0,0.0,0.0,0.0,0.0,0.0,0.0,0.0,0.0,0.0,0.0,0.0,0.0,0.0,0.0,0.0,0.0,0.0,0.0,0.0,0.0,0.0,0.0,0.0,0.0,0.0,0.0,0.0,0.0,0.0,0.0,0.0,0.0,0.0,0.0,0.0,0.0,0.0,0.0,0.0,0.0,0.0,-8.7736,-8.7856,-8.7856,-8.7856,-8.7856,-8.7856,-8.8095,-8.8634,0.0,0.0,0.0,0.0,0.0,0.0,0.0,0.0,0.0,0.0,0.0,0.0,0.0,0.0,0.0,0.0,0.0,0.0,0.0,0.0,0.0,0.0,0.0,0.0,0.0,0.0,0.0,0.0,0.0,0.0,0.0,0.0,0.0,0.0,0.0,0.0,0.0,0.0,0.0,0.0,0.0,0.0,0.0,0.0,0.0,0.0,0.0,0.0,0.0,0.0,0.0,0.0,0.0,0.0,0.0,0.0,0.0,0.0,0.0,0.0,0.0,0.0,0.0,0.0,0.0,0.0,0.0,0.0,0.0,0.0,0.0,0.0,0.0,0.0,0.0,0.0,0.0,0.0,0.0,0.0,0.0,0.0,0.0,0.0,0.0,0.0,0.0,0.0,0.0,0.0,0.0,0.0,0.0,0.0,0.0,0.0,0.0,0.0,0.0,0.0,0.0,0.0,0.0,0.0,-8.7915,-8.8484,-8.8544,-8.8544,-8.8544,-8.8544,-8.8574,-8.8663,0.0,0.0,0.0,0.0,0.0,0.0,0.0,0.0,0.0,0.0,0.0,0.0,0.0,0.0,0.0,0.0,0.0,0.0,0.0,0.0,0.0,0.0,0.0,0.0,0.0,0.0,0.0,0.0,0.0,0.0,0.0,0.0,0.0,0.0,0.0,0.0,0.0,0.0,0.0,0.0,0.0,0.0,0.0,0.0,0.0,0.0,0.0,0.0,0.0,0.0,0.0,0.0,0.0,0.0,0.0,0.0,0.0,0.0,0.0,0.0,0.0,0.0,0.0,0.0,0.0,0.0,0.0,0.0,0.0,0.0,0.0,0.0,0.0,0.0,0.0,0.0,0.0,0.0,0.0,0.0,0.0,0.0,0.0,0.0,0.0,0.0,0.0,0.0,0.0,0.0,0.0,0.0,0.0,0.0,0.0,0.0,0.0,0.0,0.0,0.0,0.0,0.0,0.0,-8.941,-8.9412,-8.9711,-8.9741,-8.9741,-8.9741,-8.9741,-8.9741,-8.9741,-8.9741,0.0,0.0,0.0,0.0,0.0,0.0,0.0,0.0,0.0,0.0,0.0,0.0,0.0,0.0,0.0,0.0,0.0,0.0,0.0,0.0,0.0,0.0,0.0,0.0,0.0,0.0,0.0,0.0,0.0,0.0,0.0,0.0,0.0,0.0,0.0,0.0,0.0,0.0,0.0,0.0,0.0,0.0,0.0,0.0,0.0,0.0,0.0,0.0,0.0,0.0,0.0,0.0,0.0,0.0,0.0,0.0,0.0,0.0,0.0,0.0,0.0,0.0,0.0,0.0,0.0,0.0,0.0,0.0,0.0,0.0,0.0,0.0,0.0,0.0,0.0,0.0,0.0,0.0,0.0,0.0,0.0,0.0,0.0,0.0,0.0,0.0,0.0,0.0,0.0,0.0,0.0,0.0,0.0,0.0,0.0,0.0,0.0,0.0,0.0,0.0,0.0,0.0,-9.0638,-9.0638,-9.0638,-9.0638,-9.0638,-9.0638,-9.0638,-9.0638,-9.0638,-9.0638,0.0,0.0,0.0,0.0,0.0,0.0,0.0,0.0,0.0,0.0,0.0,0.0,0.0,0.0,0.0,0.0,0.0,0.0,0.0,0.0,0.0,0.0,0.0,0.0,0.0,0.0,0.0,0.0,0.0,0.0,0.0,0.0,0.0,0.0,0.0,0.0,0.0,0.0,0.0,0.0,0.0,0.0,0.0,0.0,0.0,0.0,0.0,0.0,0.0,0.0,0.0,0.0,0.0,0.0,0.0,0.0,0.0,0.0,0.0,0.0,0.0,0.0,0.0,0.0,0.0,0.0,0.0,0.0,0.0,0.0,0.0,0.0,0.0,0.0,0.0,0.0,0.0,0.0,0.0,0.0,0.0,0.0,0.0,0.0,0.0,0.0,0.0,0.0,0.0,0.0,0.0,0.0,0.0,0.0,0.0,0.0,0.0,0.0,0.0,0.0,0.0,0.0,-9.0638,-9.0638,-9.0638,-9.0638,-9.0638,-9.0638,-9.0638,-9.0638,-9.0638,-9.0638,0.0,0.0,0.0,0.0,0.0,0.0,0.0,0.0,0.0,0.0,0.0,0.0,0.0,0.0,0.0,0.0,0.0,0.0,0.0,0.0,0.0,0.0,0.0,0.0,0.0,0.0,0.0,0.0,0.0,0.0,0.0,0.0,0.0,0.0,0.0,0.0,0.0,0.0,0.0,0.0,0.0,0.0,0.0,0.0,0.0,0.0,0.0,0.0,0.0,0.0,0.0,0.0,0.0,0.0,0.0,0.0,0.0,0.0,0.0,0.0,0.0,0.0,0.0,0.0,0.0,0.0,0.0,0.0,0.0,0.0,0.0,0.0,0.0,0.0,0.0,0.0,0.0,0.0,0.0,0.0,0.0,0.0,0.0,0.0,0.0,0.0,0.0,0.0,0.0,0.0,0.0,0.0,0.0,0.0,0.0,0.0,0.0,0.0,0.0,0.0,0.0,0.0,-9.1865,-9.1865,-9.1865,-9.1865,-9.1865,-9.1865,-9.1865,-9.1865,-9.1865,0.0,0.0,0.0,0.0,0.0,0.0,0.0,0.0,0.0,0.0,0.0,0.0,0.0,0.0,0.0,0.0,0.0,0.0,0.0,0.0,0.0,0.0,0.0,0.0,0.0,0.0,0.0,0.0,0.0,0.0,0.0,0.0,0.0,0.0,0.0,0.0,0.0,0.0,0.0,0.0,0.0,0.0,0.0,0.0,0.0,0.0,0.0,0.0,0.0,0.0,0.0,0.0,0.0,0.0,0.0,0.0,0.0,0.0,0.0,0.0,0.0,0.0,0.0,0.0,0.0,0.0,0.0,0.0,0.0,0.0,0.0,0.0,0.0,0.0,0.0,0.0,0.0,0.0,0.0,0.0,0.0,0.0,0.0,0.0,0.0,0.0,0.0,0.0,0.0,0.0,0.0,0.0,0.0,0.0,0.0,0.0,0.0,0.0,0.0,0.0,0.0,0.0,-9.2777,-9.2613,-9.2613,-9.2613,-9.2613,-9.2613,-9.2613,-9.2613,-9.2613,-9.2613,0.0,0.0,0.0,0.0,0.0,0.0,0.0,0.0,0.0,0.0,0.0,0.0,0.0,0.0,0.0,0.0,0.0,0.0,0.0,0.0,0.0,0.0,0.0,0.0,0.0,0.0,0.0,0.0,0.0,0.0,0.0,0.0,0.0,0.0,0.0,0.0,0.0,0.0,0.0,0.0,0.0,0.0,0.0,0.0,0.0,0.0,0.0,0.0,0.0,0.0,0.0,0.0,0.0,0.0,0.0,0.0,0.0,0.0,0.0,0.0,0.0,0.0,0.0,0.0,0.0,0.0,0.0,0.0,0.0,0.0,0.0,0.0,0.0,0.0,0.0,0.0,0.0,0.0,0.0,0.0,0.0,0.0,0.0,0.0,0.0,0.0,0.0,0.0,0.0,0.0,0.0,0.0,0.0,0.0,0.0,0.0,0.0,0.0,0.0,0.0,0.0,0.0,-9.2837,-9.2613,-9.2613,-9.2613,-9.2613,-9.2613,-9.2613,-9.2613,-9.2613,0.0,0.0,0.0,0.0,0.0,0.0,0.0,0.0,0.0,0.0,0.0,0.0,0.0,0.0,0.0,0.0,0.0,0.0,0.0,0.0,0.0,0.0,0.0,0.0,0.0,0.0,0.0,0.0,0.0,0.0,0.0,0.0,0.0,0.0,0.0,0.0,0.0,0.0,0.0,0.0,0.0,0.0,0.0,0.0,0.0,0.0,0.0,0.0,0.0,0.0,0.0,0.0,0.0,0.0,0.0,0.0,0.0,0.0,0.0,0.0,0.0,0.0,0.0,0.0,0.0,0.0,0.0,0.0,0.0,0.0,0.0,0.0,0.0,0.0,0.0,0.0,0.0,0.0,0.0,0.0,0.0,0.0,0.0,0.0,0.0,0.0,0.0,0.0,0.0,0.0,0.0,0.0,0.0,0.0,0.0,0.0,0.0,0.0,0.0,0.0,0.0,0.0,0.0,-9.4414,-9.402,-9.402,-9.402,-9.402,-9.402,-9.402,-9.402,-9.402,-9.402,0.0,0.0,0.0,0.0,0.0,0.0,0.0,0.0,0.0,0.0,0.0,0.0,0.0,0.0,0.0,0.0,0.0,0.0,0.0,0.0,0.0,0.0,0.0,0.0,0.0,0.0,0.0,0.0,0.0,0.0,0.0,0.0,0.0,0.0,0.0,0.0,0.0,0.0,0.0,0.0,0.0,0.0,0.0,0.0,0.0,0.0,0.0,0.0,0.0,0.0,0.0,0.0,0.0,0.0,0.0,0.0,0.0,0.0,0.0,0.0,0.0,0.0,0.0,0.0,0.0,0.0,0.0,0.0,0.0,0.0,0.0,0.0,0.0,0.0,0.0,0.0,0.0,0.0,0.0,0.0,0.0,0.0,0.0,0.0,0.0,0.0,0.0,0.0,0.0,0.0,0.0,0.0,0.0,0.0,0.0,0.0,0.0,0.0,0.0,0.0,0.0,0.0,-9.7045,-9.6627,-9.6315,-9.5484,-9.5396,-9.5396,-9.5396,-9.5396,-9.5277,-9.5007,0.0,0.0,0.0,0.0,0.0,0.0,0.0,0.0,0.0,0.0,0.0,0.0,0.0,0.0,0.0,0.0,0.0,0.0,0.0,0.0,0.0,0.0,0.0,0.0,0.0,0.0,0.0,0.0,0.0,0.0,0.0,0.0,0.0,0.0,0.0,0.0,0.0,0.0,0.0,0.0,0.0,0.0,0.0,0.0,0.0,0.0,0.0,0.0,0.0,0.0,0.0,0.0,0.0,0.0,0.0,0.0,0.0,0.0,0.0,0.0,0.0,0.0,0.0,0.0,0.0,0.0,0.0,0.0,0.0,0.0,0.0,0.0,0.0,0.0,0.0,0.0,0.0,0.0,0.0,0.0,0.0,0.0,0.0,0.0,0.0,0.0,0.0,0.0,0.0,0.0,0.0,0.0,0.0,0.0,0.0,0.0,0.0,0.0,0.0,0.0,0.0,0.0,-10.0143,-9.9705,-9.8839,-9.6828,-9.6563,-9.6563,-9.6563,-9.6563,-9.6324,-9.5725,0.0,0.0,0.0,0.0,0.0,0.0,0.0,0.0,0.0,0.0,0.0,0.0,0.0,0.0,0.0,0.0,0.0,0.0,0.0,0.0,0.0,0.0,0.0,0.0,0.0,0.0,0.0,0.0,0.0,0.0,0.0,0.0,0.0,0.0,0.0,0.0,0.0,0.0,0.0,0.0,0.0,0.0,0.0,0.0,0.0,0.0,0.0,0.0,0.0,0.0,0.0,0.0,0.0,0.0,0.0,0.0,0.0,0.0,0.0,0.0,-11.6397,-11.6213,0.0,0.0,0.0,0.0,0.0,0.0,0.0,0.0,0.0,0.0,0.0,0.0,0.0,0.0,0.0,0.0,0.0,0.0,0.0,0.0,0.0,0.0,0.0,0.0,0.0,0.0,0.0,0.0,0.0,0.0,0.0,0.0,0.0,0.0,0.0,0.0,0.0,0.0,0.0,0.0,-10.0091,-9.8724,-9.7661,-9.6711,-9.6563,-9.6563,-9.6563,-9.6563,-9.6503,-9.6384,-9.6354,0.0,0.0,0.0,0.0,0.0,0.0,0.0,0.0,0.0,0.0,0.0,0.0,0.0,0.0,0.0,0.0,0.0,0.0,0.0,0.0,0.0,0.0,0.0,0.0,0.0,0.0,0.0,0.0,0.0,0.0,0.0,0.0,0.0,0.0,0.0,0.0,0.0,0.0,0.0,0.0,0.0,0.0,0.0,0.0,0.0,0.0,0.0,0.0,0.0,0.0,0.0,0.0,0.0,0.0,0.0,0.0,0.0,0.0,0.0,-11.8893,-11.8379,0.0,0.0,0.0,0.0,0.0,0.0,0.0,0.0,0.0,0.0,0.0,0.0,0.0,0.0,0.0,0.0,0.0,0.0,0.0,0.0,0.0,0.0,0.0,0.0,0.0,0.0,0.0,0.0,0.0,0.0,0.0,0.0,0.0,0.0,0.0,0.0,0.0,0.0,0.0,0.0,-10.1668,-10.0496,-9.9335,-9.767,-9.7521,-9.7521,-9.7521,-9.7521,-9.7371,-9.7042,-9.7012,0.0,0.0,0.0,0.0,0.0,0.0,0.0,0.0,0.0,0.0,0.0,0.0,0.0,0.0,0.0,0.0,0.0,0.0,0.0,0.0,0.0,0.0,0.0,0.0,0.0,0.0,0.0,0.0,0.0,0.0,0.0,0.0,0.0,0.0,0.0,0.0,0.0,0.0,0.0,0.0,0.0,0.0,0.0,0.0,0.0,0.0,0.0,0.0,0.0,0.0,0.0,0.0,0.0,-11.97,-12.0104,-12.0288,-12.0985,-12.1683,-12.2196,-12.0802,-12.0214,-12.0214,-12.0214,0.0,0.0,0.0,0.0,0.0,0.0,0.0,0.0,0.0,0.0,0.0,0.0,0.0,0.0,0.0,0.0,0.0,0.0,0.0,0.0,0.0,0.0,-11.2685,-11.2685,-11.3192,-11.2786,-10.964,0.0,0.0,0.0,0.0,0.0,0.0,0.0,0.0,0.0,0.0,0.0,-10.4435,-10.3087,-10.1678,-9.9108,-9.8778,-9.8658,-9.8538,-9.8538,-9.8269,-9.77,-9.767,-9.7431,0.0,0.0,0.0,0.0,0.0,0.0,0.0,0.0,0.0,0.0,0.0,0.0,0.0,0.0,0.0,0.0,0.0,0.0,0.0,0.0,0.0,0.0,0.0,0.0,0.0,0.0,0.0,0.0,0.0,0.0,0.0,0.0,-11.5479,-11.5479,0.0,0.0,0.0,0.0,0.0,0.0,0.0,0.0,0.0,0.0,0.0,0.0,0.0,-11.8709,-11.9407,-11.9407,-12.0178,-12.1572,-12.1683,-12.2086,-12.282,-12.2894,-12.3004,-12.3114,-12.2894,0.0,-12.282,-12.282,0.0,0.0,0.0,0.0,0.0,0.0,0.0,0.0,0.0,0.0,0.0,0.0,0.0,0.0,0.0,0.0,0.0,0.0,0.0,0.0,0.0,0.0,-11.3496,-11.3496,-11.3496,-11.3496,-11.2989,-11.2921,-11.3023,-11.3023,-11.3598,-11.3902,0.0,0.0,0.0,0.0,0.0,0.0,-10.8428,-10.4897,-10.1931,-10.0364,-9.9705,-9.9137,-9.8568,-9.8538,-9.8478,-9.8389,-9.8389,-9.8359,-9.8269,-9.77,0.0,0.0,0.0,0.0,0.0,0.0,0.0,0.0,0.0,0.0,0.0,0.0,0.0,0.0,0.0,0.0,0.0,0.0,0.0,0.0,0.0,0.0,0.0,0.0,0.0,0.0,0.0,0.0,0.0,-11.4488,-11.4782,-11.5296,-11.5406,-11.5479,0.0,0.0,0.0,0.0,0.0,0.0,0.0,0.0,0.0,-11.959,-12.0178,-12.0581,-12.0985,-12.1499,-12.2013,-12.2784,-12.2784,-12.3004,-12.3298,-12.3298,-12.3518,-12.3995,-12.3995,-12.4215,-12.4582,-12.3701,-12.3298,-12.3298,0.0,0.0,0.0,0.0,-12.0789,-11.7501,-11.8174,-11.6089,-11.309,-11.309,0.0,0.0,0.0,0.0,0.0,0.0,0.0,-11.4105,-11.3699,-11.4207,-11.4714,-11.4308,-11.4511,-11.4816,-11.4816,-11.4816,-11.4613,-11.3801,-11.4207,-11.4477,-11.3699,-11.4917,0.0,0.0,0.0,-10.9205,-10.7633,-10.4244,-10.1561,-10.0603,-10.0214,-9.9795,-9.9137,-9.9077,-9.8927,-9.8538,-9.8538,-9.8538,-9.8538,-9.8239,-9.788,0.0,0.0,0.0,0.0,0.0,0.0,0.0,0.0,0.0,0.0,0.0,0.0,0.0,0.0,0.0,0.0,0.0,0.0,0.0,0.0,0.0,0.0,0.0,0.0,0.0,0.0,0.0,0.0,-11.4892,-11.5112,-11.592,-11.6397,-11.6801,0.0,0.0,0.0,0.0,0.0,0.0,-12.0288,-12.0875,-12.0985,-12.0581,-12.1976,-12.26,-12.238,-12.3408,-12.3812,-12.3591,-12.3995,-12.4215,-12.4215,-12.4215,-12.4509,-12.5096,-12.4876,-12.5096,-12.5573,-12.4399,-12.3885,-12.3885,-12.3885,-12.3885,-12.3885,-12.3885,-12.1802,-11.8988,-11.8988,-11.6922,-11.4207,-11.4207,-11.4308,-11.441,-11.441,0.0,0.0,0.0,0.0,-11.5391,-11.4613,-11.5425,-11.6203,-11.5391,-11.5831,-11.6406,-11.6406,-11.6406,-11.6,-11.4714,-11.4883,-11.5188,-11.4816,-11.5898,0.0,-11.4476,-11.2637,-11.0446,-10.7868,-10.5005,-10.2572,-10.1204,-10.0872,-10.0483,-9.9795,-9.9765,-9.9466,-9.8808,-9.8778,-9.8688,-9.8538,-9.8538,-9.8299,-9.776,0.0,0.0,0.0,0.0,0.0,0.0,0.0,0.0,0.0,0.0,0.0,0.0,0.0,0.0,0.0,0.0,0.0,0.0,0.0,0.0,0.0,0.0,0.0,0.0,0.0,0.0,0.0,0.0,0.0,-11.9297,-11.8709,0.0,0.0,0.0,0.0,-12.0802,-12.0912,-12.1205,-12.1903,-12.1976,-12.238,-12.3114,-12.3922,-12.3995,-12.3224,-12.4803,-12.517,-12.4509,-12.6014,-12.6711,-12.6711,-12.6711,-12.6711,-12.6711,-12.5977,-12.5684,-12.5684,-12.5573,-12.5573,-12.5573,-12.5573,-12.5573,-12.5573,-12.5573,-12.3467,-12.0687,-12.0687,-11.8521,-11.5729,-11.5729,-11.6203,-11.671,-11.671,-11.7285,0.0,0.0,-11.7319,-11.7725,-11.6913,-11.7387,-11.7793,-11.7015,-11.7387,-11.7996,-11.7996,-11.7996,-11.7725,-11.6913,-11.6778,-11.7015,-11.7725,0.0,-11.7279,-11.8658,-11.6294,-11.378,-11.2345,-10.9374,-10.6231,-10.2799,-10.18,-10.1171,-10.0483,-10.0393,-10.0184,-9.9496,-9.9466,-9.9167,-9.8538,-9.8538,-9.8508,-9.8478,-9.782,0.0,0.0,0.0,0.0,0.0,0.0,0.0,0.0,0.0,0.0,0.0,0.0,0.0,0.0,0.0,0.0,0.0,0.0,0.0,0.0,0.0,0.0,0.0,0.0,0.0,0.0,0.0,0.0,-11.8893,-11.9003,0.0,-11.9994,-12.0802,-12.1279,-12.1609,-12.26,-12.3114,-12.2894,-12.3885,-12.4289,-12.4105,-12.539,-12.5904,-12.561,-12.6711,-12.7078,-12.6785,-12.7409,-12.7702,-12.7702,-12.7702,-12.7409,-12.6895,-12.7115,-12.6675,-12.5684,-12.6271,-12.6197,-12.5684,-12.5684,-12.5684,-12.5684,-12.5684,-12.4278,-12.2169,-12.1195,-11.9278,-11.7232,-11.6232,-11.6,-11.6304,-11.6778,-11.7116,-11.7387,-11.759,-11.7894,-11.803,-11.7725,-11.7894,-11.803,-11.7725,-11.7894,-11.8097,-11.8097,-11.8097,-11.8199,-11.83,-11.8402,-11.83,-11.8131,-11.8605,-11.9078,-11.918,-11.6949,-11.4482,-11.2098,-10.9136,-10.5954,-10.2829,-10.2279,-10.186,-10.1171,-10.1082,-10.0872,-10.0184,-9.9735,-9.9406,-9.9167,-9.8748,-9.8538,-9.8538,-9.8299,-9.8149,0.0,0.0,0.0,0.0,0.0,0.0,0.0,0.0,0.0,0.0,0.0,0.0,0.0,0.0,0.0,0.0,0.0,0.0,0.0,0.0,0.0,0.0,0.0,0.0,0.0,-11.8709,-11.9076,-11.8819,-11.9297,-11.9774,-12.0398,-12.1389,-12.2196,-12.249,-12.3481,-12.3995,-12.3701,-12.4986,-12.5573,-12.5317,-12.6895,-12.7592,-12.7299,-12.84,-12.8583,-12.8106,-12.8694,-12.8804,-12.851,-12.851,-12.8216,-12.7702,-12.7996,-12.7299,-12.6087,-12.6711,-12.6381,-12.5684,-12.5684,-12.5684,-12.5684,-12.5684,-12.4331,-12.211,-11.9919,-11.8393,-11.7266,-11.6504,-11.6203,-11.6304,-11.6778,-11.7285,-11.7725,-11.7996,-11.8503,-11.8808,-11.8503,-11.8672,-11.8808,-11.8503,-11.8706,-11.8808,-11.8808,-11.8808,-11.8977,-11.9484,-11.918,-11.8808,-11.8808,-11.9214,-11.919,-11.8168,-11.7417,-11.5453,-11.1508,-10.9517,-10.7149,-10.4035,-10.2865,-10.2309,-10.186,-10.18,-10.1561,-10.0872,-10.0393,-9.9975,-9.9526,-9.9077,-9.8748,-9.8538,-9.8538,-9.8538,-9.8538,0.0,0.0,0.0,0.0,0.0,0.0,0.0,0.0,0.0,0.0,0.0,0.0,0.0,0.0,0.0,0.0,0.0,0.0,0.0,0.0,0.0,0.0,0.0,-11.9774,-11.9003,-11.8783,-11.959,-11.959,-12.0288,-12.1903,-12.2086,-12.238,-12.3224,-12.3298,-12.3701,-12.4509,-12.528,-12.6087,-12.6895,-12.851,-12.8987,-12.818,-12.9685,-12.9685,-12.818,-12.9795,-13.0088,-12.9318,-12.9318,-12.9318,-12.9318,-12.851,-12.7702,-12.6895,-12.6895,-12.6491,-12.5794,-12.5684,-12.5684,-12.5684,-12.5684,-12.3575,-12.0325,-11.7056,-11.587,-11.5932,-11.6609,-11.6879,-11.6879,-11.6913,-11.7894,-11.8977,-11.83,-11.9112,-12.0093,-11.9383,-11.9687,-12.0093,-11.9383,-11.9789,-12.0262,-12.0262,-12.0262,-12.0262,-12.0262,-11.9112,-11.8605,-12.0059,-11.9078,-11.7658,-11.6182,-11.7827,0.0,-11.1211,-11.1127,-11.0001,-10.6221,-10.3913,-10.2582,-10.2488,-10.2488,-10.2189,-10.1561,-10.1471,-10.0872,-9.9615,-9.9526,-9.9197,-9.8538,-9.8538,-9.8538,-9.8538,0.0,0.0,0.0,0.0,0.0,0.0,0.0,0.0,0.0,0.0,0.0,0.0,0.0,0.0,0.0,0.0,0.0,0.0,0.0,0.0,0.0,-12.1205,-12.0802,-11.9774,-12.0471,-12.0912,-12.0581,-12.0508,-12.0985,-12.1976,-12.2086,-12.238,-12.3224,-12.3812,-12.4509,-12.528,-12.6675,-12.7813,-12.862,-12.9611,-13.0088,-12.9795,-13.0309,-13.0309,-12.9795,-13.0309,-13.0382,-13.0199,-13.0199,-12.9905,-12.9318,-12.9685,-12.9097,-12.7776,-12.7776,-12.7592,-12.7299,-12.6197,-12.5684,-12.5684,-12.5684,-12.3575,-12.0706,-11.9693,-11.7784,-11.5831,-11.6034,-11.6101,-11.6203,-11.671,-11.7218,-11.759,-11.7996,-11.8808,-11.9484,-11.9281,-11.9687,-12.0195,-11.9992,-12.0161,-12.0262,-12.0262,-12.0262,-12.0262,-12.0262,-11.9958,-11.9789,-12.0195,-11.9958,-11.9604,-11.9138,-11.9621,-11.8571,-11.4839,-11.3976,-11.188,-10.7109,-10.5606,-10.4218,-10.2646,-10.2488,-10.2398,-10.2189,-10.177,-10.1291,-10.0962,-10.0004,-9.9197,-9.8538,-9.8538,-9.8538,0.0,0.0,0.0,0.0,0.0,0.0,0.0,0.0,0.0,0.0,0.0,0.0,0.0,0.0,0.0,0.0,0.0,0.0,0.0,0.0,0.0,0.0,-12.1499,-12.1205,-12.0691,-12.1205,-12.1499,-12.1389,-12.1389,-12.1683,-12.249,-12.26,-12.2894,-12.3701,-12.4215,-12.4986,-12.6087,-12.7409,-12.851,-12.9318,-13.0088,-13.0492,-13.0492,-13.0492,-13.0492,-13.0492,-13.0492,-13.0492,-13.0492,-13.0492,-13.0199,-12.9795,-13.0676,-13.0309,-12.9097,-12.9097,-12.8914,-12.84,0.0,0.0,0.0,0.0,-12.4013,-12.1723,-12.0967,-11.8816,-11.6304,-11.6304,-11.6101,-11.5898,-11.6304,-11.671,-11.7015,-11.7488,-11.8402,-11.918,-11.918,-11.9687,-12.0262,-12.0262,-12.0262,-12.0262,-12.0262,-12.0262,-12.0262,-12.0262,-12.0262,0.0,-12.0262,-12.0262,-11.9933,-11.8618,-11.9459,-11.9104,-11.5838,-11.4992,-11.321,-10.9107,-10.6979,-10.5003,-10.3005,-10.2608,0.0,0.0,0.0,-10.177,-10.1471,-10.0483,0.0,0.0,0.0,-9.8808,-9.8538,-9.8538,0.0,0.0,-9.776,-9.7521,0.0,0.0,0.0,0.0,0.0,0.0,0.0,0.0,0.0,0.0,0.0,0.0,0.0,0.0,0.0,0.0,-12.1683,-12.2196,-12.2196,-12.1609,-12.1389,-12.2196,-12.2196,-12.26,-12.3408,-12.3408,-12.3812,-12.4582,-12.4582,-12.528,-12.6822,-12.7702,0.0,0.0,0.0,-13.0492,-13.0492,-13.0492,-13.0492,-13.0492,-13.0492,-13.0492,-13.0492,-13.0602,-13.0602,-13.0712,-13.1373,-13.13,-13.0602,-13.0419,-12.9905,-12.9134,-12.7592,-12.7482,-12.788,-12.6406,-12.479,-12.3122,-12.1487,0.0,0.0,-11.7088,-11.6609,-11.6101,-11.6101,-11.6507,-11.7015,-11.7015,-11.8097,-11.918,-11.918,-11.9687,-12.0262,-12.0262,-12.0262,-12.0262,-12.0262,-12.0262,-12.0262,-12.0262,-12.0262,-12.0262,-12.0262,-12.0262,-11.9349,-11.6686,-11.8574,-11.9113,-11.5824,-11.5322,-11.4314,-11.1933,-10.8594,0.0,-10.3834,-10.3256,-10.2769,-10.2488,-10.2488,-10.2189,-10.1471,-10.0902,-10.0304,-9.9615,-9.9556,-9.9226,-9.8628,-9.8568,-9.8538,-9.8538,-9.8538,-9.8538,0.0,0.0,0.0,0.0,0.0,0.0,0.0,0.0,0.0,0.0,0.0,0.0,0.0,0.0,0.0,-12.1903,-12.249,-12.3114,-12.3114,-12.2894,-12.2894,-12.3004,-12.3114,-12.3408,-12.4215,-12.4289,-12.4582,-12.539,-12.5463,-12.5904,-12.6822,-12.7702,-12.851,-12.9318,-13.0088,-13.0492,-13.0492,-13.0492,-13.0492,-13.0492,-13.0492,0.0,-13.0492,-13.119,-13.1483,-13.1483,-13.1593,-13.1593,-13.1373,-13.0088,-12.9428,-12.9207,-12.8216,-12.7996,-12.8106,-12.7688,-12.6624,-12.4885,-12.322,-12.1414,-11.9678,-11.8309,-11.7793,-11.7691,-11.7691,-11.7793,0.0,-11.7894,-11.8503,-11.918,-11.918,-11.9687,-12.0262,-12.0262,-12.0262,-12.0262,-12.0262,-12.0262,-12.0262,-12.0262,-12.0262,-12.0262,-12.0262,-12.0262,-12.0119,-11.9459,-11.9899,-11.9975,-11.9257,-11.8718,-11.717,-11.4328,-11.2866,-11.0267,-10.5693,-10.5212,-10.4399,-10.2582,-10.2488,-10.2189,-10.1471,-10.1351,-10.0962,-10.0304,-9.9765,-9.9436,-9.9316,-9.8778,-9.8538,-9.8538,-9.8538,-9.8538,0.0,0.0,0.0,0.0,0.0,0.0,0.0,0.0,0.0,0.0,0.0,-12.26,-12.2196,0.0,-12.271,-12.271,-12.3004,-12.3408,-12.3812,-12.3885,-12.3885,-12.3885,-12.3885,-12.4215,-12.4986,-12.5096,-12.528,-12.5684,-12.5684,-12.5867,-12.6308,-12.7078,-12.7886,-12.8694,-12.9501,-13.0088,-13.0492,-13.0492,-13.0492,-13.0492,-13.0492,-13.0712,-13.1079,-13.1483,-13.1887,-13.2291,-13.2291,-13.2291,-13.2217,-13.1006,-13.0309,-12.9905,-12.9501,-12.9281,-12.9281,-12.9281,-12.8204,-12.6608,-12.479,-12.2922,-12.089,-11.9203,-11.8402,-11.8097,-11.8097,-11.8097,-11.8097,-11.8097,-11.8605,-11.918,-11.918,-11.9992,-12.0871,-12.0871,-12.0601,-12.0398,-12.077,-12.0296,-11.9856,-12.0195,-12.0262,-12.0161,-11.9789,-11.9687,-11.989,-12.0195,-12.0262,-12.0262,-12.0262,-11.9687,-11.8187,-11.5481,-11.4187,-11.2086,-10.8278,-10.6574,-10.5298,-10.4218,-10.4187,-10.3486,-10.2103,-10.3061,-10.282,-10.0962,-10.0663,-10.0304,-10.0004,-9.9346,-9.9017,-9.9017,-9.8688,-9.8538,0.0,0.0,0.0,0.0,0.0,0.0,0.0,-12.4215,-12.3591,-12.2894,-12.3188,-12.3298,-12.2674,-12.3114,-12.3518,-12.3518,-12.3701,-12.3995,-12.4582,-12.4876,-12.4986,-12.4986,-12.4986,-12.517,-12.5684,-12.5794,-12.5867,-12.5684,-12.5684,-12.5684,-12.5684,-12.6491,-12.7189,-12.7813,-12.862,-12.9501,-13.0309,-13.0309,-13.0309,-13.0492,-13.0492,-13.0786,-13.1483,-13.1593,-13.2107,-13.2695,-13.2695,-13.2584,-13.2401,-13.1703,-13.1079,-13.0492,-13.0492,-13.0492,-13.0492,-13.0492,-12.9569,-12.8202,-12.6494,-12.4363,-12.2067,-12.0362,-11.9275,-11.8503,-11.8503,-11.8503,-11.8503,-11.8503,-11.8977,-11.9383,-11.9383,-12.0296,-12.1209,-12.1209,-12.0702,-12.0431,-12.0905,-11.9992,-11.9281,-11.9789,-11.989,-11.9687,-11.9078,-11.8977,-11.918,-11.9789,-11.989,-11.989,-11.989,-11.9383,-11.8238,-11.6234,-11.4917,-11.3225,-11.0792,-10.8025,-10.6505,-10.6355,-10.6355,-10.5623,-10.3944,-10.5477,-10.5256,-10.2972,-10.2881,-10.2516,-10.2,-10.1332,-10.0998,-10.0998,-9.9948,-9.9168,-13.0109,-12.8589,-12.718,-12.7085,-12.6299,-12.5573,0.0,-12.55,-12.539,-12.528,-12.4803,-12.4289,-12.4215,-12.4289,-12.4399,-12.4399,-12.4986,-12.5463,-12.5573,-12.6197,-12.6601,-12.6601,-12.6601,-12.6381,-12.5794,-12.6308,-12.6491,-12.5794,-12.5684,-12.5684,-12.5684,-12.6491,-12.6895,-12.7005,-12.7813,-12.8583,-12.9428,-12.9428,-12.9795,-13.0492,-13.0492,-13.0492,-13.0676,-13.1373,-13.1703,-13.1814,-13.1814,-13.141,-13.0786,-13.0712,-13.0602,-13.0492,-13.0492,-13.0492,-13.0492,-13.0492,-13.0388,-13.0,-12.8295,-12.652,-12.471,-12.3004,-12.1299,-12.0059,-12.0059,-12.0059,-12.0059,-12.0059,-12.0093,-12.0161,-12.0161,-12.0296,-12.0398,-12.0398,-12.0364,-12.0093,-11.9586,-11.9281,-11.9011,-11.8503,-11.83,-11.83,-11.8199,-11.8199,-11.83,-11.83,-11.83,-11.83,-11.83,-11.83,-11.782,-11.6921,-11.6577,-11.5425,-11.2515,-11.0119,-10.8811,-10.8663,-10.8663,-10.8611,-10.839,-10.8611,-10.8579,-10.8263,-10.7743,-10.7425,-10.7329,-10.6662,-10.628,-10.6312,-10.4228,-10.1467,-12.9594,-12.8702,-12.7792,-12.6625,-12.6016,-12.5684,-12.5684,-12.5684,-12.5573,-12.5096,-12.5096,-12.5096,-12.4582,-12.4876,-12.517,-12.517,-12.55,-12.5867,-12.6308,-12.6711,-12.7115,-12.7519,-12.7996,-12.7813,-12.6491,-12.6308,-12.6087,-12.5684,-12.5684,-12.5684,-12.5684,-12.5977,-12.6381,-12.6895,-12.7189,-12.7813,-12.8583,-12.8583,-12.8804,-12.9097,-12.9611,-13.0015,-13.0492,-13.13,-13.1703,-13.1703,-13.1703,-13.119,-13.0492,-13.0492,-13.0492,-13.0492,-13.0492,-13.0492,-13.0492,-13.0492,-13.0492,-13.0284,-12.8558,-12.7527,-12.6469,-12.3654,-12.2302,-12.1577,-12.0605,-12.0262,-12.0262,-12.0262,-12.0262,-12.0262,-12.0262,-12.0601,-12.0905,-12.0905,-12.0601,-12.0195,-11.989,-11.918,-11.8503,-11.8199,-11.8097,-11.7996,-11.7488,-11.7387,-11.7285,-11.6812,-11.7522,-11.8097,-11.8097,-11.8097,-11.7793,-11.7015,-11.6507,-11.5768,-11.4512,-11.2429,-11.1061,-11.1061,-11.1061,-11.0495,-10.9229,-11.0414,-11.0495,-10.9081,-10.8857,-10.8665,-10.8665,-10.8108,-10.7788,-10.7724,-10.6432,-10.5037,-12.9898,-12.9106,-12.8395,-12.6906,-12.6076,-12.5684,-12.5684,-12.5684,-12.55,-12.4986,-12.528,-12.5573,-12.5206,-12.55,-12.5794,-12.6271,-12.6197,-12.6308,-12.7115,-12.7409,-12.7813,-12.84,-12.8914,-12.8804,-12.7702,-12.6785,-12.6197,-12.5684,-12.5684,-12.5684,-12.5684,-12.5684,-12.5977,-12.6601,-12.6601,-12.7005,-12.7776,-12.7776,-12.7886,-12.8106,-12.8914,-12.9611,-13.0199,-13.1006,-13.1373,-13.1373,-13.1373,-13.1006,-13.0492,-13.0492,-13.0492,-13.0492,-13.0492,-13.0492,-13.0492,-13.0492,-13.0492,-13.0299,-12.9097,-12.8388,-12.7622,-12.511,-12.3621,-12.2584,-12.1392,-12.068,-12.0262,-12.0262,-12.0262,-12.0262,-12.0262,-12.0668,-12.1108,-12.1108,-12.0668,-12.0161,-11.9789,-11.8875,-11.7996,-11.7522,-11.7488,-11.7319,-11.671,-11.6609,-11.6406,-11.5898,-11.6812,-11.7488,-11.7488,-11.7488,-11.7218,-11.671,-11.6101,-11.5831,-11.5831,-11.4295,-11.3425,-11.3425,-11.3425,-11.2663,-11.1028,-11.2474,-11.263,-11.0948,-11.0915,-11.0915,-11.0915,-11.054,-11.0312,-11.0312,-10.9232,-10.8651,-13.159,-13.0198,-12.8702,-12.8589,-12.7062,-12.5684,-12.5684,-12.5684,-12.5684,-12.5684,-12.5684,-12.5904,-12.6711,-12.6197,-12.6197,-12.7776,-12.7409,-12.7115,-12.7996,-12.8694,-12.9207,-12.9318,-12.9318,-12.9318,-12.9207,-12.851,-12.7372,-12.5794,-12.5684,-12.5684,-12.5684,-12.5684,-12.5684,-12.5684,-12.5684,-12.6087,-12.6895,-12.6895,-12.7299,-12.8106,-12.8914,-12.9318,-12.9391,-13.0199,-13.0492,-13.0492,-13.0492,-13.0492,-13.0492,-13.0492,-13.0492,-13.0492,-13.0492,-13.0492,-13.0492,-13.0492,-13.0492,-13.0492,-13.0404,-12.9389,-12.8008,-12.7892,-12.5559,-12.276,-12.2656,-12.165,-12.0262,-12.0262,-12.0262,-12.0262,-12.0262,-12.0296,-12.0296,-12.0296,-12.0296,-11.989,-11.8503,-11.8131,-11.7691,-11.6203,-11.5898,-11.5898,-11.5831,-11.5831,-11.5831,-11.5831,-11.5831,-11.5898,-11.5898,-11.5898,-11.5898,-11.5831,-11.5831,-11.5831,-11.5831,-11.5724,-11.5724,-11.5724,-11.5724,-11.5684,-11.5577,-11.5684,-11.5684,-11.5577,-11.5577,-11.5577,-11.5577,-11.5577,-11.5651,-11.551,-11.3326,-11.233,-13.0893,-13.0198,-12.9506,-12.8713,-12.7597,-12.6708,-12.6507,-12.6087,-12.5684,-12.5684,-12.5684,-12.5904,-12.6785,-12.6711,-12.6785,-12.7886,-12.7409,-12.7409,-12.8694,-12.8216,-12.829,-12.9905,-12.9611,-12.9318,-12.9318,-12.8106,-12.7078,-12.6491,-12.5977,-12.5684,-12.5684,-12.5684,-12.5684,-12.5684,-12.5684,-12.5794,-12.6087,-12.6087,-12.6197,-12.6491,-12.7886,-12.9097,-13.0088,-13.0382,-13.0492,-13.0492,-13.0492,-13.0492,-13.0492,-13.0492,-13.0492,-13.0492,-13.0492,-13.0492,-13.0492,-13.0492,-13.0492,-13.0492,-13.0492,-13.0105,-12.9498,-12.8388,-12.6433,-12.429,-12.3177,-12.1581,-12.0262,-12.0262,-12.0262,-12.0262,-12.0262,-12.0262,-12.0262,-12.0262,-12.0262,-11.989,-11.8402,-11.8097,-11.7624,-11.6101,-11.5831,-11.5831,-11.5831,-11.5831,-11.5831,-11.5831,-11.5831,-11.5831,-11.5831,-11.5831,-11.5831,-11.5831,-11.5831,-11.5831,-11.5831,-11.5831,-11.5831,-11.5831,-11.5831,-11.5831,-11.5831,-11.5831,-11.5831,-11.5831,-11.5831,-11.5831,-11.5831,-11.5831,-11.5831,-11.5831,-11.496,-11.4662,-13.0921,-13.0491,-13.0099,-12.9606,-12.8597,-12.7676,-12.7513,-12.7117,-12.6604,-12.6187,-12.6381,-12.6785,-12.7592,-12.7519,-12.7592,-12.84,-12.7886,-12.7702,-12.8694,-12.8216,-12.8216,-12.9501,-12.9428,-12.9207,-12.8914,-12.7702,-12.6895,-12.6895,-12.6197,-12.5684,-12.5684,-12.5684,-12.5684,-12.5684,-12.5684,-12.5684,-12.5684,-12.5684,-12.5977,-12.6601,-12.7592,-12.8914,-13.0492,-13.0492,-13.0492,-13.0492,-13.0492,-13.0492,-13.0492,-13.0492,-13.0492,-13.0492,-13.0492,-13.0492,-13.0492,-13.0492,-13.0492,-13.0492,-13.0492,-13.0492,-13.0299,-12.9207,-12.7703,-12.5999,-12.4294,-12.2479,-12.1059,-12.0489,-12.0262,-12.0262,-12.0262,-12.0262,-12.0262,-12.0262,-12.0262,-11.989,-11.8402,-11.8097,-11.7624,-11.6101,-11.5831,-11.5831,-11.5831,-11.5831,-11.5831,-11.5831,-11.5831,-11.5831,-11.5831,-11.5831,-11.5831,-11.5831,-11.5831,-11.5831,-11.5831,-11.5831,-11.5831,-11.5831,-11.5831,-11.5831,-11.5831,-11.5831,-11.5831,-11.5831,-11.5831,-11.5831,-11.5831,-11.5831,-11.5831,-11.5831,-11.5831,-11.5831,-13.1679,-13.0978,-13.0528,-13.1297,-13.0179,-12.8889,-12.8695,-12.8579,-12.8297,-12.733,-12.7693,-12.8428,-12.9097,-12.862,-12.84,-12.9207,-12.862,-12.8106,-12.818,-12.8694,-12.8914,-12.818,-12.8694,-12.8914,-12.818,-12.7409,-12.6895,-12.6895,-12.6197,-12.5684,-12.5684,-12.5684,-12.5684,-12.5684,-12.5684,-12.5684,-12.5684,-12.5684,-12.6491,-12.8106,-12.8106,-12.8914,-13.0492,-13.0492,-13.0492,-13.0492,-13.0492,-13.0492,-13.0492,-13.0492,-13.0492,-13.0492,-13.0492,-13.0492,-13.0492,-13.0492,-13.0492,-13.0492,-13.0492,-13.0492,-13.0492,-13.0492,-12.9389,-12.768,-12.5901,-12.4192,-12.2478,-12.083,-12.0262,-12.0262,-12.0262,-12.0262,-12.0262,-12.0262,-12.0262,-11.989,-11.8402,-11.8097,-11.7624,-11.6101,-11.5831,-11.5831,-11.5831,-11.5831,-11.5831,-11.5831,-11.5831,-11.5831,-11.5831,-11.5831,-11.5831,-11.5831,-11.5831,-11.5831,-11.5831,-11.5831,-11.5831,-11.5831,-11.5831,-11.5831,-11.5831,-11.5831,-11.5831,-11.5831,-11.5831,-11.5831,-11.5831,-11.5831,-11.5831,-11.5831,-11.5831,-11.5831,-13.1679,-13.2012,-13.2087,-13.1582,-13.16,-13.1501,-13.0698,-13.0502,-13.018,-12.9206,-12.9081,-12.9098,-12.8529,-12.8694,-12.9097,-12.9318,-12.862,-12.829,-12.8914,-12.7592,-12.7005,-12.7996,-12.7813,-12.7702,-12.8106,-12.7409,-12.6895,-12.6895,-12.6197,-12.5684,-12.5684,-12.5684,-12.5684,-12.5684,-12.5684,-12.5684,-12.5684,-12.5684,-12.6491,-12.8106,-12.8106,-12.8914,-13.0492,-13.0492,-13.0492,-13.0492,-13.0492,-13.0492,-13.0492,-13.0492,-13.0492,-13.0492,-13.0492,-13.0492,-13.0492,-13.0492,-13.0492,-13.0492,-13.0492,-13.0492,-13.0492,-13.0492,-12.9389,-12.768,-12.5901,-12.4192,-12.2478,-12.083,-12.0262,-12.0262,-12.0262,-12.0262,-12.0262,-12.0262,-12.0262,-11.989,-11.8402,-11.8097,-11.7624,-11.6101,-11.5831,-11.5831,-11.5831,-11.5831,-11.5831,-11.5831,-11.5831,-11.5831,-11.5831,-11.5831,-11.5831,-11.5831,-11.5831,-11.5831,-11.5831,-11.5831,-11.5831,-11.5831,-11.5831,-11.5831,-11.5831,-11.5831,-11.5831,-11.5831,-11.5831,-11.5831,-11.5831,-11.5831,-11.5831,-11.5831,-11.5831,-11.5831,-13.1679,-13.2102,-13.241,-13.2204,-13.2501,-13.2714,-13.1991,-13.2198,-13.2023,-13.0526,-13.0167,-12.9878,-12.88,-12.8987,-12.9207,-12.8804,-12.8694,-12.851,-12.829,-12.7409,-12.6785,-12.7005,-12.7005,-12.6895,-12.7005,-12.6601,-12.6381,-12.6381,-12.5977,-12.5684,-12.5684,-12.5684,-12.5684,-12.5684,-12.5684,-12.5684,-12.5684,-12.5684,-12.6308,-12.7592,-12.7886,-12.8804,-13.0015,-13.0309,-13.0492,-13.0492,-13.0492,-13.0492,-13.0492,-13.0492,-13.0492,-13.0492,-13.0492,-13.0492,-13.0492,-13.0492,-13.0492,-13.0492,-13.0492,-13.0492,-13.0492,-13.0492,-12.9893,-12.8819,-12.7111,-12.5332,-12.3621,-12.1905,-12.087,-12.0262,-12.0262,-12.0262,-12.0262,-12.0262,-12.0059,-11.9484,-11.83,-11.7827,-11.7218,-11.6034,-11.5831,-11.5831,-11.5831,-11.5831,-11.5831,-11.5831,-11.5831,-11.5831,-11.5831,-11.5831,-11.5831,-11.5831,-11.5831,-11.5831,-11.5831,-11.5831,-11.5831,-11.5831,-11.5831,-11.5831,-11.5831,-11.5831,-11.5831,-11.5831,-11.5831,-11.5831,-11.5831,-11.5831,-11.5831,-11.5831,-11.5831,-11.5831,-13.141,-13.1487,-13.191,-13.2487,-13.2987,-13.3292,-13.2982,-13.3707,-13.368,-13.1618,-13.1105,-13.0694,-12.9168,-12.9097,-12.8914,-12.818,-12.8694,-12.8694,-12.7299,-12.7592,-12.7372,-12.5867,-12.6308,-12.6491,-12.5794,-12.5684,-12.5684,-12.5684,-12.5684,-12.5684,-12.5684,-12.5684,-12.5684,-12.5684,-12.5684,-12.5684,-12.5684,-12.5684,-12.6087,-12.6895,-12.7592,-12.84,-12.9318,-13.0015,-13.0419,-13.0492,-13.0492,-13.0492,-13.0492,-13.0492,-13.0492,-13.0492,-13.0492,-13.0492,-13.0492,-13.0492,-13.0492,-13.0492,-13.0492,-13.0492,-13.0492,-13.0492,-13.0492,-13.0195,-12.8502,-12.6774,-12.501,-12.328,-12.1615,-12.0262,-12.0262,-12.0262,-12.0262,-12.0262,-11.9687,-11.8977,-11.83,-11.7387,-11.6609,-11.5932,-11.5831,-11.5831,-11.5831,-11.5831,-11.5831,-11.5831,-11.5831,-11.5831,-11.5831,-11.5831,-11.5831,-11.5831,-11.5831,-11.5831,-11.5831,-11.5831,-11.5831,-11.5831,-11.5831,-11.5831,-11.5831,-11.5831,-11.5831,-11.5831,-11.5831,-11.5831,-11.5831,-11.5831,-11.5831,-11.5831,-11.5831,-11.5831,-12.9602,-13.0602,-13.1602,-13.1102,-13.2987,-13.4885,-13.4176,-13.5186,-13.5488,-13.2704,-13.2087,-13.1215,-12.7895,-12.7886,-12.829,-12.8106,-12.818,-12.818,-12.7886,-12.7409,-12.6785,-12.5794,-12.5794,-12.5867,-12.5684,-12.5684,-12.5684,-12.5684,-12.5684,-12.5684,-12.5684,-12.5684,-12.5684,-12.5684,-12.5684,-12.5684,-12.5684,-12.5684,-12.6087,-12.6895,-12.7005,-12.7886,-12.9318,-12.9428,-12.9905,-13.0492,-13.0492,-13.0492,-13.0492,-13.0492,-13.0492,-13.0492,-13.0492,-13.0492,-13.0492,-13.0492,-13.0492,-13.0492,-13.0492,-13.0492,-13.0492,-13.0492,-13.0492,-13.0195,-12.8502,-12.6774,-12.501,-12.328,-12.1615,-12.0262,-12.0262,-12.0262,-12.0262,-12.0262,-11.9687,-11.8977,-11.83,-11.7015,-11.6,-11.5831,-11.5831,-11.5831,-11.5831,-11.5831,-11.5831,-11.5831,-11.5831,-11.5831,-11.5831,-11.5831,-11.5831,-11.5831,-11.5831,-11.5831,-11.5831,-11.5831,-11.5831,-11.5831,-11.5831,-11.5831,-11.5831,-11.5831,-11.5831,-11.5831,-11.5831,-11.5831,-11.5831,-11.5831,-11.5831,-11.5831,-11.5831,-11.5831,-12.9217,-13.0102,-13.0987,-13.0602,-13.2718,-13.4795,-13.4411,-13.5603,-13.6113,-13.3683,-13.2874,-13.1609,-12.8264,-12.7983,-12.8088,-12.7583,-12.8216,-12.84,-12.7592,-12.7482,-12.7078,-12.5794,-12.5684,-12.5684,-12.5684,-12.5684,-12.5684,-12.5684,-12.5684,-12.5684,-12.5684,-12.5684,-12.5684,-12.5684,-12.5684,-12.5684,-12.5684,-12.5684,-12.5904,-12.6308,-12.6711,-12.7299,-12.8106,-12.8914,-12.9501,-12.9905,-13.0309,-13.0492,-13.0492,-13.0492,-13.0492,-13.0492,-13.0492,-13.0492,-13.0492,-13.0492,-13.0492,-13.0492,-13.0492,-13.0492,-13.0492,-13.0492,-13.0492,-13.0263,-12.9515,-12.8087,-12.6371,-12.4585,-12.29,-12.1431,-12.053,-12.0262,-12.0195,-11.9789,-11.8808,-11.7793,-11.7116,-11.6338,-11.5831,-11.5831,-11.5831,-11.5831,-11.5831,-11.5831,-11.5831,-11.5831,-11.5831,-11.5831,-11.5831,-11.5831,-11.5831,-11.5831,-11.5831,-11.5831,-11.5831,-11.5831,-11.5831,-11.5831,-11.5831,-11.5831,-11.5831,-11.5831,-11.5831,-11.5831,-11.5831,-11.5831,-11.5831,-11.5831,-11.5831,-11.5831,-11.5831,-11.5831,-12.8717,-12.941,-13.0217,-13.0217,-13.2295,-13.4295,-13.4295,-13.5488,-13.5993,-13.4127,-13.2982,-13.1604,-12.8995,-12.8287,-12.7917,-12.7304,-12.8125,-12.8326,-12.7115,-12.7409,-12.7299,-12.5867,-12.5684,-12.5684,-12.5684,-12.5684,-12.5684,-12.5684,-12.5684,-12.5684,-12.5684,-12.5684,-12.5684,-12.5684,-12.5684,-12.5684,-12.5684,-12.5684,-12.5684,-12.5684,-12.6308,-12.6711,-12.6895,-12.8216,-12.9024,-12.9318,-13.0015,-13.0309,-13.0492,-13.0492,-13.0492,-13.0492,-13.0492,-13.0492,-13.0492,-13.0492,-13.0492,-13.0492,-13.0492,-13.0492,-13.0492,-13.0492,-13.0492,-13.0492,-13.0492,-12.9298,-12.7703,-12.6274,-12.4422,-12.2514,-12.1172,-12.0537,-11.9789,-11.8909,-11.7793,-11.671,-11.6,-11.5831,-11.5831,-11.5831,-11.5831,-11.5831,-11.5831,-11.5831,-11.5831,-11.5831,-11.5831,-11.5831,-11.5831,-11.5831,-11.5831,-11.5831,-11.5831,-11.5831,-11.5831,-11.5831,-11.5831,-11.5831,-11.5831,-11.5831,-11.5831,-11.5831,-11.5831,-11.5831,-11.5831,-11.5831,-11.5831,-11.5831,-11.5831,-11.5831,-11.5831,-11.5831,-12.6909,-12.8102,-12.9294,-12.9294,-13.1795,-13.4295,-13.4295,0.0,-13.5109,-13.321,-13.2213,-13.0974,-12.9003,-12.7905,-12.7515,-12.8201,-12.756,-12.7115,-12.6895,-12.7005,-12.6711,-12.5794,-12.5684,-12.5684,-12.5684,-12.5684,-12.5684,-12.5684,-12.5684,-12.5684,-12.5684,-12.5684,-12.5684,-12.5684,-12.5684,-12.5684,-12.5684,-12.5684,-12.5684,-12.5684,-12.5794,-12.6197,-12.6895,-12.7115,-12.7923,-12.9318,-12.9428,-12.9795,-13.0492,-13.0492,-13.0492,-13.0492,-13.0492,-13.0492,-13.0492,-13.0492,-13.0492,-13.0492,-13.0492,-13.0492,-13.0492,-13.0492,-13.0492,-13.0492,-13.0492,-12.9298,-12.8008,-12.7797,-12.5367,-12.2795,-12.262,-12.0884,-11.8909,-11.7488,-11.7015,-11.671,-11.6,-11.5831,-11.5831,-11.5831,-11.5831,-11.5831,-11.5831,-11.5831,-11.5831,-11.5831,-11.5831,-11.5831,-11.5831,-11.5831,-11.5831,-11.5831,-11.5831,-11.5831,-11.5831,-11.5831,-11.5831,-11.5831,-11.5831,-11.5831,-11.5831,-11.5831,-11.5831,-11.5831,-11.5831,-11.5831,-11.5831,-11.5831,-11.5831,-11.5831,-11.5831,-11.5831,-12.6794,-12.7909,-12.9217,-12.9217,-13.1795,-13.4218,-13.3603,0.0,-13.4986,-13.3217,-13.2596,-13.1792,-12.9918,-12.9287,-12.8927,-12.8573,-12.8088,-12.7616,-12.7097,-12.7505,-12.7297,-12.5893,-12.6808,-12.6966,-12.5796,-12.6231,-12.641,-12.5697,-12.5684,-12.5684,-12.5684,-12.5684,-12.5684,-12.5684,-12.5684,-12.5684,-12.5684,-12.5684,-12.5684,-12.5684,-12.5684,-12.5867,-12.6197,-12.6711,-12.7225,-12.7923,-12.84,-12.8987,-12.9795,-12.9795,-13.0088,-13.0492,-13.0492,-13.0492,-13.0492,-13.0492,-13.0492,-13.0492,-13.0492,-13.0492,-13.0492,-13.0492,-13.0492,-13.0492,-13.0492,-12.9963,-12.9298,-12.8331,-12.7015,-12.5318,-12.2757,-11.9967,-11.7691,-11.7015,-11.6609,-11.6203,-11.5898,-11.5831,-11.5831,-11.5831,-11.5831,-11.5831,-11.5831,-11.5831,-11.5831,-11.5831,-11.5831,-11.5831,-11.5831,-11.5831,-11.5831,-11.5831,-11.5831,-11.5831,-11.5831,-11.5831,-11.5831,-11.5831,-11.5831,-11.5831,-11.5831,-11.5831,-11.5831,-11.5831,-11.5831,-11.5831,-11.5831,-11.5831,-11.5831,-11.5831,-11.5831,-11.5831,-12.7217,-12.7909,-12.8909,-12.9102,-13.141,-13.341,0.0,0.0,-13.4411,-13.318,-13.2795,-13.2178,-13.0882,-13.0392,-13.0006,-12.9287,-12.8488,-12.7982,-12.7696,-12.7926,-12.7717,-12.6699,-12.7796,-12.8,-12.6278,-12.6523,-12.6513,-12.582,-12.5684,-12.5684,-12.5684,-12.5684,-12.5684,-12.5684,-12.5684,-12.5684,-12.5684,-12.5684,-12.5684,-12.5684,-12.5684,-12.5684,-12.5684,-12.6308,-12.6711,-12.6895,-12.7482,-12.8216,-12.8914,-12.8914,-12.9391,-13.0125,-13.0125,-13.0309,-13.0492,-13.0492,-13.0492,-13.0492,-13.0492,-13.0492,-13.0492,-13.0492,-13.0492,-13.0492,-13.0492,-13.0492,-13.0284,-12.9078,-12.7921,-12.5984,-12.1982,-11.8974,-11.6812,-11.6609,-11.6203,-11.5831,-11.5831,-11.5831,-11.5831,-11.5831,-11.5831,-11.5831,-11.5831,-11.5831,-11.5831,-11.5831,-11.5831,-11.5831,-11.5831,-11.5831,-11.5831,-11.5831,-11.5831,-11.5831,-11.5831,-11.5831,-11.5831,-11.5831,-11.5831,-11.5831,-11.5831,-11.5831,-11.5831,-11.5831,-11.5831,-11.5831,-11.5831,-11.5831,-11.5831,-11.5831,-11.5831,-11.5831,-12.7909,-12.7909,-12.8102,-12.8986,-13.0487,-13.1987,0.0,-13.2987,-13.2987,-13.2987,-13.2295,-13.1679,-13.1718,-13.0893,-13.0198,-13.0204,-12.8512,-12.7574,-12.8512,-12.7796,-12.7617,-12.8588,-12.8702,-12.8279,-12.7274,-12.6315,-12.5733,-12.5684,-12.5684,-12.5684,-12.5684,-12.5684,-12.5684,-12.5684,-12.5684,-12.5684,-12.5684,-12.5684,-12.5684,-12.5684,-12.5684,-12.5684,-12.5684,-12.5684,-12.6087,-12.6895,-12.6895,-12.7409,-12.8106,-12.8106,-12.8583,-12.9318,-12.9318,-12.9795,-13.0492,-13.0492,-13.0492,-13.0492,-13.0492,-13.0492,-13.0492,-13.0492,-13.0492,-13.0492,-13.0492,-13.0492,-13.0492,-13.0529,-12.7509,-12.3592,-12.0288,-11.8187,-11.671,-11.6,-11.5831,-11.5831,-11.5831,-11.5831,-11.5831,-11.5831,-11.5831,-11.5831,-11.5831,-11.5831,-11.5831,-11.5831,-11.5831,-11.5831,-11.5831,-11.5831,-11.5831,-11.5831,-11.5831,-11.5831,-11.5831,-11.5831,-11.5831,-11.5831,-11.5831,-11.5831,-11.5831,-11.5831,-11.5831,-11.5831,-11.5831,-11.5831,-11.5831,-11.5831,-11.5831,-11.5831,-11.5831,-11.5831,-12.8986,-12.9217,-12.991,-13.0718,-13.2218,-13.341,-13.3103,-13.3487,-13.3603,-13.241,-13.191,-13.1679,-13.1679,-13.1383,-13.1183,-13.1183,-13.0097,-12.943,-12.9704,-12.9499,-12.9106,-12.8702,-12.8702,-12.8626,-12.8277,-12.728,-12.6393,-12.582,-12.5684,-12.5684,-12.5684,-12.5684,-12.5684,-12.5684,-12.5684,-12.5684,-12.5684,-12.5684,-12.5684,-12.5684,-12.5684,-12.5684,-12.5684,-12.5684,-12.5794,-12.6087,-12.6087,-12.6491,-12.7299,-12.7299,-12.7813,-12.851,-12.851,-12.8583,-12.8877,-12.8877,-12.8877,-12.8877,-12.8877,-12.8877,-12.8877,-12.8877,-12.8877,-12.8877,-12.8877,-12.9207,-12.9611,-12.8987,-12.6715,-12.4135,-12.3103,-12.0301,-11.7784,-11.7578,-11.6597,-11.5831,-11.5831,-11.5831,-11.5831,-11.5831,-11.5831,-11.5831,-11.5831,-11.5831,-11.5831,-11.5831,-11.5831,-11.5831,-11.5831,-11.5831,-11.5831,-11.5831,-11.5831,-11.5831,-11.5831,-11.5831,-11.5831,-11.5831,-11.5831,-11.5831,-11.5831,-11.5831,-11.5831,-11.5831,-11.5831,-11.5831,-11.5831,-11.5831,-11.5831,-11.5831,-11.5831,-11.5831,0.0,-12.9794,-13.0294,-13.141,-13.2295,0.0,-13.2987,-13.318,-13.2987,-13.191,-13.1679,-13.1679,-13.1679,-13.1679,-13.1679,-13.1679,-13.0902,-13.0406,-13.1197,-13.0575,-13.0103,-12.9908,-12.9496,-12.9287,-12.9287,-12.8,-12.6914,-12.6325,-12.5907,-12.5684,-12.5684,-12.5684,-12.5684,-12.5684,-12.5684,-12.5684,-12.5684,-12.5684,-12.5684,-12.5684,-12.5684,-12.5684,-12.5684,-12.5684,-12.5684,-12.5684,-12.5684,-12.5977,0.0,-12.6418,-12.6895,-12.7592,-12.7592,-12.7813,-12.8106,-12.8106,-12.8106,-12.8106,-12.8106,-12.8106,-12.8106,-12.8106,-12.8106,-12.7996,-12.7702,-12.8216,-12.8694,-12.7886,-12.6093,-12.429,-12.4002,-12.16,-11.9213,-11.9213,-11.839,-11.7475,-11.688,-11.6704,-11.6594,-11.5942,-11.5831,-11.5831,-11.5831,-11.5831,-11.5831,-11.5831,-11.5831,-11.5831,-11.5831,-11.5831,-11.5831,-11.5831,-11.5831,-11.5831,-11.5831,-11.5831,-11.5831,-11.5831,-11.5831,-11.5831,-11.5831,-11.5831,-11.5831,-11.5831,-11.5831,-11.5831,-11.5831,-11.5831,-11.5831,-11.5831,-11.5831,-11.5831,0.0,0.0,0.0,0.0,0.0,-13.1102,-13.2603,-13.241,0.0,-13.1679,-13.1679,-13.1679,-13.1679,-13.1679,-13.1679,-13.1679,-13.0883,-13.0909,-13.2718,-13.1496,-13.0718,-13.1603,-13.0893,-13.0299,-13.0198,-12.8397,-12.7311,-12.7187,-12.6289,-12.5783,-12.5684,-12.5783,-12.5783,-12.5684,-12.5684,-12.5684,-12.5684,-12.5684,-12.5684,-12.5684,-12.5684,-12.5684,-12.5684,-12.5684,-12.5684,-12.5684,-12.5684,-12.5684,-12.5684,-12.5684,-12.6087,-12.6785,-12.6785,-12.7299,-12.7886,-12.7886,-12.7886,-12.7886,-12.7886,-12.7886,-12.7886,-12.7886,-12.7886,-12.7776,-12.7005,-12.7409,-12.7813,-12.7005,-12.5709,-12.4314,-12.3591,-12.2204,-12.0977,-12.0977,-12.0916,-12.036,-11.8789,-11.8393,-11.7784,-11.6342,-11.5904,-11.5831,-11.5831,-11.5831,-11.5831,-11.5831,-11.5831,-11.5831,-11.5831,-11.5831,-11.5831,-11.5831,-11.5831,-11.5831,-11.5831,-11.5831,-11.5831,-11.5831,-11.5831,-11.5831,-11.5831,-11.5831,-11.5831,-11.5831,-11.5831,-11.5831,-11.5831,-11.5831,-11.5831,-11.5831,-11.5831,-11.5831,0.0,0.0,0.0,0.0,-13.2603,-13.2487,0.0,-13.2795,-13.2487,-13.1795,-13.1679,-13.1679,-13.1679,-13.1679,-13.1679,-13.1679,-13.1512,-13.169,-13.2808,-13.2588,-13.219,-13.1769,-13.1512,-13.0968,-13.0299,-12.9108,-12.8,-12.7311,-12.6996,-12.6523,-12.5697,-12.643,-12.6476,-12.5697,-12.5684,-12.5684,-12.5684,-12.5684,-12.5684,-12.5684,-12.5684,-12.5684,-12.5684,-12.5684,-12.5684,-12.5684,-12.5684,-12.5684,-12.5684,-12.5684,-12.5794,-12.5977,-12.5977,-12.6087,-12.6271,-12.6271,-12.6271,-12.6271,-12.6271,-12.6271,-12.6271,-12.6271,-12.6271,-12.6197,-12.5977,-12.6491,-12.7005,-12.6197,-12.5703,-12.5411,-12.5192,-12.3884,-12.2629,-12.2629,-12.1699,-12.067,-12.0297,-11.9183,-11.8191,-11.7818,-11.6702,-11.5831,-11.5831,-11.5831,-11.5831,-11.5831,-11.5831,-11.5831,-11.5831,-11.5831,-11.5831,-11.5831,-11.5831,-11.5831,-11.5831,-11.5831,-11.5831,-11.5831,-11.5831,-11.5831,-11.5831,-11.5831,-11.5831,-11.5831,-11.5831,-11.5831,-11.5831,-11.5831,-11.5831,-11.5831,-11.5831,-11.5831,0.0,0.0,-13.141,-13.2679,-13.241,-13.2102,-13.2795,-13.2679,-13.2295,-13.1795,-13.1679,-13.1679,-13.1679,-13.1987,-13.2179,-13.1795,-13.241,-13.291,-13.2987,-13.2987,-13.2679,-13.1795,-13.1679,-13.1486,-13.0912,-13.0006,-12.918,-12.8626,-12.8083,-12.7701,-12.7136,-12.7217,-12.7033,-12.642,-12.5919,-12.5684,-12.5684,-12.5684,-12.5684,-12.5684,-12.5684,-12.5684,-12.5684,-12.5684,-12.5684,-12.5684,-12.5684,-12.5684,-12.5684,-12.5684,-12.5684,-12.5684,-12.5684,-12.5684,-12.5684,-12.5684,-12.5684,-12.5684,-12.5684,-12.5684,-12.5684,-12.5684,-12.5684,-12.5684,-12.5684,-12.5977,-12.6271,-12.5794,-12.5684,-12.5684,-12.5684,-12.4979,-12.4312,-12.4312,-12.3721,-12.2835,-12.2088,-12.1185,-12.0289,-11.96,-11.8123,-11.6916,-11.6916,-11.6308,-11.5831,-11.5831,-11.5831,-11.5831,-11.5831,-11.5831,-11.5831,-11.5831,-11.5831,-11.5831,-11.5831,-11.5831,-11.5831,-11.5831,-11.5831,-11.5831,-11.5831,-11.5831,-11.5831,-11.5831,-11.5831,-11.5831,-11.5831,-11.5831,-11.5831,-11.5831,-11.5831,-11.5831,-13.0718,-13.0487,-13.0794,-13.2295,-13.1602,-13.091,-13.241,-13.2179,-13.1679,-13.1679,-13.1679,-13.1679,-13.191,-13.241,-13.2603,-13.1987,-13.3103,-13.3795,-13.3103,-13.2987,-13.2679,-13.1795,-13.1679,-13.1679,-13.1679,-13.0797,-13.0198,-13.0198,-12.9427,-12.8889,-12.8702,-12.7875,-12.7398,-12.7187,-12.6183,-12.5684,-12.5684,-12.5684,-12.5684,-12.5684,-12.5684,-12.5684,-12.5684,-12.5684,-12.5684,-12.5684,-12.5684,-12.5684,-12.5684,-12.5684,-12.5684,-12.5684,-12.5684,-12.5684,-12.5684,-12.5684,-12.5684,-12.5684,-12.5684,-12.5684,-12.5684,-12.5684,-12.5684,-12.5684,-12.5684,-12.5684,-12.5684,-12.5684,-12.5684,-12.5684,-12.5684,-12.5684,-12.5684,-12.5684,-12.5684,-12.5308,-12.3884,-12.341,-12.2778,-12.1425,-11.9757,-11.8691,-11.8691,-11.7509,-11.6523,-11.6164,-11.6198,-11.6087,-11.5797,-11.5831,-11.5831,-11.5831,-11.5831,-11.5831,-11.5831,-11.5831,-11.5831,-11.5831,-11.5831,-11.5831,-11.5831,-11.5831,-11.5831,-11.5831,-11.5831,-11.5831,-11.5831,-11.5831,-11.5831,-11.5831,-11.5831,-11.5831,-13.0718,-13.0487,-13.0602,-13.0794,-13.0679,-13.0718,-13.1679,-13.1795,-13.1679,-13.1679,-13.1679,-13.191,-13.2679,-13.2295,-13.2102,-13.2679,-13.2987,-13.318,-13.2987,-13.2987,-13.2679,-13.1795,-13.1679,-13.1679,-13.1679,-13.0797,-13.0198,-13.0198,-13.0109,-12.9598,-12.8702,-12.8588,-12.8078,-12.723,-12.6183,-12.5684,-12.5684,-12.5684,-12.5684,-12.5684,-12.5684,-12.5684,-12.5684,-12.5684,-12.5684,-12.5684,-12.5684,-12.5684,-12.5684,-12.5684,-12.5684,-12.5684,-12.5684,-12.5684,-12.5684,-12.5684,-12.5684,-12.5684,-12.5684,-12.5684,-12.5684,-12.5684,-12.5684,-12.5684,-12.5684,-12.5684,-12.5684,-12.5684,-12.5684,-12.5684,-12.5684,-12.5684,-12.5684,-12.5684,-12.5684,-12.5597,-12.5396,-12.4189,-12.3116,-12.2892,-12.1485,-12.0387,-12.0387,-12.0235,-11.9571,-11.8089,-11.792,-11.7371,-11.6015,-11.5831,-11.5831,-11.5831,-11.5831,-11.5831,-11.5831,-11.5831,-11.5831,-11.5831,-11.5831,-11.5831,-11.5831,-11.5831,-11.5831,-11.5831,-11.5831,-11.5831,-11.5831,-11.5831,-11.5831,-11.5831,-11.5831,-11.5831,-12.9294,-12.9102,-12.9217,-12.9717,-13.0217,-13.0718,-13.1487,-13.2102,-13.2295,-13.1795,-13.2102,-13.2487,-13.291,-13.3103,-13.341,-13.418,-13.318,-13.2487,-13.291,-13.2603,-13.2102,-13.1679,-13.1679,-13.1679,-13.1679,-13.1314,-13.1006,-13.1006,-13.1006,-13.0797,-13.0284,-12.9804,-12.8996,-12.8,-12.7011,-12.6231,-12.5684,-12.5684,-12.5684,-12.5684,-12.5684,-12.5684,-12.5684,-12.5684,-12.5684,-12.5684,-12.5684,-12.5684,-12.5684,-12.5684,-12.5684,-12.5684,-12.5684,-12.5684,-12.5684,-12.5684,-12.5684,-12.5684,-12.5684,-12.5684,-12.5684,-12.5684,-12.5684,-12.5684,-12.5684,-12.5684,-12.5684,-12.5684,-12.5684,-12.5684,-12.5684,-12.5684,-12.5684,-12.5684,-12.5684,-12.5684,-12.5684,-12.5119,-12.4615,-12.4615,-12.3208,-12.211,-12.211,-12.1401,-12.0511,-11.9827,-11.889,-11.7988,-11.73,-11.6414,-11.5831,-11.5831,-11.5831,-11.5831,-11.5831,-11.5831,-11.5831,-11.5831,-11.5831,-11.5831,-11.5831,-11.5831,-11.5831,-11.5831,-11.5831,-11.5831,-11.5831,-11.5831,-11.5831,-11.5831,-11.5831,-11.5831,-12.8102,-12.8025,-12.8294,-12.8794,-12.9602,-13.041,-13.1179,-13.191,-13.2179,-13.1602,-13.2102,-13.2795,-13.2987,-13.3487,-13.4218,-13.4795,-13.3103,-13.1987,-13.2872,-13.2179,-13.1679,-13.1679,-13.1679,-13.1679,-13.1679,-13.1679,-13.1679,-13.1679,-13.1679,-13.1679,-13.1679,-13.07,-12.9799,-12.9108,-12.7796,-12.6779,-12.6101,-12.5796,-12.5684,-12.5684,-12.5684,-12.5684,-12.5684,-12.5684,-12.5684,-12.5684,-12.5684,-12.5684,-12.5684,-12.5684,-12.5684,-12.5684,-12.5684,-12.5684,-12.5684,-12.5684,-12.5684,-12.5684,-12.5684,-12.5684,-12.5684,-12.5684,-12.5684,-12.5684,-12.5684,-12.5684,-12.5684,-12.5684,-12.5684,-12.5684,-12.5684,-12.5684,-12.5684,-12.5684,-12.5684,-12.5684,-12.5684,-12.5684,-12.5684,-12.5684,-12.472,-12.383,-12.383,-12.2814,-12.1817,-12.1365,-12.0297,-11.9183,-11.8358,-11.7196,-11.6236,-11.5763,-11.5831,-11.5831,-11.5831,-11.5831,-11.5831,-11.5831,-11.5831,-11.5831,-11.5831,-11.5831,-11.5831,-11.5831,-11.5831,-11.5831,-11.5831,-11.5831,-11.5831,-11.5831,-11.5831,-11.5831,-12.8102,-12.8486,-12.8909,-12.8217,-12.8602,-12.9487,-13.041,-13.0602,-13.0679,-13.0602,-13.1179,-13.1987,-13.2872,-13.3103,-13.3103,-13.318,-13.2295,-13.1987,-13.2872,-13.2179,-13.1679,-13.1679,-13.1679,-13.1679,-13.1679,-13.1679,-13.1679,-13.1679,-13.1679,-13.1679,-13.1679,-13.07,-13.0204,-13.0103,-12.82,-12.718,-12.7092,-12.6209,-12.5684,-12.5684,-12.5684,-12.5684,-12.5684,-12.5684,-12.5684,-12.5684,-12.5684,-12.5684,-12.5684,-12.5684,-12.5684,-12.5684,-12.5684,-12.5684,-12.5684,-12.5684,-12.5684,-12.5684,-12.5684,-12.5684,-12.5684,-12.5684,-12.5684,-12.5684,-12.5684,-12.5684,-12.5684,-12.5684,-12.5684,-12.5684,-12.5684,-12.5684,-12.5684,-12.5684,-12.5684,-12.5684,-12.5684,-12.5684,-12.5684,-12.5684,-12.5597,-12.5497,-12.5497,-12.541,-12.4788,-12.3299,-12.2912,-12.1687,-11.8691,-11.8191,-11.7475,-11.6049,-11.5831,-11.5831,-11.5831,-11.5831,-11.5831,-11.5831,-11.5831,-11.5831,-11.5831,-11.5831,-11.5831,-11.5831,-11.5831,-11.5831,-11.5831,-11.5831,-11.5831,-11.5831,-11.5831,-11.5831,-12.7217,-12.7794,-12.8294,-12.8025,-12.8602,-12.9294,-12.9602,-13.0102,-13.0487,-13.0487,-13.0718,-13.1102,-13.141,-13.141,-13.141,-13.141,-13.0718,-13.0294,-13.0602,-13.041,-13.0102,-13.0102,-13.0102,-13.0102,-13.0102,-13.0602,-13.0987,-13.0987,-13.141,-13.1679,-13.1679,-13.1303,-13.0787,-13.0198,-12.8889,-12.7796,-12.7187,-12.6816,-12.6588,-12.6625,-12.6004,-12.5684,-12.5684,-12.5684,-12.5684,-12.5684,-12.5684,-12.5684,-12.5684,-12.5684,-12.5684,-12.5684,-12.5684,-12.5684,-12.5684,-12.5684,-12.5684,-12.5684,-12.5684,-12.5684,-12.5684,-12.5684,-12.5684,-12.5684,-12.5684,-12.5684,-12.5684,-12.5684,-12.5684,-12.5684,-12.5684,-12.5684,-12.5684,-12.5684,-12.5684,-12.5684,-12.5684,-12.5684,-12.5684,-12.5684,-12.5684,-12.5684,-12.5684,-12.5684,-12.5497,-12.4913,-12.3884,-12.2814,-12.1485,-12.0485,-11.96,-11.9021,-11.8022,-11.6916,-11.587,-11.5831,-11.5831,-11.5831,-11.5831,-11.5831,-11.5831,-11.5831,-11.5831,-11.5831,-11.5831,-11.5831,-11.5831,-11.5831,-11.5831,-11.5831,-11.5831,-11.5831,-12.7101,-12.7486,-12.8025,-12.8217,-12.8409,-12.8486,-12.8717,-12.9294,-12.9717,-12.9717,-12.991,-13.0217,-13.041,-13.0294,-13.0102,-13.0102,-12.9602,-12.9217,-12.9217,-12.9217,-12.9217,-12.9217,-12.9217,-12.9217,-12.9217,-12.9717,-13.0102,-13.0102,-13.091,-13.1295,-13.1295,-13.1602,-13.1395,-13.0709,-12.97,-12.8813,-12.8195,-12.7796,-12.7705,-12.7663,-12.6996,-12.6513,-12.6209,-12.5808,-12.5684,-12.5684,-12.5684,-12.5684,-12.5684,-12.5684,-12.5684,-12.5684,-12.5684,-12.5684,-12.5684,-12.5684,-12.5684,-12.5684,-12.5684,-12.5684,-12.5684,-12.5684,-12.5684,-12.5684,-12.5684,-12.5684,-12.5684,-12.5684,-12.5684,-12.5684,-12.5684,-12.5684,-12.5684,-12.5684,-12.5684,-12.5684,-12.5684,-12.5684,-12.5684,-12.5684,-12.5684,-12.5684,-12.5684,-12.5684,-12.5684,-12.5684,-12.4736,-12.3793,-12.3263,-12.2191,-12.1436,-12.089,-11.9313,-11.7784,-11.6702,-11.6126,-11.5831,-11.5831,-11.5831,-11.5831,-11.5831,-11.5831,-11.5831,-11.5831,-11.5831,-11.5831,-11.5831,-11.5831,-11.5831,-11.5831,-11.5831,-11.5831,-12.7909,-12.7909,-12.8102,-12.8986,-12.7909,-12.6909,-12.7717,-12.7909,-12.7909,-12.7909,-12.8602,-12.941,-13.0294,-12.9794,-12.9217,-12.9217,-12.9217,-12.9217,-12.9217,-12.9217,-12.9217,-12.9217,-12.9217,-12.9217,-12.9217,-12.9217,-12.9217,-12.9217,-12.9987,-13.0487,-13.0487,-13.1295,-13.1679,-13.1679,-13.07,-13.0198,-13.0198,-12.9178,-12.8702,-12.8702,-12.8702,-12.8198,-12.7224,-12.6209,-12.5733,-12.5733,-12.5684,-12.5684,-12.5684,-12.5684,-12.5684,-12.5684,-12.5684,-12.5684,-12.5684,-12.5684,-12.5684,-12.5684,-12.5684,-12.5684,-12.5684,-12.5684,-12.5684,-12.5684,-12.5684,-12.5684,-12.5684,-12.5684,-12.5684,-12.5684,-12.5684,-12.5684,-12.5684,-12.5684,-12.5684,-12.5684,-12.5684,-12.5684,-12.5684,-12.5684,-12.5684,-12.5684,-12.5684,-12.5684,-12.5684,-12.5684,-12.5684,-12.5119,-12.3393,-12.3227,-12.2572,-12.0977,-11.9278,-11.8256,-11.8291,-11.6843,-11.5797,-11.5797,-11.5797,-11.5831,-11.5831,-11.5831,-11.5831,-11.5831,-11.5831,-11.5831,-11.5831,-11.5831,-11.5831,-11.5831,-11.5831,-11.5831,-12.7101,-12.7909,-12.8602,-12.7678,-12.7986,-12.8217,-12.7294,-12.7101,-12.7101,-12.7101,-12.7717,-12.8217,-12.7909,-12.7602,-12.7409,-12.7409,-12.7409,-12.7409,-12.7409,-12.7409,-12.7409,-12.7409,-12.7409,-12.7409,-12.7409,-12.7986,-12.8294,-12.8294,-12.9102,-12.991,-13.0487,-13.0718,-13.1102,-13.1679,-13.07,-13.0198,-13.0198,-12.9903,-12.9809,-12.9809,-12.9809,-12.9213,-12.82,-12.7187,-12.6799,-12.668,-12.5968,-12.5684,-12.5684,-12.5684,-12.5684,-12.5684,-12.5684,-12.5684,-12.5684,-12.5684,-12.5684,-12.5684,-12.5684,-12.5684,-12.5684,-12.5684,-12.5684,-12.5684,-12.5684,-12.5684,-12.5684,-12.5684,-12.5684,-12.5684,-12.5684,-12.5684,-12.5684,-12.5684,-12.5684,-12.5684,-12.5684,-12.5684,-12.5684,-12.5684,-12.5684,-12.5684,-12.5684,-12.5684,-12.5684,-12.5684,-12.5684,-12.5497,-12.4979,-12.5016,-12.4295,-12.2665,-12.2016,-12.1305,-12.0207,-11.8457,-11.7578,-11.7578,-11.6485,-11.5831,-11.5831,-11.5831,-11.5831,-11.5831,-11.5831,-11.5831,-11.5831,-11.5831,-11.5831,-11.5831,-11.5831,-11.5831,-12.8102,-12.8909,-12.9487,-12.8486,-12.8409,-12.8294,-12.6986,-12.6678,-12.6678,-12.6678,-12.7101,-12.7294,-12.6794,-12.6678,-12.6678,-12.6678,-12.6678,-12.6678,-12.6678,-12.6678,-12.6678,-12.6678,-12.6678,-12.6678,-12.6678,-12.7101,-12.7409,-12.7409,-12.8217,-12.8909,-12.941,-12.9794,-13.041,-13.1179,-13.0602,-13.049,-13.0797,-13.0797,-13.0797,-13.0797,-13.0797,-13.0491,-12.9799,-12.8,-12.7187,-12.7062,-12.6124,-12.5684,-12.5684,-12.5684,-12.5684,-12.5684,-12.5684,-12.5684,-12.5684,-12.5684,-12.5684,-12.5684,-12.5684,-12.5684,-12.5684,-12.5684,-12.5684,-12.5684,-12.5684,-12.5684,-12.5684,-12.5684,-12.5684,-12.5684,-12.5684,-12.5684,-12.5684,-12.5684,-12.5684,-12.5684,-12.5684,-12.5684,-12.5684,-12.5684,-12.5684,-12.5684,-12.5684,-12.5684,-12.5684,-12.5684,-12.5684,-12.5684,-12.5684,-12.5684,-12.5308,-12.4295,-12.363,-12.2835,-12.1782,-12.02,-11.8986,-11.8256,-11.7405,-11.6523,-11.5797,-11.5831,-11.5831,-11.5831,-11.5831,-11.5831,-11.5831,-11.5831,-11.5831,-11.5831,-11.5831,-11.5831,-12.9987,-13.0294,-13.041,-13.0294,-12.8986,-12.7602,-12.6909,-12.6678,-12.6678,-12.6678,-12.6678,-12.6678,-12.6678,-12.6678,-12.6678,-12.6678,-12.6678,-12.6678,-12.6678,-12.6678,-12.6678,-12.6678,-12.6678,-12.6678,-12.6678,-12.6678,-12.6678,-12.6678,-12.7409,-12.7794,-12.7909,-12.8717,-12.9487,-13.041,-13.0487,-13.091,-13.1602,-13.1679,-13.1679,-13.1679,-13.1679,-13.1679,-13.1628,-12.8814,-12.7404,-12.7062,-12.6124,-12.5684,-12.5684,-12.5684,-12.5684,-12.5684,-12.5684,-12.5684,-12.5684,-12.5684,-12.5684,-12.5684,-12.5684,-12.5684,-12.5684,-12.5684,-12.5684,-12.5684,-12.5684,-12.5684,-12.5684,-12.5684,-12.5684,-12.5684,-12.5684,-12.5684,-12.5684,-12.5684,-12.5684,-12.5684,-12.5684,-12.5684,-12.5684,-12.5684,-12.5684,-12.5684,-12.5684,-12.5684,-12.5684,-12.5684,-12.5684,-12.5684,-12.5684,-12.5684,-12.5684,-12.5684,-12.4295,-12.3429,-12.3429,-12.1899,-12.036,-11.882,-11.8527,-11.7612,-11.6053,-11.5904,-11.5831,-11.5831,-11.5831,-11.5831,-11.5831,-11.5831,-11.5831,-11.5831,-11.5831,-11.5831,-12.8409,-12.8986,-12.9294,-12.8602,-12.7717,-12.6909,-12.6678,-12.6678,-12.6678,-12.6678,-12.6678,-12.6678,-12.6678,-12.6678,-12.6678,-12.6678,-12.6678,-12.6678,-12.6678,-12.6678,-12.6678,-12.6678,-12.6678,-12.6678,-12.6678,-12.6678,-12.6678,-12.6678,-12.6909,-12.7217,-12.7909,-12.8102,-12.8602,-12.9487,-13.0102,-13.0602,-13.0794,-13.141,-13.1679,-13.1679,-13.1679,-13.1679,-13.1692,-13.0198,-12.8702,-12.7062,-12.6124,-12.5684,-12.5684,-12.5684,-12.5684,-12.5684,-12.5684,-12.5684,-12.5684,-12.5684,-12.5684,-12.5684,-12.5684,-12.5684,-12.5684,-12.5684,-12.5684,-12.5684,-12.5684,-12.5684,-12.5684,-12.5684,-12.5684,-12.5684,-12.5684,-12.5684,-12.5684,-12.5684,-12.5684,-12.5684,-12.5684,-12.5684,-12.5684,-12.5684,-12.5684,-12.5684,-12.5684,-12.5684,-12.5684,-12.5684,-12.5684,-12.5684,-12.5684,-12.5684,-12.5684,-12.5684,-12.5396,-12.5206,-12.5206,-12.3594,-12.2515,-12.2169,-11.9693,-11.8089,-11.7818,-11.6488,-11.5831,-11.5831,-11.5831,-11.5831,-11.5831,-11.5831,-11.5831,-11.5831,-11.5831,-11.5831,-12.8909,-12.9217,-12.8986,-12.8102,-12.7294,-12.6678,-12.6678,-12.6678,-12.6678,-12.6678,-12.6678,-12.6678,-12.6678,-12.6678,-12.6678,-12.6678,-12.6678,-12.6678,-12.6678,-12.6678,-12.6678,-12.6678,-12.6678,-12.6678,-12.6678,-12.6678,-12.6678,-12.6678,-12.6678,-12.6909,-12.7294,-12.7294,-12.7717,-12.8602,-12.8986,-12.9487,-12.991,-13.0718,-13.1102,-13.1102,-13.1487,-13.1679,-13.1692,-13.0679,-12.9106,-12.718,-12.6588,-12.6383,-12.6373,-12.5907,-12.6004,-12.641,-12.5894,-12.5684,-12.5684,-12.5684,-12.5684,-12.5684,-12.5684,-12.5684,-12.5684,-12.5684,-12.5684,-12.5684,-12.5684,-12.5684,-12.5684,-12.5684,-12.5684,-12.5684,-12.5684,-12.5684,-12.5684,-12.5684,-12.5684,-12.5684,-12.5684,-12.5684,-12.5684,-12.5684,-12.5684,-12.5684,-12.5684,-12.5684,-12.5684,-12.5684,-12.5684,-12.5684,-12.5684,-12.5684,-12.5684,-12.5684,-12.5684,-12.5684,-12.5684,-12.4876,-12.4082,-12.3299,-12.1604,-11.9912,-11.8393,-11.7543,-11.6597,-11.5797,-11.5831,-11.5831,-11.5831,-11.5831,-11.5831,-11.5831,-11.5831,-11.5831,-12.9717,-12.9487,-12.8794,-12.7909,-12.7217,-12.6678,-12.6678,-12.6678,-12.6678,-12.6678,-12.6678,-12.6678,-12.6678,-12.6678,-12.6678,-12.6678,-12.6678,-12.6678,-12.6678,-12.6678,-12.6678,-12.6678,-12.6678,-12.6678,-12.6678,-12.6678,-12.6678,-12.6678,-12.6678,-12.6678,-12.6678,-12.6678,-12.6986,-12.7717,-12.7794,-12.8217,-12.8986,-12.9794,-13.041,-13.0487,-13.1295,-13.1679,-13.1692,-13.0787,-12.9499,-12.7705,-12.7398,-12.7317,-12.7404,-12.6172,-12.6315,-12.7092,-12.6113,-12.5684,-12.5684,-12.5684,-12.5684,-12.5684,-12.5684,-12.5684,-12.5684,-12.5684,-12.5684,-12.5684,-12.5684,-12.5684,-12.5684,-12.5684,-12.5684,-12.5684,-12.5684,-12.5684,-12.5684,-12.5684,-12.5684,-12.5684,-12.5684,-12.5684,-12.5684,-12.5684,-12.5684,-12.5684,-12.5684,-12.5684,-12.5684,-12.5684,-12.5684,-12.5684,-12.5684,-12.5684,-12.5684,-12.5684,-12.5684,-12.5684,-12.5684,-12.5684,-12.5119,-12.3685,-12.341,-12.1994,-11.9313,-11.889,-11.7885,-11.627,-11.5909,-11.5831,-11.5831,-11.5831,-11.5831,-11.5831,-11.5831,-11.5831,-12.8217,-12.8217,-12.7909,-12.7101,-12.6794,-12.6678,-12.6678,-12.6678,-12.6678,-12.6678,-12.6678,-12.6678,-12.6678,-12.6678,-12.6678,-12.6678,-12.6678,-12.6678,-12.6678,-12.6678,-12.6678,-12.6678,-12.6678,-12.6678,-12.6678,-12.6678,-12.6678,-12.6678,-12.6678,-12.6678,-12.6678,-12.6678,-12.6678,-12.6909,-12.7486,-12.8025,-12.8102,-12.8909,-12.9794,-13.0487,-13.1295,-13.1679,-13.1718,-13.1577,-13.0893,-12.97,-12.7994,-12.7705,-12.8395,-12.6513,-12.6315,-12.7092,-12.6113,-12.5684,-12.5684,-12.5684,-12.5684,-12.5684,-12.5684,-12.5684,-12.5684,-12.5684,-12.5684,-12.5684,-12.5684,-12.5684,-12.5684,-12.5684,-12.5684,-12.5684,-12.5684,-12.5684,-12.5684,-12.5684,-12.5684,-12.5684,-12.5684,-12.5684,-12.5684,-12.5684,-12.5684,-12.5684,-12.5684,-12.5684,-12.5684,-12.5684,-12.5684,-12.5684,-12.5684,-12.5684,-12.5684,-12.5684,-12.5684,-12.5684,-12.5684,-12.5684,-12.5597,-12.5396,-12.3992,-12.3004,-12.2608,-12.1185,-11.9699,-11.7988,-11.6454,-11.5831,-11.5831,-11.5831,-11.5831,-11.5831,-11.5831,-11.5831,-12.7217,-12.7602,-12.7717,-12.6909,-12.6678,-12.6678,-12.6678,-12.6678,-12.6678,-12.6678,-12.6678,-12.6678,-12.6678,-12.6678,-12.6678,-12.6678,-12.6678,-12.6678,-12.6678,-12.6678,-12.6678,-12.6678,-12.6678,-12.6678,-12.6678,-12.6678,-12.6678,-12.6678,-12.6678,-12.6678,-12.6678,-12.6678,-12.6678,-12.6678,-12.6986,-12.7217,-12.7217,-12.8102,-12.9217,-13.0487,-13.091,-13.1295,-13.1679,-13.1679,-13.1205,-13.0204,-12.9287,-12.9106,-12.9389,-12.7997,-12.7626,-12.7919,-12.6914,-12.6172,-12.5684,-12.5684,-12.5684,-12.5684,-12.5684,-12.5684,-12.5684,-12.5684,-12.5684,-12.5684,-12.5684,-12.5684,-12.5684,-12.5684,-12.5684,-12.5684,-12.5684,-12.5684,-12.5684,-12.5684,-12.5684,-12.5684,-12.5684,-12.5684,-12.5684,-12.5684,-12.5684,-12.5684,-12.5684,-12.5684,-12.5684,-12.5684,-12.5684,-12.5684,-12.5684,-12.5684,-12.5684,-12.5684,-12.5684,-12.5684,-12.5684,-12.5684,-12.5684,-12.5684,-12.4979,-12.4189,-12.3227,-12.2515,-12.1401,-11.9693,-11.809,-11.6739,-11.5831,-11.5831,-11.5831,-11.5831,-11.5831,-11.5831,-12.6678,-12.7101,-12.7486,-12.6794,-12.6678,-12.6678,-12.6678,-12.6678,-12.6678,-12.6678,-12.6678,-12.6678,-12.6678,-12.6678,-12.6678,-12.6678,-12.6678,-12.6678,-12.6678,-12.6678,-12.6678,-12.6678,-12.6678,-12.6678,-12.6678,-12.6678,-12.6678,-12.6678,-12.6678,-12.6678,-12.6678,-12.6678,-12.6678,-12.6678,-12.6678,-12.6678,-12.6678,-12.7486,-12.8717,-13.0217,-13.041,-13.091,-13.1679,-13.1679,-13.1314,-13.062,-13.0292,-13.0323,-13.0491,-12.9213,-12.8889,-12.8999,-12.7705,-12.6725,-12.6101,-12.5796,-12.5684,-12.5684,-12.5684,-12.5684,-12.5684,-12.5684,-12.5684,-12.5684,-12.5684,-12.5684,-12.5684,-12.5684,-12.5684,-12.5684,-12.5684,-12.5684,-12.5684,-12.5684,-12.5684,-12.5684,-12.5684,-12.5684,-12.5684,-12.5684,-12.5684,-12.5684,-12.5684,-12.5684,-12.5684,-12.5684,-12.5684,-12.5684,-12.5684,-12.5684,-12.5684,-12.5684,-12.5684,-12.5684,-12.5684,-12.5684,-12.5684,-12.5684,-12.5684,-12.5082,-12.3884,-12.3793,-12.3096,-12.1425,-12.0235,-11.8524,-11.6417,-11.6417,-11.6164,-11.5831,-11.5831,-11.5831,-12.6678,-12.6678,-12.6794,-12.6678,-12.6678,-12.6678,-12.6678,-12.6678,-12.6678,-12.6678,-12.6678,-12.6678,-12.6678,-12.6678,-12.6678,-12.6678,-12.6678,-12.6678,-12.6678,-12.6678,-12.6678,-12.6678,-12.6678,-12.6678,-12.6678,-12.6678,-12.6678,-12.6678,-12.6678,-12.6678,-12.6678,-12.6678,-12.6678,-12.6678,-12.6678,-12.6678,-12.6678,-12.7486,-12.8409,-12.9294,-13.0102,-13.091,-13.1679,-13.1679,-13.1692,-13.1603,-13.0611,-13.07,-13.1486,-12.953,-12.9287,-12.9903,-12.7994,-12.718,-12.7003,-12.6101,-12.5684,-12.5684,-12.5684,-12.5684,-12.5684,-12.5684,-12.5684,-12.5684,-12.5684,-12.5684,-12.5684,-12.5684,-12.5684,-12.5684,-12.5684,-12.5684,-12.5684,-12.5684,-12.5684,-12.5684,-12.5684,-12.5684,-12.5684,-12.5684,-12.5684,-12.5684,-12.5684,-12.5684,-12.5684,-12.5684,-12.5684,-12.5684,-12.5684,-12.5684,-12.5684,-12.5684,-12.5684,-12.5684,-12.5684,-12.5684,-12.5684,-12.5684,-12.5684,-12.572,-12.5583,-12.5583,-12.4824,-12.3116,-12.3004,-12.1365,-11.8226,-11.8226,-11.7405,-11.5831,-11.5831,-11.5831,-12.6678,-12.6678,-12.6678,-12.6678,-12.6678,-12.6678,-12.6678,-12.6678,-12.6678,-12.6678,-12.6678,-12.6678,-12.6678,-12.6678,-12.6678,-12.6678,-12.6678,-12.6678,-12.6678,-12.6678,-12.6678,-12.6678,-12.6678,-12.6678,-12.6678,-12.6678,-12.6678,-12.6678,-12.6678,-12.6678,-12.6678,-12.6678,-12.6678,-12.6678,-12.6678,-12.6678,-12.6678,-12.6986,-12.7486,-12.8409,-12.9217,-13.0102,-13.091,-13.1487,-13.1679,-13.1718,-13.1303,-13.1407,-13.1615,-13.0883,-13.0491,-13.0097,-12.9427,-12.8702,-12.8,-12.7011,-12.6708,-12.6569,-12.5907,-12.5684,-12.5684,-12.5684,-12.5684,-12.5684,-12.5684,-12.5684,-12.5684,-12.5684,-12.5684,-12.5684,-12.5684,-12.5684,-12.5684,-12.5684,-12.5684,-12.5684,-12.5684,-12.5684,-12.5684,-12.5684,-12.5684,-12.5684,-12.5684,-12.5684,-12.5684,-12.5684,-12.5684,-12.5684,-12.5684,-12.5684,-12.5684,-12.5684,-12.5684,-12.5684,-12.5684,-12.5684,-12.5684,-12.5684,-12.5684,-12.5684,-12.5684,-12.5684,-12.541,-12.4788,-12.4788,-12.2701,-11.8291,-11.8291,-11.7406,-11.5831,-11.5831,-11.5831,-12.6678,-12.6678,-12.6678,-12.6678,-12.6678,-12.6678,-12.6678,-12.6678,-12.6678,-12.6678,-12.6678,-12.6678,-12.6678,-12.6678,-12.6678,-12.6678,-12.6678,-12.6678,-12.6678,-12.6678,-12.6678,-12.6678,-12.6678,-12.6678,-12.6678,-12.6678,-12.6678,-12.6678,-12.6678,-12.6678,-12.6678,-12.6678,-12.6678,-12.6678,-12.6678,-12.6678,-12.6678,-12.6678,-12.7101,-12.7909,-12.8794,-12.9717,-13.0487,-13.1295,-13.1679,-13.1679,-13.1679,-13.1679,-13.1679,-13.1679,-13.1303,-13.0709,-13.0292,-12.9804,-12.9108,-12.8078,-12.7668,-12.7617,-12.6606,-12.622,-12.6087,-12.5796,-12.5684,-12.5684,-12.5684,-12.5684,-12.5684,-12.5684,-12.5684,-12.5684,-12.5684,-12.5684,-12.5684,-12.5684,-12.5684,-12.5684,-12.5684,-12.5684,-12.5684,-12.5684,-12.5684,-12.5684,-12.5684,-12.5684,-12.5684,-12.5684,-12.5684,-12.5684,-12.5684,-12.5684,-12.5684,-12.5684,-12.5684,-12.5684,-12.5684,-12.5684,-12.5684,-12.5684,-12.5684,-12.5684,-12.5684,-12.5684,-12.5684,-12.5684,-12.5684,-12.383,-11.9912,-11.9407,-11.8326,-11.6597,-11.6087,-11.5831,0.0,0.0,0.0,-12.6678,-12.6678,-12.6678,-12.6678,-12.6678,-12.6678,-12.6678,-12.6678,-12.6678,-12.6678,-12.6678,-12.6678,-12.6678,-12.6678,-12.6678,-12.6678,-12.6678,-12.6678,-12.6678,-12.6678,-12.6678,-12.6678,-12.6678,-12.6678,-12.6678,-12.6678,-12.6678,-12.6678,-12.6678,-12.6678,-12.6678,-12.6678,-12.6678,-12.6678,-12.6678,-12.7101,-12.7909,-12.8794,-12.9602,-13.0487,-13.1295,-13.1679,-13.1679,-13.1679,-13.1679,-13.1679,-13.1679,-13.1679,-13.1628,-13.0611,-13.0191,-13.0097,-12.9106,-12.8702,-12.8588,-12.7621,-12.723,-12.7011,-12.6101,-12.5697,-12.5684,-12.5684,-12.5684,-12.5684,-12.5684,-12.5684,-12.5684,-12.5684,-12.5684,-12.5684,-12.5684,-12.5684,-12.5684,-12.5684,-12.5684,-12.5684,-12.5684,-12.5684,-12.5684,-12.5684,-12.5684,-12.5684,-12.5684,-12.5684,-12.5684,-12.5684,-12.5684,-12.5684,-12.5684,-12.5684,-12.5684,-12.5684,-12.5684,-12.5684,-12.5684,-12.5684,-12.5684,-12.5684,-12.5684,-12.5684,-12.5684,-12.5684,-12.4876,-12.3263,-12.1735,-11.9983,-11.8291,-11.6736,-11.5763,-12.6678,0.0,0.0,0.0,0.0,0.0,-12.6678,-12.6678,-12.6678,-12.6678,-12.6678,-12.6678,-12.6678,-12.6678,-12.6678,-12.6678,-12.6678,-12.6678,-12.6678,-12.6678,-12.6678,-12.6678,-12.6678,-12.6678,-12.6678,-12.6678,-12.6678,-12.6678,-12.6678,-12.6678,-12.6678,-12.6678,-12.6678,-12.6678,-12.6678,-12.6678,-12.6678,-12.6678,-12.6794,-12.6986,-12.8486,-12.9294,-12.9602,-13.0987,-13.1679,-13.1679,-13.1679,-13.1679,-13.1679,-13.1679,-13.1679,-13.1692,-13.1395,-13.1314,-13.1194,-13.0204,-12.9804,-12.9594,-12.8589,-12.7792,-12.7217,-12.6861,-12.6315,-12.5684,-12.5684,-12.5684,-12.5684,-12.5684,-12.5684,-12.5684,-12.5684,-12.5684,-12.5684,-12.5684,-12.5684,-12.5684,-12.5684,-12.5684,-12.5684,-12.5684,-12.5684,-12.5684,-12.5684,-12.5684,-12.5684,-12.5684,-12.5684,-12.5684,-12.5684,-12.5684,-12.5684,-12.5684,-12.5684,-12.5684,-12.5684,-12.5684,-12.5684,-12.5684,-12.5684,-12.5684,-12.5684,-12.5684,-12.5684,-12.5684,-12.5684,-12.5497,-12.4979,-12.3283,-12.1663,-12.0081,-11.8358,-11.695,0.0,0.0,0.0,0.0,0.0,0.0,-12.6678,-12.6678,-12.6678,-12.6678,-12.6678,-12.6678,-12.6678,-12.6678,-12.6678,-12.6678,-12.6678,-12.6678,-12.6678,-12.6678,-12.6678,-12.6678,-12.6678,-12.6678,-12.6678,-12.6678,-12.6678,-12.6678,-12.6678,-12.6678,-12.6678,-12.6678,-12.6678,-12.6678,-12.6678,-12.6678,-12.6678,-12.6678,-12.6678,-12.6678,-12.8409,-12.9217,-12.9294,-13.091,-13.1679,-13.1679,-13.1679,-13.1679,-13.1679,-13.1679,-13.1679,-13.1679,-13.1679,-13.1679,-13.159,-13.1006,-13.0826,-13.0709,-12.9704,-12.8887,-12.8318,-12.7489,-12.6816,-12.6231,-12.5808,-12.5684,-12.5684,-12.5684,-12.5684,-12.5684,-12.5684,-12.5684,-12.5684,-12.5684,-12.5684,-12.5684,-12.5684,-12.5684,-12.5684,-12.5684,-12.5684,-12.5684,-12.5684,-12.5684,-12.5684,-12.5684,-12.5684,-12.5684,-12.5684,-12.5684,-12.5684,-12.5684,-12.5684,-12.5684,-12.5684,-12.5684,-12.5684,-12.5684,-12.5684,-12.5684,-12.5684,-12.5684,-12.5684,-12.5684,-12.5684,-12.5684,-12.5684,-12.3992,-12.2016,-11.9693,-11.8792,-11.7371,0.0,0.0,0.0,0.0,-12.6678,0.0,-12.6678,-12.6678,-12.6678,-12.6678,-12.6678,-12.6678,-12.6678,-12.6678,-12.6678,-12.6678,-12.6678,-12.6678,-12.6678,-12.6678,-12.6678,-12.6678,-12.6678,-12.6678,-12.6678,-12.6678,-12.6678,-12.6678,-12.6678,-12.6678,-12.6678,-12.6678,-12.6678,-12.6678,-12.6678,-12.6678,-12.6678,-12.6678,-12.6678,-12.6678,-12.8409,-12.9217,-12.9294,-13.091,-13.1679,-13.1679,-13.1679,-13.1679,-13.1679,-13.1679,-13.1679,-13.1679,-13.1679,-13.1679,-13.1679,-13.1679,-13.1679,-13.1603,-13.0709,-13.0299,-12.987,-12.7997,-12.7404,-12.7217,-12.5979,-12.5783,-12.5808,-12.5697,-12.5684,-12.5684,-12.5684,-12.5684,-12.5684,-12.5684,-12.5684,-12.5684,-12.5684,-12.5684,-12.5684,-12.5684,-12.5684,-12.5684,-12.5684,-12.5684,-12.5684,-12.5684,-12.5684,-12.5684,-12.5684,-12.5684,-12.5684,-12.5684,-12.5684,-12.5684,-12.5684,-12.5684,-12.5684,-12.5684,-12.5684,-12.5684,-12.5684,-12.5684,-12.5684,-12.5684,-12.5684,-12.5684,-12.5684,-12.4189,-12.1935,-11.882,-11.8726,-11.7716,0.0,0.0,0.0,-12.6678,-12.6678,0.0,-12.6678,-12.6678,-12.6678,-12.6678,-12.6678,-12.6678,-12.6678,-12.6678,-12.6678,-12.6678,-12.6678,-12.6678,-12.6678,-12.6678,-12.6678,-12.6678,-12.6678,-12.6678,-12.6678,-12.6678,-12.6678,-12.6678,-12.6678,-12.6678,-12.6678,-12.6678,-12.6678,-12.6678,-12.6678,-12.6678,-12.6678,-12.6678,-12.6678,-12.6678,-12.8409,-12.9217,-12.9294,-13.091,-13.1679,-13.1679,-13.1679,-13.1679,-13.1679,-13.1679,-13.1679,-13.1679,-13.1679,-13.1679,-13.1679,-13.1679,-13.1679,-13.1692,-13.1486,-13.0893,-12.9968,-12.8814,-12.8396,-12.8078,-12.6304,-12.6268,-12.6725,-12.587,-12.5684,-12.5684,-12.5684,-12.5684,-12.5684,-12.5684,-12.5684,-12.5684,-12.5684,-12.5684,-12.5684,-12.5684,-12.5684,-12.5684,-12.5684,-12.5684,-12.5684,-12.5684,-12.5684,-12.5684,-12.5684,-12.5684,-12.5684,-12.5684,-12.5684,-12.5684,-12.5684,-12.5684,-12.5684,-12.5684,-12.5684,-12.5684,-12.5684,-12.5684,-12.5684,-12.5684,-12.5684,-12.5684,-12.5684,-12.5396,-12.4189,-12.2191,-12.0881,-11.9407,0.0,-12.6678,-12.6678,-12.6678,-12.6678,0.0,0.0,-12.6678,-12.6678,-12.6678,-12.6678,-12.6678,-12.6678,-12.6678,-12.6678,-12.6678,-12.6678,-12.6678,-12.6678,-12.6678,-12.6678,-12.6678,-12.6678,-12.6678,-12.6678,-12.6678,-12.6678,-12.6678,-12.6678,-12.6678,-12.6678,-12.6678,-12.6678,-12.6678,-12.6678,-12.6678,-12.6678,-12.6678,-12.6678,-12.6678,-12.8409,-12.9217,-12.9294,-13.091,-13.1679,-13.1679,-13.1679,-13.1679,-13.1679,-13.1679,-13.1679,-13.1679,-13.1679,-13.1679,-13.1679,-13.1679,-13.1679,-13.1679,-13.1679,-13.1407,-13.0797,-12.9804,-12.9423,-12.918,-12.7701,-12.7187,-12.7003,-12.6004,-12.5684,-12.5684,-12.5684,-12.5684,-12.5684,-12.5684,-12.5684,-12.5684,-12.5684,-12.5684,-12.5684,-12.5684,-12.5684,-12.5684,-12.5684,-12.5684,-12.5684,-12.5684,-12.5684,-12.5684,-12.5684,-12.5684,-12.5684,-12.5684,-12.5684,-12.5684,-12.5684,-12.5684,-12.5684,-12.5684,-12.5684,-12.5684,-12.5684,-12.5684,-12.5684,-12.5684,-12.5684,-12.5684,-12.5684,-12.5684,-12.4788,-12.3208,-12.2378,-12.1124,-12.6986,-12.6678,-12.6678,-12.6678,-12.6678,-12.6678,0.0,0.0,0.0,-12.6678,-12.6678,-12.6678,-12.6678,-12.6678,-12.6486,-12.5794,-12.6294,0.0,0.0,-12.6294,0.0,-12.6678,-12.6678,-12.6678,-12.6678,-12.6678,-12.6678,-12.6678,-12.6678,-12.6678,-12.6678,-12.6678,-12.6678,-12.6678,-12.6678,-12.6678,-12.6678,-12.6678,-12.6794,-12.6909,-12.8486,-12.9294,-12.9487,-13.0987,-13.1679,-13.1679,-13.1679,-13.1679,-13.1679,-13.1679,-13.1679,-13.1679,-13.1679,-13.1679,-13.1679,-13.1679,-13.1679,-13.1679,-13.1679,-13.1679,-13.15,-13.0513,-13.0071,-12.9809,-12.8887,-12.7997,-12.7003,-12.6004,-12.5684,-12.5684,-12.5684,-12.5684,-12.5684,-12.5684,-12.5684,-12.5684,-12.5684,-12.5684,-12.5684,-12.5684,-12.5684,-12.5684,-12.5684,-12.5684,-12.5684,-12.5684,-12.5684,-12.5684,-12.5684,-12.5684,-12.5684,-12.5684,-12.5684,-12.5684,-12.5684,-12.5684,-12.5684,-12.5684,-12.5684,-12.5684,-12.5684,-12.5684,-12.5684,-12.5684,-12.5684,-12.5684,-12.5684,-12.5684,-12.4979,-12.3721,-12.341,-12.2515,-12.7294,-12.6678,-12.6678,-12.6678,-12.6678,-12.6678,-12.6678,0.0,-12.6678,-12.6678,0.0,-12.6678,-12.6678,0.0,0.0,0.0,0.0,0.0,-12.2601,-12.4793,-12.6678,-12.6678,-12.6678,-12.6678,-12.6678,-12.6678,-12.6678,-12.6678,-12.6678,-12.6678,-12.6678,-12.6678,-12.6678,-12.6678,-12.6678,-12.6678,-12.6678,-12.6678,-12.7101,-12.7794,-12.8717,-12.9602,-13.041,-13.1295,-13.1679,-13.1679,-13.1679,-13.1679,-13.1679,-13.1679,-13.1679,-13.1679,-13.1679,-13.1679,-13.1679,-13.1679,-13.1679,-13.1679,-13.1679,-13.1679,-13.15,-13.0513,-12.9598,-12.8813,-12.8702,-12.7997,-12.7003,-12.6004,-12.5684,-12.5684,-12.5684,-12.5684,-12.5684,-12.5684,-12.5684,-12.5684,-12.5684,-12.5684,-12.5684,-12.5684,-12.5684,-12.5684,-12.5684,-12.5684,-12.5684,-12.5684,-12.5684,-12.5684,-12.5684,-12.5684,-12.5684,-12.5684,-12.5684,-12.5684,-12.5684,-12.5684,-12.5684,-12.5684,-12.5684,-12.5684,-12.5684,-12.5684,-12.5684,-12.5684,-12.5684,-12.5684,-12.5684,-12.5684,-12.5597,-12.5396,-12.3884,-12.3116,0.0,-12.7409,-12.7294,-12.6794,-12.7101,-12.7294,-12.6794,-12.6678,-12.6678,-12.6678,0.0,0.0,0.0,0.0,0.0,0.0,-12.5794,0.0,0.0,0.0,-12.6678,-12.6678,0.0,-12.6678,-12.6678,-12.6678,-12.6678,-12.6678,-12.6678,-12.6678,-12.6678,-12.6678,-12.6678,-12.6678,-12.6678,-12.6678,-12.6678,-12.6678,-12.7101,-12.7909,-12.8794,-12.9717,-13.0487,-13.1295,-13.1679,-13.1679,-13.1679,-13.1679,-13.1679,-13.1679,-13.1679,-13.1679,-13.1679,-13.1679,-13.1679,-13.1679,-13.1679,-13.1679,-13.1679,-13.1679,-13.159,-13.1183,-13.0797,-13.0323,-12.9695,-12.8889,-12.7912,-12.6898,-12.6198,-12.5684,-12.5684,-12.5684,-12.5684,-12.5684,-12.5684,-12.5684,-12.5684,-12.5684,-12.5684,-12.5684,-12.5684,-12.5684,-12.5684,-12.5684,-12.5684,-12.5684,-12.5684,-12.5684,-12.5684,-12.5684,-12.5684,-12.5684,-12.5684,-12.5684,-12.5684,-12.5684,-12.5684,-12.5684,-12.5684,-12.5684,-12.5684,-12.5684,-12.5684,-12.5684,-12.5684,-12.5684,-12.5684,-12.5684,-12.5684,-12.5684,-12.5016,-12.472,-12.8997,-12.8409,-12.8102,-12.7217,-12.7294,-12.7409,-12.6794,-12.6678,-12.6678,-12.6678,-12.6678,0.0,0.0,0.0,0.0,0.0,0.0,-12.6409,0.0,-12.6101,0.0,0.0,0.0,0.0,-12.6678,-12.6678,-12.6678,-12.6678,-12.6678,-12.6678,-12.6678,-12.6678,-12.6678,-12.6678,-12.6678,-12.6678,-12.6678,-12.6909,-12.7409,-12.8294,-12.9102,-12.9987,-13.0794,-13.141,-13.1679,-13.1679,-13.1679,-13.1679,-13.1679,-13.1679,-13.1679,-13.1679,-13.1679,-13.1679,-13.1679,-13.1679,-13.1679,-13.1679,-13.1679,-13.1679,-13.1679,-13.1679,-13.1679,-13.1512,-13.0483,-12.9704,-12.8813,-12.7617,-12.6708,-12.5979,-12.5783,-12.5684,-12.5684,-12.5684,-12.5684,-12.5684,-12.5684,-12.5684,-12.5684,-12.5684,-12.5684,-12.5684,-12.5684,-12.5684,-12.5684,-12.5684,-12.5684,-12.5684,-12.5684,-12.5684,-12.5684,-12.5684,-12.5684,-12.5684,-12.5684,-12.5684,-12.5684,-12.5684,-12.5684,-12.5684,-12.5684,-12.5684,-12.5684,-12.5684,-12.5684,-12.5684,-12.5684,-12.5684,-12.5684,-12.5684,-12.5684,-12.5684,-13.1198,-12.9794,-12.8909,-12.8102,-12.7294,-12.6678,-12.6678,-12.6678,-12.6678,-12.6678,-12.6678,-12.6678,0.0,0.0,0.0,0.0,0.0,0.0,0.0,0.0,0.0,0.0,0.0,0.0,0.0,-12.6678,-12.6678,0.0,-12.6678,-12.6678,-12.6678,-12.6678,-12.6678,-12.6678,-12.6678,-12.6678,-12.6678,-12.7486,-12.8294,-12.9217,-12.9987,-13.091,-13.1679,-13.1679,-13.1679,-13.1679,-13.1679,-13.1679,-13.1679,-13.1679,-13.1679,-13.1679,-13.1679,-13.1679,-13.1679,-13.1679,-13.1679,-13.1679,-13.1679,-13.1679,-13.1679,-13.1679,-13.1679,-13.1512,-13.0483,-13.0204,-12.97,-12.7788,-12.718,-12.6914,-12.5992,-12.5684,-12.5684,-12.5684,-12.5684,-12.5684,-12.5684,-12.5684,-12.5684,-12.5684,-12.5684,-12.5684,-12.5684,-12.5684,-12.5684,-12.5684,-12.5684,-12.5684,-12.5684,-12.5684,-12.5684,-12.5684,-12.5684,-12.5684,-12.5684,-12.5684,-12.5684,-12.5684,-12.5684,-12.5684,-12.5684,-12.5684,-12.5684,-12.5684,-12.5684,-12.5684,-12.5684,-12.5684,-12.5684,-12.5684,-12.5684,-12.5684,-13.2493,-13.191,-13.1179,-12.9294,-12.8986,-12.8794,-12.7101,-12.6678,-12.6678,-12.6678,-12.6678,-12.6678,0.0,0.0,0.0,0.0,0.0,0.0,0.0,0.0,0.0,0.0,0.0,0.0,0.0,0.0,0.0,0.0,-12.6678,0.0,-12.6678,-12.6678,-12.6678,-12.6678,-12.6678,-12.6678,-12.6678,-12.7486,-12.8294,-12.9217,-13.0102,-13.091,-13.1679,-13.1679,-13.1679,-13.1679,-13.1679,-13.1679,-13.1679,-13.1679,-13.1679,-13.1679,-13.1679,-13.1679,-13.1679,-13.1679,-13.1679,-13.1679,-13.1679,-13.1679,-13.1679,-13.1679,-13.1679,-13.159,-13.1276,-13.07,-13.0109,-12.9392,-12.82,-12.7099,-12.6808,-12.6172,-12.5684,-12.5684,-12.5684,-12.5684,-12.5684,-12.5684,-12.5684,-12.5684,-12.5684,-12.5684,-12.5684,-12.5684,-12.5684,-12.5684,-12.5684,-12.5684,-12.5684,-12.5684,-12.5684,-12.5684,-12.5684,-12.5684,-12.5684,-12.5684,-12.5684,-12.5684,-12.5684,-12.5684,-12.5684,-12.5684,-12.5684,-12.5684,-12.5684,-12.5684,-12.5684,-12.5684,-12.5684,-12.5684,-12.5684,-12.5684,-13.4284,-13.3803,-13.2987,-13.0987,-13.0487,-12.9987,-12.7986,-12.7294,-12.7101,-12.7101,-12.6909,0.0,0.0,0.0,0.0,0.0,0.0,0.0,0.0,-12.6678,0.0,0.0,0.0,0.0,0.0,0.0,0.0,0.0,0.0,0.0,0.0,-12.6678,-12.6678,-12.6678,-12.6678,-12.6794,-12.7101,-12.7909,-12.8794,-12.9717,-13.0487,-13.1179,-13.1679,-13.1679,-13.1679,-13.1679,-13.1679,-13.1679,-13.1679,-13.1679,-13.1679,-13.1679,-13.1679,-13.1679,-13.1679,-13.1679,-13.1679,-13.1679,-13.1679,-13.1679,-13.1679,-13.1679,-13.1679,-13.1679,-13.1679,-13.1211,-13.0679,-13.0299,-12.9287,-12.8118,-12.7404,-12.668,-12.6087,-12.5833,-12.5684,-12.5684,-12.5684,-12.5684,-12.5684,-12.5684,-12.5684,-12.5684,-12.5684,-12.5684,-12.5684,-12.5684,-12.5684,-12.5684,-12.5684,-12.5684,-12.5684,-12.5684,-12.5684,-12.5684,-12.5684,-12.5684,-12.5684,-12.5684,-12.5684,-12.5684,-12.5684,-12.5684,-12.5977,-12.6491,-12.5977,-12.5977,-12.6565,-12.5977,-12.5684,-12.5684,-12.5684,-12.5684]},{"header":{"parameterUnit":"m.s-1","parameterCategory":1,"la1":30.6,"la2":29.2853,"lo1":-89.7004,"lo2":-87.6739,"dx":0.0162,"dy":0.0183,"nx":112,"ny":82,"refTime":"2023-01-20T18:00:00:Z","depth":0,"parameterNumber":3,"parameterNumberName":"V-component_of_WINDS"},"data":[0.0,0.0,0.0,0.0,0.0,0.0,0.0,0.0,0.0,0.0,0.0,0.0,0.0,0.0,0.0,0.0,0.0,0.0,0.0,0.0,0.0,0.0,0.0,0.0,0.0,0.0,0.0,0.0,0.0,0.0,0.0,0.0,0.0,0.0,0.0,0.0,0.0,0.0,0.0,0.0,0.0,0.0,0.0,0.0,0.0,0.0,0.0,0.0,0.0,0.0,0.0,0.0,0.0,0.0,0.0,0.0,0.0,0.0,0.0,0.0,0.0,0.0,0.0,0.0,0.0,0.0,0.0,0.0,0.0,0.0,0.0,0.0,0.0,0.0,0.0,0.0,0.0,0.0,0.0,0.0,0.0,0.0,0.0,0.0,0.0,0.0,0.0,0.0,0.0,0.0,7.3619,7.372,7.372,7.372,7.372,7.372,7.392,7.4372,0.0,0.0,0.0,0.0,0.0,0.0,0.0,0.0,0.0,0.0,0.0,0.0,0.0,0.0,0.0,0.0,0.0,0.0,0.0,0.0,0.0,0.0,0.0,0.0,0.0,0.0,0.0,0.0,0.0,0.0,0.0,0.0,0.0,0.0,0.0,0.0,0.0,0.0,0.0,0.0,0.0,0.0,0.0,0.0,0.0,0.0,0.0,0.0,0.0,0.0,0.0,0.0,0.0,0.0,0.0,0.0,0.0,0.0,0.0,0.0,0.0,0.0,0.0,0.0,0.0,0.0,0.0,0.0,0.0,0.0,0.0,0.0,0.0,0.0,0.0,0.0,0.0,0.0,0.0,0.0,0.0,0.0,0.0,0.0,0.0,0.0,0.0,0.0,0.0,0.0,0.0,0.0,0.0,0.0,0.0,0.0,0.0,0.0,0.0,0.0,0.0,0.0,0.0,0.0,7.377,7.4247,7.4297,7.4297,7.4297,7.4297,7.4322,7.4397,0.0,0.0,0.0,0.0,0.0,0.0,0.0,0.0,0.0,0.0,0.0,0.0,0.0,0.0,0.0,0.0,0.0,0.0,0.0,0.0,0.0,0.0,0.0,0.0,0.0,0.0,0.0,0.0,0.0,0.0,0.0,0.0,0.0,0.0,0.0,0.0,0.0,0.0,0.0,0.0,0.0,0.0,0.0,0.0,0.0,0.0,0.0,0.0,0.0,0.0,0.0,0.0,0.0,0.0,0.0,0.0,0.0,0.0,0.0,0.0,0.0,0.0,0.0,0.0,0.0,0.0,0.0,0.0,0.0,0.0,0.0,0.0,0.0,0.0,0.0,0.0,0.0,0.0,0.0,0.0,0.0,0.0,0.0,0.0,0.0,0.0,0.0,0.0,0.0,0.0,0.0,0.0,0.0,0.0,0.0,0.0,0.0,0.0,0.0,0.0,0.0,0.0,0.0,7.3868,7.5025,7.5276,7.5301,7.5301,7.5301,7.5301,7.5301,7.5301,7.5301,0.0,0.0,0.0,0.0,0.0,0.0,0.0,0.0,0.0,0.0,0.0,0.0,0.0,0.0,0.0,0.0,0.0,0.0,0.0,0.0,0.0,0.0,0.0,0.0,0.0,0.0,0.0,0.0,0.0,0.0,0.0,0.0,0.0,0.0,0.0,0.0,0.0,0.0,0.0,0.0,0.0,0.0,0.0,0.0,0.0,0.0,0.0,0.0,0.0,0.0,0.0,0.0,0.0,0.0,0.0,0.0,0.0,0.0,0.0,0.0,0.0,0.0,0.0,0.0,0.0,0.0,0.0,0.0,0.0,0.0,0.0,0.0,0.0,0.0,0.0,0.0,0.0,0.0,0.0,0.0,0.0,0.0,0.0,0.0,0.0,0.0,0.0,0.0,0.0,0.0,0.0,0.0,0.0,0.0,0.0,0.0,0.0,0.0,0.0,0.0,0.0,0.0,7.6055,7.6055,7.6055,7.6055,7.6055,7.6055,7.6055,7.6055,7.6055,7.6055,0.0,0.0,0.0,0.0,0.0,0.0,0.0,0.0,0.0,0.0,0.0,0.0,0.0,0.0,0.0,0.0,0.0,0.0,0.0,0.0,0.0,0.0,0.0,0.0,0.0,0.0,0.0,0.0,0.0,0.0,0.0,0.0,0.0,0.0,0.0,0.0,0.0,0.0,0.0,0.0,0.0,0.0,0.0,0.0,0.0,0.0,0.0,0.0,0.0,0.0,0.0,0.0,0.0,0.0,0.0,0.0,0.0,0.0,0.0,0.0,0.0,0.0,0.0,0.0,0.0,0.0,0.0,0.0,0.0,0.0,0.0,0.0,0.0,0.0,0.0,0.0,0.0,0.0,0.0,0.0,0.0,0.0,0.0,0.0,0.0,0.0,0.0,0.0,0.0,0.0,0.0,0.0,0.0,0.0,0.0,0.0,0.0,0.0,0.0,0.0,0.0,0.0,7.6055,7.6055,7.6055,7.6055,7.6055,7.6055,7.6055,7.6055,7.6055,7.6055,0.0,0.0,0.0,0.0,0.0,0.0,0.0,0.0,0.0,0.0,0.0,0.0,0.0,0.0,0.0,0.0,0.0,0.0,0.0,0.0,0.0,0.0,0.0,0.0,0.0,0.0,0.0,0.0,0.0,0.0,0.0,0.0,0.0,0.0,0.0,0.0,0.0,0.0,0.0,0.0,0.0,0.0,0.0,0.0,0.0,0.0,0.0,0.0,0.0,0.0,0.0,0.0,0.0,0.0,0.0,0.0,0.0,0.0,0.0,0.0,0.0,0.0,0.0,0.0,0.0,0.0,0.0,0.0,0.0,0.0,0.0,0.0,0.0,0.0,0.0,0.0,0.0,0.0,0.0,0.0,0.0,0.0,0.0,0.0,0.0,0.0,0.0,0.0,0.0,0.0,0.0,0.0,0.0,0.0,0.0,0.0,0.0,0.0,0.0,0.0,0.0,0.0,7.7084,7.7084,7.7084,7.7084,7.7084,7.7084,7.7084,7.7084,7.7084,0.0,0.0,0.0,0.0,0.0,0.0,0.0,0.0,0.0,0.0,0.0,0.0,0.0,0.0,0.0,0.0,0.0,0.0,0.0,0.0,0.0,0.0,0.0,0.0,0.0,0.0,0.0,0.0,0.0,0.0,0.0,0.0,0.0,0.0,0.0,0.0,0.0,0.0,0.0,0.0,0.0,0.0,0.0,0.0,0.0,0.0,0.0,0.0,0.0,0.0,0.0,0.0,0.0,0.0,0.0,0.0,0.0,0.0,0.0,0.0,0.0,0.0,0.0,0.0,0.0,0.0,0.0,0.0,0.0,0.0,0.0,0.0,0.0,0.0,0.0,0.0,0.0,0.0,0.0,0.0,0.0,0.0,0.0,0.0,0.0,0.0,0.0,0.0,0.0,0.0,0.0,0.0,0.0,0.0,0.0,0.0,0.0,0.0,0.0,0.0,0.0,0.0,7.7333,7.7712,7.7712,7.7712,7.7712,7.7712,7.7712,7.7712,7.7712,7.7712,0.0,0.0,0.0,0.0,0.0,0.0,0.0,0.0,0.0,0.0,0.0,0.0,0.0,0.0,0.0,0.0,0.0,0.0,0.0,0.0,0.0,0.0,0.0,0.0,0.0,0.0,0.0,0.0,0.0,0.0,0.0,0.0,0.0,0.0,0.0,0.0,0.0,0.0,0.0,0.0,0.0,0.0,0.0,0.0,0.0,0.0,0.0,0.0,0.0,0.0,0.0,0.0,0.0,0.0,0.0,0.0,0.0,0.0,0.0,0.0,0.0,0.0,0.0,0.0,0.0,0.0,0.0,0.0,0.0,0.0,0.0,0.0,0.0,0.0,0.0,0.0,0.0,0.0,0.0,0.0,0.0,0.0,0.0,0.0,0.0,0.0,0.0,0.0,0.0,0.0,0.0,0.0,0.0,0.0,0.0,0.0,0.0,0.0,0.0,0.0,0.0,0.0,7.7383,7.7712,7.7712,7.7712,7.7712,7.7712,7.7712,7.7712,7.7712,0.0,0.0,0.0,0.0,0.0,0.0,0.0,0.0,0.0,0.0,0.0,0.0,0.0,0.0,0.0,0.0,0.0,0.0,0.0,0.0,0.0,0.0,0.0,0.0,0.0,0.0,0.0,0.0,0.0,0.0,0.0,0.0,0.0,0.0,0.0,0.0,0.0,0.0,0.0,0.0,0.0,0.0,0.0,0.0,0.0,0.0,0.0,0.0,0.0,0.0,0.0,0.0,0.0,0.0,0.0,0.0,0.0,0.0,0.0,0.0,0.0,0.0,0.0,0.0,0.0,0.0,0.0,0.0,0.0,0.0,0.0,0.0,0.0,0.0,0.0,0.0,0.0,0.0,0.0,0.0,0.0,0.0,0.0,0.0,0.0,0.0,0.0,0.0,0.0,0.0,0.0,0.0,0.0,0.0,0.0,0.0,0.0,0.0,0.0,0.0,0.0,0.0,0.0,7.8175,7.8892,7.8892,7.8892,7.8892,7.8892,7.8892,7.8892,7.8892,7.8892,0.0,0.0,0.0,0.0,0.0,0.0,0.0,0.0,0.0,0.0,0.0,0.0,0.0,0.0,0.0,0.0,0.0,0.0,0.0,0.0,0.0,0.0,0.0,0.0,0.0,0.0,0.0,0.0,0.0,0.0,0.0,0.0,0.0,0.0,0.0,0.0,0.0,0.0,0.0,0.0,0.0,0.0,0.0,0.0,0.0,0.0,0.0,0.0,0.0,0.0,0.0,0.0,0.0,0.0,0.0,0.0,0.0,0.0,0.0,0.0,0.0,0.0,0.0,0.0,0.0,0.0,0.0,0.0,0.0,0.0,0.0,0.0,0.0,0.0,0.0,0.0,0.0,0.0,0.0,0.0,0.0,0.0,0.0,0.0,0.0,0.0,0.0,0.0,0.0,0.0,0.0,0.0,0.0,0.0,0.0,0.0,0.0,0.0,0.0,0.0,0.0,0.0,7.754,7.8247,7.8693,7.9943,8.0047,8.0047,8.0047,8.0047,7.9947,7.9721,0.0,0.0,0.0,0.0,0.0,0.0,0.0,0.0,0.0,0.0,0.0,0.0,0.0,0.0,0.0,0.0,0.0,0.0,0.0,0.0,0.0,0.0,0.0,0.0,0.0,0.0,0.0,0.0,0.0,0.0,0.0,0.0,0.0,0.0,0.0,0.0,0.0,0.0,0.0,0.0,0.0,0.0,0.0,0.0,0.0,0.0,0.0,0.0,0.0,0.0,0.0,0.0,0.0,0.0,0.0,0.0,0.0,0.0,0.0,0.0,0.0,0.0,0.0,0.0,0.0,0.0,0.0,0.0,0.0,0.0,0.0,0.0,0.0,0.0,0.0,0.0,0.0,0.0,0.0,0.0,0.0,0.0,0.0,0.0,0.0,0.0,0.0,0.0,0.0,0.0,0.0,0.0,0.0,0.0,0.0,0.0,0.0,0.0,0.0,0.0,0.0,0.0,7.5978,7.6679,7.7919,8.071,8.1026,8.1026,8.1026,8.1026,8.0825,8.0323,0.0,0.0,0.0,0.0,0.0,0.0,0.0,0.0,0.0,0.0,0.0,0.0,0.0,0.0,0.0,0.0,0.0,0.0,0.0,0.0,0.0,0.0,0.0,0.0,0.0,0.0,0.0,0.0,0.0,0.0,0.0,0.0,0.0,0.0,0.0,0.0,0.0,0.0,0.0,0.0,0.0,0.0,0.0,0.0,0.0,0.0,0.0,0.0,0.0,0.0,0.0,0.0,0.0,0.0,0.0,0.0,0.0,0.0,0.0,0.0,4.2365,4.2298,0.0,0.0,0.0,0.0,0.0,0.0,0.0,0.0,0.0,0.0,0.0,0.0,0.0,0.0,0.0,0.0,0.0,0.0,0.0,0.0,0.0,0.0,0.0,0.0,0.0,0.0,0.0,0.0,0.0,0.0,0.0,0.0,0.0,0.0,0.0,0.0,0.0,0.0,0.0,0.0,7.6111,7.8881,8.0685,8.0971,8.1026,8.1026,8.1026,8.1026,8.0976,8.0876,8.085,0.0,0.0,0.0,0.0,0.0,0.0,0.0,0.0,0.0,0.0,0.0,0.0,0.0,0.0,0.0,0.0,0.0,0.0,0.0,0.0,0.0,0.0,0.0,0.0,0.0,0.0,0.0,0.0,0.0,0.0,0.0,0.0,0.0,0.0,0.0,0.0,0.0,0.0,0.0,0.0,0.0,0.0,0.0,0.0,0.0,0.0,0.0,0.0,0.0,0.0,0.0,0.0,0.0,0.0,0.0,0.0,0.0,0.0,0.0,4.3273,4.3086,0.0,0.0,0.0,0.0,0.0,0.0,0.0,0.0,0.0,0.0,0.0,0.0,0.0,0.0,0.0,0.0,0.0,0.0,0.0,0.0,0.0,0.0,0.0,0.0,0.0,0.0,0.0,0.0,0.0,0.0,0.0,0.0,0.0,0.0,0.0,0.0,0.0,0.0,0.0,0.0,7.7135,7.9224,8.0799,8.1773,8.183,8.183,8.183,8.183,8.1704,8.1428,8.1403,0.0,0.0,0.0,0.0,0.0,0.0,0.0,0.0,0.0,0.0,0.0,0.0,0.0,0.0,0.0,0.0,0.0,0.0,0.0,0.0,0.0,0.0,0.0,0.0,0.0,0.0,0.0,0.0,0.0,0.0,0.0,0.0,0.0,0.0,0.0,0.0,0.0,0.0,0.0,0.0,0.0,0.0,0.0,0.0,0.0,0.0,0.0,0.0,0.0,0.0,0.0,0.0,0.0,4.3567,4.3714,4.3781,4.4035,4.4289,4.4476,4.3968,4.3754,4.3754,4.3754,0.0,0.0,0.0,0.0,0.0,0.0,0.0,0.0,0.0,0.0,0.0,0.0,0.0,0.0,0.0,0.0,0.0,0.0,0.0,0.0,0.0,0.0,6.5058,6.5058,6.5351,6.5117,6.3301,0.0,0.0,0.0,0.0,0.0,0.0,0.0,0.0,0.0,0.0,0.0,7.7808,7.9459,8.0878,8.2794,8.2884,8.2784,8.2683,8.2683,8.2457,8.198,8.1955,8.1754,0.0,0.0,0.0,0.0,0.0,0.0,0.0,0.0,0.0,0.0,0.0,0.0,0.0,0.0,0.0,0.0,0.0,0.0,0.0,0.0,0.0,0.0,0.0,0.0,0.0,0.0,0.0,0.0,0.0,0.0,0.0,0.0,4.2031,4.2031,0.0,0.0,0.0,0.0,0.0,0.0,0.0,0.0,0.0,0.0,0.0,0.0,0.0,4.3207,4.3461,4.3461,4.3741,4.4249,4.4289,4.4436,4.4703,4.473,4.477,4.481,4.473,0.0,4.4703,4.4703,0.0,0.0,0.0,0.0,0.0,0.0,0.0,0.0,0.0,0.0,0.0,0.0,0.0,0.0,0.0,0.0,0.0,0.0,0.0,0.0,0.0,0.0,6.5527,6.5527,6.5527,6.5527,6.5234,6.5195,6.5254,6.5254,6.5586,6.5762,0.0,0.0,0.0,0.0,0.0,0.0,7.6629,8.1587,8.4775,8.4215,8.3663,8.3186,8.2708,8.2683,8.2633,8.2558,8.2558,8.2533,8.2457,8.198,0.0,0.0,0.0,0.0,0.0,0.0,0.0,0.0,0.0,0.0,0.0,0.0,0.0,0.0,0.0,0.0,0.0,0.0,0.0,0.0,0.0,0.0,0.0,0.0,0.0,0.0,0.0,0.0,0.0,4.167,4.1777,4.1964,4.2004,4.2031,0.0,0.0,0.0,0.0,0.0,0.0,0.0,0.0,0.0,4.3527,4.3741,4.3888,4.4035,4.4222,4.4409,4.469,4.469,4.477,4.4877,4.4877,4.4957,4.5131,4.5131,4.5211,4.5344,4.5024,4.4877,4.4877,0.0,0.0,0.0,0.0,4.9109,5.4792,5.5105,5.9629,6.5293,6.5293,0.0,0.0,0.0,0.0,0.0,0.0,0.0,6.5879,6.5644,6.5937,6.623,6.5996,6.6113,6.6289,6.6289,6.6289,6.6172,6.5703,6.5937,6.6094,6.5644,6.6348,0.0,0.0,0.0,7.7357,7.8739,8.2734,8.5219,8.4416,8.4089,8.3738,8.3186,8.3135,8.301,8.2683,8.2683,8.2683,8.2683,8.2432,8.2131,0.0,0.0,0.0,0.0,0.0,0.0,0.0,0.0,0.0,0.0,0.0,0.0,0.0,0.0,0.0,0.0,0.0,0.0,0.0,0.0,0.0,0.0,0.0,0.0,0.0,0.0,0.0,0.0,4.1817,4.1897,4.2191,4.2365,4.2512,0.0,0.0,0.0,0.0,0.0,0.0,4.3781,4.3995,4.4035,4.3888,4.4396,4.4623,4.4543,4.4917,4.5064,4.4984,4.5131,4.5211,4.5211,4.5211,4.5318,4.5531,4.5451,4.5531,4.5705,4.5277,4.509,4.509,4.509,4.509,4.509,4.509,4.9521,5.5485,5.5485,6.0058,6.5937,6.5937,6.5996,6.6055,6.6055,0.0,0.0,0.0,0.0,6.6621,6.6172,6.664,6.709,6.6621,6.6875,6.7207,6.7207,6.7207,6.6972,6.623,6.6328,6.6504,6.6289,6.6914,0.0,7.0667,7.3848,7.7155,8.0,8.2779,8.4553,8.4732,8.4642,8.4315,8.3738,8.3713,8.3462,8.2909,8.2884,8.2809,8.2683,8.2683,8.2483,8.2031,0.0,0.0,0.0,0.0,0.0,0.0,0.0,0.0,0.0,0.0,0.0,0.0,0.0,0.0,0.0,0.0,0.0,0.0,0.0,0.0,0.0,0.0,0.0,0.0,0.0,0.0,0.0,0.0,0.0,4.342,4.3207,0.0,0.0,0.0,0.0,4.3968,4.4008,4.4115,4.4369,4.4396,4.4543,4.481,4.5104,4.5131,4.485,4.5424,4.5558,4.5318,4.5865,4.6119,4.6119,4.6119,4.6119,4.6119,4.5852,4.5745,4.5745,4.5705,4.5705,4.5705,4.5705,4.5705,4.5705,4.5705,5.0197,5.6277,5.6277,6.0879,6.6816,6.6816,6.709,6.7383,6.7383,6.7715,0.0,0.0,6.7734,6.7969,6.75,6.7773,6.8008,6.7558,6.7773,6.8125,6.8125,6.8125,6.7969,6.75,6.7422,6.7558,6.7969,0.0,6.7882,6.8853,7.144,7.4598,7.8118,8.1117,8.3558,8.5687,8.542,8.4893,8.4315,8.424,8.4064,8.3487,8.3462,8.3211,8.2683,8.2683,8.2658,8.2633,8.2081,0.0,0.0,0.0,0.0,0.0,0.0,0.0,0.0,0.0,0.0,0.0,0.0,0.0,0.0,0.0,0.0,0.0,0.0,0.0,0.0,0.0,0.0,0.0,0.0,0.0,0.0,0.0,0.0,4.3273,4.3314,0.0,4.3674,4.3968,4.4142,4.4262,4.4623,4.481,4.473,4.509,4.5237,4.5171,4.5638,4.5825,4.5718,4.6119,4.6253,4.6146,4.6373,4.648,4.648,4.648,4.6373,4.6186,4.6266,4.6106,4.5745,4.5959,4.5932,4.5745,4.5745,4.5745,4.5745,4.5745,4.8798,5.3279,5.5551,5.947,6.3817,6.6096,6.6972,6.7148,6.7422,6.7617,6.7773,6.789,6.8066,6.8144,6.7969,6.8066,6.8144,6.7969,6.8066,6.8183,6.8183,6.8183,6.8242,6.8301,6.8359,6.8301,6.8203,6.8476,6.875,6.8808,7.1491,7.4523,7.7584,8.0388,8.3153,8.5712,8.5822,8.547,8.4893,8.4818,8.4642,8.4064,8.3688,8.3412,8.3211,8.2859,8.2683,8.2683,8.2483,8.2357,0.0,0.0,0.0,0.0,0.0,0.0,0.0,0.0,0.0,0.0,0.0,0.0,0.0,0.0,0.0,0.0,0.0,0.0,0.0,0.0,0.0,0.0,0.0,0.0,0.0,4.3207,4.334,4.3247,4.342,4.3594,4.3821,4.4182,4.4476,4.4583,4.4943,4.5131,4.5024,4.5491,4.5705,4.5611,4.6186,4.644,4.6333,4.6734,4.6801,4.6627,4.6841,4.6881,4.6774,4.6774,4.6667,4.648,4.6587,4.6333,4.5892,4.6119,4.5999,4.5745,4.5745,4.5745,4.5745,4.5745,4.8662,5.3412,5.8165,6.1467,6.3836,6.625,6.709,6.7148,6.7422,6.7715,6.7969,6.8125,6.8418,6.8594,6.8418,6.8515,6.8594,6.8418,6.8535,6.8594,6.8594,6.8594,6.8691,6.8984,6.8808,6.8594,6.8594,6.8828,6.9336,7.0303,7.125,7.3375,7.6996,7.9204,8.1478,8.4058,8.5363,8.5847,8.547,8.542,8.5219,8.4642,8.424,8.3889,8.3512,8.3135,8.2859,8.2683,8.2683,8.2683,8.2683,0.0,0.0,0.0,0.0,0.0,0.0,0.0,0.0,0.0,0.0,0.0,0.0,0.0,0.0,0.0,0.0,0.0,0.0,0.0,0.0,0.0,0.0,0.0,4.3594,4.3314,4.3233,4.3527,4.3527,4.3781,4.4369,4.4436,4.4543,4.485,4.4877,4.5024,4.5318,4.5598,4.5892,4.6186,4.6774,4.6948,4.6654,4.7201,4.7201,4.6654,4.7241,4.7348,4.7068,4.7068,4.7068,4.7068,4.6774,4.648,4.6186,4.6186,4.6039,4.5785,4.5745,4.5745,4.5745,4.5745,5.0242,5.7231,6.4219,6.6729,6.6933,6.7324,6.748,6.748,6.75,6.8066,6.8691,6.8301,6.8769,6.9336,6.8926,6.9101,6.9336,6.8926,6.916,6.9433,6.9433,6.9433,6.9433,6.9433,6.8769,6.8476,6.9316,6.875,6.9479,7.2952,7.0797,0.0,7.6255,7.7271,7.8463,8.0956,8.396,8.5886,8.5998,8.5998,8.5747,8.5219,8.5144,8.4642,8.3587,8.3512,8.3236,8.2683,8.2683,8.2683,8.2683,0.0,0.0,0.0,0.0,0.0,0.0,0.0,0.0,0.0,0.0,0.0,0.0,0.0,0.0,0.0,0.0,0.0,0.0,0.0,0.0,0.0,4.4115,4.3968,4.3594,4.3848,4.4008,4.3888,4.3861,4.4035,4.4396,4.4436,4.4543,4.485,4.5064,4.5318,4.5598,4.6106,4.652,4.6814,4.7175,4.7348,4.7241,4.7428,4.7428,4.7241,4.7428,4.7455,4.7388,4.7388,4.7282,4.7068,4.7201,4.6988,4.6507,4.6507,4.644,4.6333,4.5932,4.5745,4.5745,4.5745,5.0242,5.6607,5.854,6.2627,6.6875,6.6992,6.7031,6.709,6.7383,6.7676,6.789,6.8125,6.8594,6.8984,6.8867,6.9101,6.9394,6.9277,6.9375,6.9433,6.9433,6.9433,6.9433,6.9433,6.9258,6.916,6.9394,6.9258,6.9402,7.0353,6.9761,7.0542,7.4044,7.4371,7.6176,8.1079,8.2138,8.3457,8.5749,8.5998,8.5922,8.5747,8.5395,8.4993,8.4717,8.3914,8.3236,8.2683,8.2683,8.2683,0.0,0.0,0.0,0.0,0.0,0.0,0.0,0.0,0.0,0.0,0.0,0.0,0.0,0.0,0.0,0.0,0.0,0.0,0.0,0.0,0.0,0.0,4.4222,4.4115,4.3928,4.4115,4.4222,4.4182,4.4182,4.4289,4.4583,4.4623,4.473,4.5024,4.5211,4.5491,4.5892,4.6373,4.6774,4.7068,4.7348,4.7495,4.7495,4.7495,4.7495,4.7495,4.7495,4.7495,4.7495,4.7495,4.7388,4.7241,4.7562,4.7428,4.6988,4.6988,4.6921,4.6734,0.0,0.0,0.0,0.0,5.1844,5.6922,5.851,6.2512,6.7148,6.7148,6.7031,6.6914,6.7148,6.7383,6.7558,6.7832,6.8359,6.8808,6.8808,6.9101,6.9433,6.9433,6.9433,6.9433,6.9433,6.9433,6.9433,6.9433,6.9433,0.0,6.9433,6.9433,6.9768,7.0921,7.0191,7.0333,7.2912,7.3082,7.4754,7.9635,8.0797,8.2592,8.6049,8.6098,0.0,0.0,0.0,8.5395,8.5144,8.4315,0.0,0.0,0.0,8.2909,8.2683,8.2683,0.0,0.0,8.2031,8.183,0.0,0.0,0.0,0.0,0.0,0.0,0.0,0.0,0.0,0.0,0.0,0.0,0.0,0.0,0.0,0.0,4.4289,4.4476,4.4476,4.4262,4.4182,4.4476,4.4476,4.4623,4.4917,4.4917,4.5064,4.5344,4.5344,4.5598,4.6159,4.648,0.0,0.0,0.0,4.7495,4.7495,4.7495,4.7495,4.7495,4.7495,4.7495,4.7495,4.7535,4.7535,4.7575,4.7816,4.7789,4.7535,4.7469,4.7282,4.7001,4.644,4.64,4.7019,5.0111,5.3614,5.7249,6.0903,0.0,0.0,6.7431,6.7324,6.7031,6.7031,6.7265,6.7558,6.7558,6.8183,6.8808,6.8808,6.9101,6.9433,6.9433,6.9433,6.9433,6.9433,6.9433,6.9433,6.9433,6.9433,6.9433,6.9433,6.9433,7.0302,7.2736,7.1071,7.0163,7.2199,7.2412,7.3706,7.6929,7.9079,0.0,8.5785,8.5687,8.5662,8.5998,8.5998,8.5747,8.5144,8.4667,8.4165,8.3587,8.3537,8.3261,8.2759,8.2708,8.2683,8.2683,8.2683,8.2683,0.0,0.0,0.0,0.0,0.0,0.0,0.0,0.0,0.0,0.0,0.0,0.0,0.0,0.0,0.0,4.4369,4.4583,4.481,4.481,4.473,4.473,4.477,4.481,4.4917,4.5211,4.5237,4.5344,4.5638,4.5665,4.5825,4.6159,4.648,4.6774,4.7068,4.7348,4.7495,4.7495,4.7495,4.7495,4.7495,4.7495,0.0,4.7495,4.7749,4.7856,4.7856,4.7896,4.7896,4.7816,4.7348,4.7108,4.7028,4.6667,4.6587,4.6627,4.7424,4.9878,5.3493,5.7131,6.07,6.4137,6.7106,6.8008,6.7949,6.7949,6.8008,0.0,6.8066,6.8418,6.8808,6.8808,6.9101,6.9433,6.9433,6.9433,6.9433,6.9433,6.9433,6.9433,6.9433,6.9433,6.9433,6.9433,6.9433,6.9525,7.0191,6.9748,6.9617,7.0073,6.9756,7.0751,7.3539,7.3998,7.6317,8.1836,8.22,8.3229,8.5886,8.5998,8.5747,8.5144,8.5044,8.4717,8.4165,8.3713,8.3437,8.3336,8.2884,8.2683,8.2683,8.2683,8.2683,0.0,0.0,0.0,0.0,0.0,0.0,0.0,0.0,0.0,0.0,0.0,4.4623,4.4476,0.0,4.4663,4.4663,4.477,4.4917,4.5064,4.509,4.509,4.509,4.509,4.5211,4.5491,4.5531,4.5598,4.5745,4.5745,4.5812,4.5972,4.6253,4.6547,4.6841,4.7135,4.7348,4.7495,4.7495,4.7495,4.7495,4.7495,4.7575,4.7709,4.7856,4.8003,4.815,4.815,4.815,4.8123,4.7682,4.7428,4.7282,4.7135,4.7054,4.7054,4.7054,4.9373,5.2929,5.6706,6.0119,6.3604,6.727,6.8359,6.8183,6.8183,6.8183,6.8183,6.8183,6.8476,6.8808,6.8808,6.9277,6.9785,6.9785,6.9629,6.9512,6.9726,6.9453,6.9199,6.9394,6.9433,6.9375,6.916,6.9101,6.9219,6.9394,6.9433,6.9433,6.9433,6.9101,6.9965,7.3039,7.2745,7.4188,7.8849,8.0491,8.1899,8.3457,8.3619,8.4176,8.5485,8.4017,8.3634,8.4717,8.4466,8.4165,8.3914,8.3361,8.3085,8.3085,8.2809,8.2683,0.0,0.0,0.0,0.0,0.0,0.0,0.0,4.5211,4.4984,4.473,4.4837,4.4877,4.465,4.481,4.4957,4.4957,4.5024,4.5131,4.5344,4.5451,4.5491,4.5491,4.5491,4.5558,4.5745,4.5785,4.5812,4.5745,4.5745,4.5745,4.5745,4.6039,4.6293,4.652,4.6814,4.7135,4.7428,4.7428,4.7428,4.7495,4.7495,4.7602,4.7856,4.7896,4.8083,4.8297,4.8297,4.8257,4.819,4.7936,4.7709,4.7495,4.7495,4.7495,4.7495,4.7495,4.9413,5.2449,5.6154,5.9652,6.3037,6.6718,6.8171,6.8418,6.8418,6.8418,6.8418,6.8418,6.8691,6.8926,6.8926,6.9453,6.998,6.998,6.9687,6.9531,6.9805,6.9277,6.8867,6.916,6.9219,6.9101,6.875,6.8691,6.8808,6.916,6.9219,6.9219,6.9219,6.8926,6.9648,7.2279,7.1808,7.2654,7.5968,7.8665,8.0257,8.0327,8.0327,8.1414,8.3984,8.1669,8.1315,8.3385,8.3311,8.3016,8.2598,8.2057,8.1787,8.1787,8.2025,8.2294,2.9441,3.4756,4.0252,4.068,4.318,4.5705,0.0,4.5678,4.5638,4.5598,4.5424,4.5237,4.5211,4.5237,4.5277,4.5277,4.5491,4.5665,4.5705,4.5932,4.6079,4.6079,4.6079,4.5999,4.5785,4.5972,4.6039,4.5785,4.5745,4.5745,4.5745,4.6039,4.6186,4.6226,4.652,4.6801,4.7108,4.7108,4.7241,4.7495,4.7495,4.7495,4.7562,4.7816,4.7936,4.7976,4.7976,4.7829,4.7602,4.7575,4.7535,4.7495,4.7495,4.7495,4.7495,4.7495,4.778,4.8605,5.2324,5.6,5.9651,6.3351,6.6719,6.9316,6.9316,6.9316,6.9316,6.9316,6.9336,6.9375,6.9375,6.9453,6.9512,6.9512,6.9492,6.9336,6.9043,6.8867,6.8711,6.8418,6.8301,6.8301,6.8242,6.8242,6.8301,6.8301,6.8301,6.8301,6.8301,6.8301,6.8195,6.8186,6.8156,6.9183,7.2025,7.5153,7.69,7.6973,7.6973,7.7114,7.7492,7.7114,7.7092,7.7401,7.6852,7.6625,7.6557,7.6081,7.5809,7.5831,7.8541,8.0892,3.0963,3.4486,3.7854,4.2215,4.447,4.5745,4.5745,4.5745,4.5705,4.5531,4.5531,4.5531,4.5344,4.5451,4.5558,4.5558,4.5678,4.5812,4.5972,4.6119,4.6266,4.6413,4.6587,4.652,4.6039,4.5972,4.5892,4.5745,4.5745,4.5745,4.5745,4.5852,4.5999,4.6186,4.6293,4.652,4.6801,4.6801,4.6881,4.6988,4.7175,4.7322,4.7495,4.7789,4.7936,4.7936,4.7936,4.7749,4.7495,4.7495,4.7495,4.7495,4.7495,4.7495,4.7495,4.7495,4.7495,4.8064,5.1778,5.3968,5.6307,6.2158,6.5029,6.6699,6.8757,6.9433,6.9433,6.9433,6.9433,6.9433,6.9433,6.9629,6.9805,6.9805,6.9629,6.9394,6.9219,6.8808,6.8418,6.8242,6.8183,6.8125,6.7832,6.7773,6.7715,6.7441,6.7851,6.8183,6.8183,6.8183,6.8008,6.7558,6.7265,6.7683,6.8806,7.1797,7.3684,7.3684,7.3684,7.453,7.6305,7.465,7.453,7.638,7.6223,7.6088,7.6088,7.5522,7.5299,7.5254,7.6268,7.7193,2.984,3.2939,3.5758,4.1234,4.4182,4.5745,4.5745,4.5745,4.5678,4.5491,4.5598,4.5705,4.5571,4.5678,4.5785,4.5959,4.5932,4.5972,4.6266,4.6373,4.652,4.6734,4.6921,4.6881,4.648,4.6146,4.5932,4.5745,4.5745,4.5745,4.5745,4.5745,4.5852,4.6079,4.6079,4.6226,4.6507,4.6507,4.6547,4.6627,4.6921,4.7175,4.7388,4.7682,4.7816,4.7816,4.7816,4.7682,4.7495,4.7495,4.7495,4.7495,4.7495,4.7495,4.7495,4.7495,4.7495,4.7909,5.0527,5.2198,5.3844,5.9173,6.231,6.4495,6.7116,6.8626,6.9433,6.9433,6.9433,6.9433,6.9433,6.9668,6.9922,6.9922,6.9668,6.9375,6.916,6.8633,6.8125,6.7851,6.7832,6.7734,6.7383,6.7324,6.7207,6.6914,6.7441,6.7832,6.7832,6.7832,6.7676,6.7383,6.7031,6.6875,6.6875,6.9015,7.0361,7.0361,7.0361,7.1429,7.3662,7.1654,7.1408,7.3783,7.3762,7.3762,7.3762,7.3338,7.3187,7.3187,7.3678,7.3978,2.3499,2.8864,3.4486,3.4756,4.0367,4.5745,4.5745,4.5745,4.5745,4.5745,4.5745,4.5825,4.6119,4.5932,4.5932,4.6507,4.6373,4.6266,4.6587,4.6841,4.7028,4.7068,4.7068,4.7068,4.7028,4.6774,4.636,4.5785,4.5745,4.5745,4.5745,4.5745,4.5745,4.5745,4.5745,4.5892,4.6186,4.6186,4.6333,4.6627,4.6921,4.7068,4.7094,4.7388,4.7495,4.7495,4.7495,4.7495,4.7495,4.7495,4.7495,4.7495,4.7495,4.7495,4.7495,4.7495,4.7495,4.7495,4.7624,4.9992,5.3022,5.3302,5.8216,6.4075,6.4191,6.6567,6.9433,6.9433,6.9433,6.9433,6.9433,6.9453,6.9453,6.9453,6.9453,6.9219,6.8418,6.8203,6.7949,6.709,6.6914,6.6914,6.6875,6.6875,6.6875,6.6875,6.6875,6.6914,6.6914,6.6914,6.6914,6.6875,6.6875,6.6875,6.6875,6.6982,6.6982,6.6982,6.6982,6.7127,6.7234,6.7127,6.7127,6.7234,6.7234,6.7234,6.7234,6.7234,6.7108,6.7195,7.0299,7.1734,2.6333,2.8864,3.1989,3.7212,4.0231,4.2704,4.5421,4.5892,4.5745,4.5745,4.5745,4.5825,4.6146,4.6119,4.6146,4.6547,4.6373,4.6373,4.6841,4.6667,4.6694,4.7282,4.7175,4.7068,4.7068,4.6627,4.6253,4.6039,4.5852,4.5745,4.5745,4.5745,4.5745,4.5745,4.5745,4.5785,4.5892,4.5892,4.5932,4.6039,4.6547,4.6988,4.7348,4.7455,4.7495,4.7495,4.7495,4.7495,4.7495,4.7495,4.7495,4.7495,4.7495,4.7495,4.7495,4.7495,4.7495,4.7495,4.7495,4.8321,4.9709,5.2198,5.6292,6.0788,6.327,6.6529,6.9433,6.9433,6.9433,6.9433,6.9433,6.9433,6.9433,6.9433,6.9433,6.9219,6.8359,6.8183,6.791,6.7031,6.6875,6.6875,6.6875,6.6875,6.6875,6.6875,6.6875,6.6875,6.6875,6.6875,6.6875,6.6875,6.6875,6.6875,6.6875,6.6875,6.6875,6.6875,6.6875,6.6875,6.6875,6.6875,6.6875,6.6875,6.6875,6.6875,6.6875,6.6875,6.6875,6.6875,6.8055,6.8556,2.619,2.7886,3.0185,3.5183,3.7331,3.9187,4.313,4.3925,4.4212,4.5617,4.5999,4.6146,4.644,4.6413,4.644,4.6734,4.6547,4.648,4.6841,4.6667,4.6667,4.7135,4.7108,4.7028,4.6921,4.648,4.6186,4.6186,4.5932,4.5745,4.5745,4.5745,4.5745,4.5745,4.5745,4.5745,4.5745,4.5745,4.5852,4.6079,4.644,4.6921,4.7495,4.7495,4.7495,4.7495,4.7495,4.7495,4.7495,4.7495,4.7495,4.7495,4.7495,4.7495,4.7495,4.7495,4.7495,4.7495,4.7495,4.7495,4.7909,5.0246,5.355,5.7255,6.0958,6.461,6.7796,6.904,6.9433,6.9433,6.9433,6.9433,6.9433,6.9433,6.9433,6.9219,6.8359,6.8183,6.791,6.7031,6.6875,6.6875,6.6875,6.6875,6.6875,6.6875,6.6875,6.6875,6.6875,6.6875,6.6875,6.6875,6.6875,6.6875,6.6875,6.6875,6.6875,6.6875,6.6875,6.6875,6.6875,6.6875,6.6875,6.6875,6.6875,6.6875,6.6875,6.6875,6.6875,6.6875,6.6875,6.6875,2.3219,2.5905,2.8639,2.8958,3.1704,3.529,3.9193,4.0233,4.1377,4.509,4.6161,4.6427,4.6988,4.6814,4.6734,4.7028,4.6814,4.6627,4.6654,4.6841,4.6921,4.6654,4.6841,4.6921,4.6654,4.6373,4.6186,4.6186,4.5932,4.5745,4.5745,4.5745,4.5745,4.5745,4.5745,4.5745,4.5745,4.5745,4.6039,4.6627,4.6627,4.6921,4.7495,4.7495,4.7495,4.7495,4.7495,4.7495,4.7495,4.7495,4.7495,4.7495,4.7495,4.7495,4.7495,4.7495,4.7495,4.7495,4.7495,4.7495,4.7495,4.7495,4.9992,5.3705,5.7377,6.1076,6.478,6.8362,6.9433,6.9433,6.9433,6.9433,6.9433,6.9433,6.9433,6.9219,6.8359,6.8183,6.791,6.7031,6.6875,6.6875,6.6875,6.6875,6.6875,6.6875,6.6875,6.6875,6.6875,6.6875,6.6875,6.6875,6.6875,6.6875,6.6875,6.6875,6.6875,6.6875,6.6875,6.6875,6.6875,6.6875,6.6875,6.6875,6.6875,6.6875,6.6875,6.6875,6.6875,6.6875,6.6875,6.6875,2.3219,2.402,2.5526,2.8569,2.9929,3.1722,3.5632,3.6345,3.7482,4.1359,4.2252,4.3195,4.6147,4.6841,4.6988,4.7068,4.6814,4.6694,4.6921,4.644,4.6226,4.6587,4.652,4.648,4.6627,4.6373,4.6186,4.6186,4.5932,4.5745,4.5745,4.5745,4.5745,4.5745,4.5745,4.5745,4.5745,4.5745,4.6039,4.6627,4.6627,4.6921,4.7495,4.7495,4.7495,4.7495,4.7495,4.7495,4.7495,4.7495,4.7495,4.7495,4.7495,4.7495,4.7495,4.7495,4.7495,4.7495,4.7495,4.7495,4.7495,4.7495,4.9992,5.3705,5.7377,6.1076,6.478,6.8362,6.9433,6.9433,6.9433,6.9433,6.9433,6.9433,6.9433,6.9219,6.8359,6.8183,6.791,6.7031,6.6875,6.6875,6.6875,6.6875,6.6875,6.6875,6.6875,6.6875,6.6875,6.6875,6.6875,6.6875,6.6875,6.6875,6.6875,6.6875,6.6875,6.6875,6.6875,6.6875,6.6875,6.6875,6.6875,6.6875,6.6875,6.6875,6.6875,6.6875,6.6875,6.6875,6.6875,6.6875,2.3219,2.3293,2.3794,2.6147,2.6657,2.7756,3.1688,3.2655,3.4144,3.975,4.1042,4.22,4.6085,4.6948,4.7028,4.6881,4.6841,4.6774,4.6694,4.6373,4.6146,4.6226,4.6226,4.6186,4.6226,4.6079,4.5999,4.5999,4.5852,4.5745,4.5745,4.5745,4.5745,4.5745,4.5745,4.5745,4.5745,4.5745,4.5972,4.644,4.6547,4.6881,4.7322,4.7428,4.7495,4.7495,4.7495,4.7495,4.7495,4.7495,4.7495,4.7495,4.7495,4.7495,4.7495,4.7495,4.7495,4.7495,4.7495,4.7495,4.7495,4.7495,4.8888,5.1231,5.494,5.861,6.231,6.6017,6.8211,6.9433,6.9433,6.9433,6.9433,6.9433,6.9316,6.8984,6.8301,6.8027,6.7676,6.6992,6.6875,6.6875,6.6875,6.6875,6.6875,6.6875,6.6875,6.6875,6.6875,6.6875,6.6875,6.6875,6.6875,6.6875,6.6875,6.6875,6.6875,6.6875,6.6875,6.6875,6.6875,6.6875,6.6875,6.6875,6.6875,6.6875,6.6875,6.6875,6.6875,6.6875,6.6875,6.6875,2.3171,2.3185,2.3259,2.3361,2.3449,2.4404,2.7812,2.8725,3.117,3.8831,4.0396,4.1835,4.6217,4.6988,4.6921,4.6654,4.6841,4.6841,4.6333,4.644,4.636,4.5812,4.5972,4.6039,4.5785,4.5745,4.5745,4.5745,4.5745,4.5745,4.5745,4.5745,4.5745,4.5745,4.5745,4.5745,4.5745,4.5745,4.5892,4.6186,4.644,4.6734,4.7068,4.7322,4.7469,4.7495,4.7495,4.7495,4.7495,4.7495,4.7495,4.7495,4.7495,4.7495,4.7495,4.7495,4.7495,4.7495,4.7495,4.7495,4.7495,4.7495,4.7495,4.8193,5.1918,5.5617,5.9293,6.2984,6.6548,6.9433,6.9433,6.9433,6.9433,6.9433,6.9101,6.8691,6.8301,6.7773,6.7324,6.6933,6.6875,6.6875,6.6875,6.6875,6.6875,6.6875,6.6875,6.6875,6.6875,6.6875,6.6875,6.6875,6.6875,6.6875,6.6875,6.6875,6.6875,6.6875,6.6875,6.6875,6.6875,6.6875,6.6875,6.6875,6.6875,6.6875,6.6875,6.6875,6.6875,6.6875,6.6875,6.6875,2.2852,2.3029,2.3205,2.3117,2.3449,2.3936,2.4565,2.4903,2.7258,3.4783,3.6476,3.8401,4.5133,4.6547,4.6694,4.6627,4.6654,4.6654,4.6547,4.6373,4.6146,4.5785,4.5785,4.5812,4.5745,4.5745,4.5745,4.5745,4.5745,4.5745,4.5745,4.5745,4.5745,4.5745,4.5745,4.5745,4.5745,4.5745,4.5892,4.6186,4.6226,4.6547,4.7068,4.7108,4.7282,4.7495,4.7495,4.7495,4.7495,4.7495,4.7495,4.7495,4.7495,4.7495,4.7495,4.7495,4.7495,4.7495,4.7495,4.7495,4.7495,4.7495,4.7495,4.8193,5.1918,5.5617,5.9293,6.2984,6.6548,6.9433,6.9433,6.9433,6.9433,6.9433,6.9101,6.8691,6.8301,6.7558,6.6972,6.6875,6.6875,6.6875,6.6875,6.6875,6.6875,6.6875,6.6875,6.6875,6.6875,6.6875,6.6875,6.6875,6.6875,6.6875,6.6875,6.6875,6.6875,6.6875,6.6875,6.6875,6.6875,6.6875,6.6875,6.6875,6.6875,6.6875,6.6875,6.6875,6.6875,6.6875,6.6875,6.6875,2.2784,2.294,2.3097,2.3029,2.3402,2.3768,2.37,2.391,2.5688,3.1324,3.236,3.4496,4.1985,4.3444,4.4104,4.6122,4.6667,4.6734,4.644,4.64,4.6253,4.5785,4.5745,4.5745,4.5745,4.5745,4.5745,4.5745,4.5745,4.5745,4.5745,4.5745,4.5745,4.5745,4.5745,4.5745,4.5745,4.5745,4.5825,4.5972,4.6119,4.6333,4.6627,4.6921,4.7135,4.7282,4.7428,4.7495,4.7495,4.7495,4.7495,4.7495,4.7495,4.7495,4.7495,4.7495,4.7495,4.7495,4.7495,4.7495,4.7495,4.7495,4.7495,4.7895,4.9554,5.2728,5.6429,6.0092,6.3807,6.6965,6.8889,6.9433,6.9394,6.916,6.8594,6.8008,6.7617,6.7168,6.6875,6.6875,6.6875,6.6875,6.6875,6.6875,6.6875,6.6875,6.6875,6.6875,6.6875,6.6875,6.6875,6.6875,6.6875,6.6875,6.6875,6.6875,6.6875,6.6875,6.6875,6.6875,6.6875,6.6875,6.6875,6.6875,6.6875,6.6875,6.6875,6.6875,6.6875,6.6875,6.6875,6.6875,2.2696,2.2818,2.2961,2.2961,2.3327,2.368,2.368,2.389,2.5051,2.8816,2.9481,3.1292,3.8057,3.9988,4.1409,4.4457,4.6001,4.6707,4.6266,4.6373,4.6333,4.5812,4.5745,4.5745,4.5745,4.5745,4.5745,4.5745,4.5745,4.5745,4.5745,4.5745,4.5745,4.5745,4.5745,4.5745,4.5745,4.5745,4.5745,4.5745,4.5972,4.6119,4.6186,4.6667,4.6961,4.7068,4.7322,4.7428,4.7495,4.7495,4.7495,4.7495,4.7495,4.7495,4.7495,4.7495,4.7495,4.7495,4.7495,4.7495,4.7495,4.7495,4.7495,4.7495,4.7495,5.0119,5.355,5.6551,6.0517,6.4628,6.7513,6.8718,6.916,6.8652,6.8008,6.7383,6.6972,6.6875,6.6875,6.6875,6.6875,6.6875,6.6875,6.6875,6.6875,6.6875,6.6875,6.6875,6.6875,6.6875,6.6875,6.6875,6.6875,6.6875,6.6875,6.6875,6.6875,6.6875,6.6875,6.6875,6.6875,6.6875,6.6875,6.6875,6.6875,6.6875,6.6875,6.6875,6.6875,6.6875,6.6875,6.6875,2.2378,2.2588,2.2798,2.2798,2.3239,2.368,2.368,0.0,2.4889,2.8619,2.916,3.0388,3.4265,3.7887,4.0358,4.1037,4.4078,4.6266,4.6186,4.6226,4.6119,4.5785,4.5745,4.5745,4.5745,4.5745,4.5745,4.5745,4.5745,4.5745,4.5745,4.5745,4.5745,4.5745,4.5745,4.5745,4.5745,4.5745,4.5745,4.5745,4.5785,4.5932,4.6186,4.6266,4.656,4.7068,4.7108,4.7241,4.7495,4.7495,4.7495,4.7495,4.7495,4.7495,4.7495,4.7495,4.7495,4.7495,4.7495,4.7495,4.7495,4.7495,4.7495,4.7495,4.7495,5.0119,5.3022,5.3426,5.8626,6.4093,6.4343,6.6663,6.8652,6.7832,6.7558,6.7383,6.6972,6.6875,6.6875,6.6875,6.6875,6.6875,6.6875,6.6875,6.6875,6.6875,6.6875,6.6875,6.6875,6.6875,6.6875,6.6875,6.6875,6.6875,6.6875,6.6875,6.6875,6.6875,6.6875,6.6875,6.6875,6.6875,6.6875,6.6875,6.6875,6.6875,6.6875,6.6875,6.6875,6.6875,6.6875,6.6875,2.2357,2.2554,2.2784,2.2784,2.3239,2.3666,2.3558,0.0,2.4257,2.5443,2.5774,2.6813,3.0442,3.2385,3.4094,3.6564,4.0232,4.27,4.2526,4.2663,4.3521,4.5511,4.1662,4.0795,4.532,4.3619,4.3218,4.5595,4.5745,4.5745,4.5745,4.5745,4.5745,4.5745,4.5745,4.5745,4.5745,4.5745,4.5745,4.5745,4.5745,4.5812,4.5932,4.6119,4.6306,4.656,4.6734,4.6948,4.7241,4.7241,4.7348,4.7495,4.7495,4.7495,4.7495,4.7495,4.7495,4.7495,4.7495,4.7495,4.7495,4.7495,4.7495,4.7495,4.7495,4.8591,5.0119,5.2338,5.5063,5.827,6.2548,6.5816,6.7949,6.7558,6.7324,6.709,6.6914,6.6875,6.6875,6.6875,6.6875,6.6875,6.6875,6.6875,6.6875,6.6875,6.6875,6.6875,6.6875,6.6875,6.6875,6.6875,6.6875,6.6875,6.6875,6.6875,6.6875,6.6875,6.6875,6.6875,6.6875,6.6875,6.6875,6.6875,6.6875,6.6875,6.6875,6.6875,6.6875,6.6875,6.6875,6.6875,2.2432,2.2554,2.273,2.2764,2.3171,2.3524,0.0,0.0,2.37,2.3483,2.3415,2.42,2.6777,2.8162,2.9716,3.2385,3.7147,4.0046,3.8584,3.9569,4.0883,4.2239,3.7703,3.7006,4.3481,4.2641,4.2792,4.5484,4.5745,4.5745,4.5745,4.5745,4.5745,4.5745,4.5745,4.5745,4.5745,4.5745,4.5745,4.5745,4.5745,4.5745,4.5745,4.5972,4.6119,4.6186,4.64,4.6667,4.6921,4.6921,4.7094,4.7362,4.7362,4.7428,4.7495,4.7495,4.7495,4.7495,4.7495,4.7495,4.7495,4.7495,4.7495,4.7495,4.7495,4.7495,4.8064,5.0683,5.2823,5.5763,6.1484,6.5272,6.7441,6.7324,6.709,6.6875,6.6875,6.6875,6.6875,6.6875,6.6875,6.6875,6.6875,6.6875,6.6875,6.6875,6.6875,6.6875,6.6875,6.6875,6.6875,6.6875,6.6875,6.6875,6.6875,6.6875,6.6875,6.6875,6.6875,6.6875,6.6875,6.6875,6.6875,6.6875,6.6875,6.6875,6.6875,6.6875,6.6875,6.6875,6.6875,6.6875,2.2554,2.2554,2.2588,2.2744,2.3008,2.3273,0.0,2.3449,2.3449,2.3449,2.3327,2.3219,2.3225,2.6333,2.8864,2.9015,3.5187,3.8851,3.5036,3.7703,3.8712,3.5057,3.4486,3.6027,3.9824,4.3494,4.5608,4.5745,4.5745,4.5745,4.5745,4.5745,4.5745,4.5745,4.5745,4.5745,4.5745,4.5745,4.5745,4.5745,4.5745,4.5745,4.5745,4.5745,4.5892,4.6186,4.6186,4.6373,4.6627,4.6627,4.6801,4.7068,4.7068,4.7241,4.7495,4.7495,4.7495,4.7495,4.7495,4.7495,4.7495,4.7495,4.7495,4.7495,4.7495,4.7495,4.7495,4.7509,5.249,5.8455,6.1455,6.4839,6.7383,6.6972,6.6875,6.6875,6.6875,6.6875,6.6875,6.6875,6.6875,6.6875,6.6875,6.6875,6.6875,6.6875,6.6875,6.6875,6.6875,6.6875,6.6875,6.6875,6.6875,6.6875,6.6875,6.6875,6.6875,6.6875,6.6875,6.6875,6.6875,6.6875,6.6875,6.6875,6.6875,6.6875,6.6875,6.6875,6.6875,6.6875,6.6875,6.6875,2.2744,2.2784,2.2907,2.3049,2.3314,2.3524,2.347,2.3537,2.3558,2.3347,2.3259,2.3219,2.3219,2.4202,2.5054,2.5054,2.914,3.1971,3.084,3.1688,3.2939,3.4335,3.4486,3.4917,3.6178,3.9674,4.2905,4.5484,4.5745,4.5745,4.5745,4.5745,4.5745,4.5745,4.5745,4.5745,4.5745,4.5745,4.5745,4.5745,4.5745,4.5745,4.5745,4.5745,4.5785,4.5892,4.5892,4.6039,4.6333,4.6333,4.652,4.6774,4.6774,4.6801,4.6907,4.6907,4.6907,4.6907,4.6907,4.6907,4.6907,4.6907,4.6907,4.6907,4.6907,4.7028,4.7175,4.6948,5.0074,5.3654,5.4648,5.9163,6.3453,6.3342,6.513,6.6875,6.6875,6.6875,6.6875,6.6875,6.6875,6.6875,6.6875,6.6875,6.6875,6.6875,6.6875,6.6875,6.6875,6.6875,6.6875,6.6875,6.6875,6.6875,6.6875,6.6875,6.6875,6.6875,6.6875,6.6875,6.6875,6.6875,6.6875,6.6875,6.6875,6.6875,6.6875,6.6875,6.6875,6.6875,6.6875,6.6875,0.0,2.2886,2.2974,2.3171,2.3327,0.0,2.3449,2.3483,2.3449,2.3259,2.3219,2.3219,2.3219,2.3219,2.3219,2.3219,2.6484,2.8463,2.6991,2.8052,2.929,3.0141,3.1538,3.2385,3.2385,3.7006,4.1084,4.3343,4.4895,4.5745,4.5745,4.5745,4.5745,4.5745,4.5745,4.5745,4.5745,4.5745,4.5745,4.5745,4.5745,4.5745,4.5745,4.5745,4.5745,4.5745,4.5745,4.5852,0.0,4.6012,4.6186,4.644,4.644,4.652,4.6627,4.6627,4.6627,4.6627,4.6627,4.6627,4.6627,4.6627,4.6627,4.6587,4.648,4.6667,4.6841,4.6547,4.8876,5.1483,5.1363,5.5416,5.96,5.96,6.1302,6.3287,6.4621,6.4857,6.5296,6.6603,6.6875,6.6875,6.6875,6.6875,6.6875,6.6875,6.6875,6.6875,6.6875,6.6875,6.6875,6.6875,6.6875,6.6875,6.6875,6.6875,6.6875,6.6875,6.6875,6.6875,6.6875,6.6875,6.6875,6.6875,6.6875,6.6875,6.6875,6.6875,6.6875,6.6875,6.6875,6.6875,0.0,0.0,0.0,0.0,0.0,2.3117,2.3381,2.3347,0.0,2.3219,2.3219,2.3219,2.3219,2.3219,2.3219,2.3219,2.6183,2.7229,2.385,2.6305,2.7189,2.3649,2.6333,2.8588,2.8864,3.5457,3.9836,4.0102,4.3331,4.5471,4.5745,4.5471,4.5471,4.5745,4.5745,4.5745,4.5745,4.5745,4.5745,4.5745,4.5745,4.5745,4.5745,4.5745,4.5745,4.5745,4.5745,4.5745,4.5745,4.5745,4.5892,4.6146,4.6146,4.6333,4.6547,4.6547,4.6547,4.6547,4.6547,4.6547,4.6547,4.6547,4.6547,4.6507,4.6226,4.6373,4.652,4.6226,4.857,5.1016,5.072,5.3295,5.5931,5.5931,5.6063,5.7248,6.0526,6.1467,6.2627,6.5823,6.6748,6.6875,6.6875,6.6875,6.6875,6.6875,6.6875,6.6875,6.6875,6.6875,6.6875,6.6875,6.6875,6.6875,6.6875,6.6875,6.6875,6.6875,6.6875,6.6875,6.6875,6.6875,6.6875,6.6875,6.6875,6.6875,6.6875,6.6875,6.6875,6.6875,6.6875,6.6875,0.0,0.0,0.0,0.0,2.3381,2.3361,0.0,2.3415,2.3361,2.3239,2.3219,2.3219,2.3219,2.3219,2.3219,2.3219,2.3929,2.4259,2.3567,2.4125,2.4351,2.3383,2.3929,2.5754,2.8588,3.3089,3.7006,3.9836,4.0957,4.2641,4.5595,4.2917,4.2779,4.5595,4.5745,4.5745,4.5745,4.5745,4.5745,4.5745,4.5745,4.5745,4.5745,4.5745,4.5745,4.5745,4.5745,4.5745,4.5745,4.5745,4.5785,4.5852,4.5852,4.5892,4.5959,4.5959,4.5959,4.5959,4.5959,4.5959,4.5959,4.5959,4.5959,4.5932,4.5852,4.6039,4.6226,4.5932,4.6374,4.7045,4.6963,4.9581,5.2211,5.2211,5.4343,5.659,5.7379,5.9747,6.1854,6.2645,6.5022,6.6875,6.6875,6.6875,6.6875,6.6875,6.6875,6.6875,6.6875,6.6875,6.6875,6.6875,6.6875,6.6875,6.6875,6.6875,6.6875,6.6875,6.6875,6.6875,6.6875,6.6875,6.6875,6.6875,6.6875,6.6875,6.6875,6.6875,6.6875,6.6875,6.6875,6.6875,0.0,0.0,2.3171,2.3395,2.3347,2.3293,2.3415,2.3395,2.3327,2.3239,2.3219,2.3219,2.3219,2.3273,2.3307,2.3239,2.3347,2.3436,2.3449,2.3449,2.3395,2.3239,2.3219,2.4073,2.604,2.9716,3.2808,3.4766,3.6576,3.8434,4.0391,4.0264,4.0969,4.3068,4.4745,4.5745,4.5745,4.5745,4.5745,4.5745,4.5745,4.5745,4.5745,4.5745,4.5745,4.5745,4.5745,4.5745,4.5745,4.5745,4.5745,4.5745,4.5745,4.5745,4.5745,4.5745,4.5745,4.5745,4.5745,4.5745,4.5745,4.5745,4.5745,4.5745,4.5745,4.5852,4.5959,4.5785,4.5745,4.5745,4.5745,4.7195,4.8498,4.8498,4.9986,5.1824,5.3561,5.5387,5.7214,5.8818,6.1983,6.4475,6.4475,6.5804,6.6875,6.6875,6.6875,6.6875,6.6875,6.6875,6.6875,6.6875,6.6875,6.6875,6.6875,6.6875,6.6875,6.6875,6.6875,6.6875,6.6875,6.6875,6.6875,6.6875,6.6875,6.6875,6.6875,6.6875,6.6875,6.6875,6.6875,6.6875,2.3049,2.3008,2.3063,2.3327,2.3205,2.3083,2.3347,2.3307,2.3219,2.3219,2.3219,2.3219,2.3259,2.3347,2.3381,2.3273,2.347,2.3592,2.347,2.3449,2.3395,2.3239,2.3219,2.3219,2.3219,2.6611,2.8864,2.8864,3.182,3.3934,3.4486,3.7575,3.9558,4.0102,4.3756,4.5745,4.5745,4.5745,4.5745,4.5745,4.5745,4.5745,4.5745,4.5745,4.5745,4.5745,4.5745,4.5745,4.5745,4.5745,4.5745,4.5745,4.5745,4.5745,4.5745,4.5745,4.5745,4.5745,4.5745,4.5745,4.5745,4.5745,4.5745,4.5745,4.5745,4.5745,4.5745,4.5745,4.5745,4.5745,4.5745,4.5745,4.5745,4.5745,4.5745,4.6539,4.9581,5.0646,5.1958,5.4857,5.8409,6.0803,6.0803,6.3305,6.5423,6.6057,6.6077,6.6349,6.6855,6.6875,6.6875,6.6875,6.6875,6.6875,6.6875,6.6875,6.6875,6.6875,6.6875,6.6875,6.6875,6.6875,6.6875,6.6875,6.6875,6.6875,6.6875,6.6875,6.6875,6.6875,6.6875,6.6875,2.3049,2.3008,2.3029,2.3063,2.3042,2.3049,2.3219,2.3239,2.3219,2.3219,2.3219,2.3259,2.3395,2.3327,2.3293,2.3395,2.3449,2.3483,2.3449,2.3449,2.3395,2.3239,2.3219,2.3219,2.3219,2.6611,2.8864,2.8864,2.9441,3.1114,3.4335,3.5057,3.6877,3.9963,4.3756,4.5745,4.5745,4.5745,4.5745,4.5745,4.5745,4.5745,4.5745,4.5745,4.5745,4.5745,4.5745,4.5745,4.5745,4.5745,4.5745,4.5745,4.5745,4.5745,4.5745,4.5745,4.5745,4.5745,4.5745,4.5745,4.5745,4.5745,4.5745,4.5745,4.5745,4.5745,4.5745,4.5745,4.5745,4.5745,4.5745,4.5745,4.5745,4.5745,4.5745,4.5869,4.6416,4.8919,5.1154,5.169,5.4725,5.71,5.71,5.751,5.8966,6.1965,6.237,6.3561,6.6476,6.6875,6.6875,6.6875,6.6875,6.6875,6.6875,6.6875,6.6875,6.6875,6.6875,6.6875,6.6875,6.6875,6.6875,6.6875,6.6875,6.6875,6.6875,6.6875,6.6875,6.6875,6.6875,6.6875,2.2798,2.2764,2.2784,2.2873,2.2961,2.3049,2.3185,2.3293,2.3327,2.3239,2.3293,2.3361,2.3436,2.347,2.3524,2.366,2.3483,2.3361,2.3436,2.3381,2.3293,2.3219,2.3219,2.3219,2.3219,2.4782,2.5762,2.5762,2.5762,2.6611,2.8288,3.0415,3.3211,3.7006,4.0656,4.3619,4.5745,4.5745,4.5745,4.5745,4.5745,4.5745,4.5745,4.5745,4.5745,4.5745,4.5745,4.5745,4.5745,4.5745,4.5745,4.5745,4.5745,4.5745,4.5745,4.5745,4.5745,4.5745,4.5745,4.5745,4.5745,4.5745,4.5745,4.5745,4.5745,4.5745,4.5745,4.5745,4.5745,4.5745,4.5745,4.5745,4.5745,4.5745,4.5745,4.5745,4.5745,4.6936,4.8148,4.8148,5.1034,5.3412,5.3412,5.5006,5.6837,5.8444,6.0414,6.2241,6.3855,6.5696,6.6875,6.6875,6.6875,6.6875,6.6875,6.6875,6.6875,6.6875,6.6875,6.6875,6.6875,6.6875,6.6875,6.6875,6.6875,6.6875,6.6875,6.6875,6.6875,6.6875,6.6875,6.6875,2.2588,2.2574,2.2622,2.271,2.2852,2.2995,2.313,2.3259,2.3307,2.3205,2.3293,2.3415,2.3449,2.3537,2.3666,2.3768,2.347,2.3273,2.3429,2.3307,2.3219,2.3219,2.3219,2.3219,2.3219,2.3219,2.3219,2.3219,2.3219,2.3219,2.3219,2.6888,3.0265,3.3089,3.7703,4.1499,4.4345,4.532,4.5745,4.5745,4.5745,4.5745,4.5745,4.5745,4.5745,4.5745,4.5745,4.5745,4.5745,4.5745,4.5745,4.5745,4.5745,4.5745,4.5745,4.5745,4.5745,4.5745,4.5745,4.5745,4.5745,4.5745,4.5745,4.5745,4.5745,4.5745,4.5745,4.5745,4.5745,4.5745,4.5745,4.5745,4.5745,4.5745,4.5745,4.5745,4.5745,4.5745,4.5745,4.5745,4.7876,4.9716,4.9716,5.1974,5.4077,5.499,5.7379,5.9747,6.1449,6.3964,6.5931,6.6836,6.6875,6.6875,6.6875,6.6875,6.6875,6.6875,6.6875,6.6875,6.6875,6.6875,6.6875,6.6875,6.6875,6.6875,6.6875,6.6875,6.6875,6.6875,6.6875,6.6875,2.2588,2.2656,2.273,2.2608,2.2676,2.2832,2.2995,2.3029,2.3042,2.3029,2.313,2.3273,2.3429,2.347,2.347,2.3483,2.3327,2.3273,2.3429,2.3307,2.3219,2.3219,2.3219,2.3219,2.3219,2.3219,2.3219,2.3219,2.3219,2.3219,2.3219,2.6888,2.9015,2.929,3.6307,4.0252,4.053,4.392,4.5745,4.5745,4.5745,4.5745,4.5745,4.5745,4.5745,4.5745,4.5745,4.5745,4.5745,4.5745,4.5745,4.5745,4.5745,4.5745,4.5745,4.5745,4.5745,4.5745,4.5745,4.5745,4.5745,4.5745,4.5745,4.5745,4.5745,4.5745,4.5745,4.5745,4.5745,4.5745,4.5745,4.5745,4.5745,4.5745,4.5745,4.5745,4.5745,4.5745,4.5745,4.5745,4.5869,4.6143,4.6143,4.6266,4.7589,5.0915,5.1541,5.4178,6.0803,6.1854,6.3287,6.6495,6.6875,6.6875,6.6875,6.6875,6.6875,6.6875,6.6875,6.6875,6.6875,6.6875,6.6875,6.6875,6.6875,6.6875,6.6875,6.6875,6.6875,6.6875,6.6875,6.6875,2.2432,2.2534,2.2622,2.2574,2.2676,2.2798,2.2852,2.294,2.3008,2.3008,2.3049,2.3117,2.3171,2.3171,2.3171,2.3171,2.3049,2.2974,2.3029,2.2995,2.294,2.294,2.294,2.294,2.294,2.3029,2.3097,2.3097,2.3171,2.3219,2.3219,2.4632,2.646,2.8864,3.3934,3.7703,4.0102,4.1511,4.2202,4.2215,4.462,4.5745,4.5745,4.5745,4.5745,4.5745,4.5745,4.5745,4.5745,4.5745,4.5745,4.5745,4.5745,4.5745,4.5745,4.5745,4.5745,4.5745,4.5745,4.5745,4.5745,4.5745,4.5745,4.5745,4.5745,4.5745,4.5745,4.5745,4.5745,4.5745,4.5745,4.5745,4.5745,4.5745,4.5745,4.5745,4.5745,4.5745,4.5745,4.5745,4.5745,4.5745,4.5745,4.5745,4.6143,4.7481,4.9581,5.1974,5.4725,5.6985,5.8818,6.0155,6.2259,6.4475,6.6729,6.6875,6.6875,6.6875,6.6875,6.6875,6.6875,6.6875,6.6875,6.6875,6.6875,6.6875,6.6875,6.6875,6.6875,6.6875,6.6875,6.6875,2.2411,2.2479,2.2574,2.2608,2.2642,2.2656,2.2696,2.2798,2.2873,2.2873,2.2907,2.2961,2.2995,2.2974,2.294,2.294,2.2852,2.2784,2.2784,2.2784,2.2784,2.2784,2.2784,2.2784,2.2784,2.2873,2.294,2.294,2.3083,2.3151,2.3151,2.3205,2.4353,2.7039,3.069,3.3914,3.6608,3.7703,3.8283,3.8422,4.0957,4.2792,4.392,4.517,4.5745,4.5745,4.5745,4.5745,4.5745,4.5745,4.5745,4.5745,4.5745,4.5745,4.5745,4.5745,4.5745,4.5745,4.5745,4.5745,4.5745,4.5745,4.5745,4.5745,4.5745,4.5745,4.5745,4.5745,4.5745,4.5745,4.5745,4.5745,4.5745,4.5745,4.5745,4.5745,4.5745,4.5745,4.5745,4.5745,4.5745,4.5745,4.5745,4.5745,4.5745,4.5745,4.7726,4.9702,5.09,5.313,5.5022,5.6212,5.9487,6.2627,6.5022,6.6203,6.6875,6.6875,6.6875,6.6875,6.6875,6.6875,6.6875,6.6875,6.6875,6.6875,6.6875,6.6875,6.6875,6.6875,6.6875,6.6875,2.2554,2.2554,2.2588,2.2744,2.2554,2.2378,2.252,2.2554,2.2554,2.2554,2.2676,2.2818,2.2974,2.2886,2.2784,2.2784,2.2784,2.2784,2.2784,2.2784,2.2784,2.2784,2.2784,2.2784,2.2784,2.2784,2.2784,2.2784,2.292,2.3008,2.3008,2.3151,2.3219,2.3219,2.6888,2.8864,2.8864,3.2657,3.4486,3.4486,3.4486,3.6458,4.0114,4.392,4.5608,4.5608,4.5745,4.5745,4.5745,4.5745,4.5745,4.5745,4.5745,4.5745,4.5745,4.5745,4.5745,4.5745,4.5745,4.5745,4.5745,4.5745,4.5745,4.5745,4.5745,4.5745,4.5745,4.5745,4.5745,4.5745,4.5745,4.5745,4.5745,4.5745,4.5745,4.5745,4.5745,4.5745,4.5745,4.5745,4.5745,4.5745,4.5745,4.5745,4.5745,4.5745,4.5745,4.6936,5.0481,5.0885,5.2345,5.5931,5.947,6.156,6.1578,6.4767,6.6855,6.6855,6.6855,6.6875,6.6875,6.6875,6.6875,6.6875,6.6875,6.6875,6.6875,6.6875,6.6875,6.6875,6.6875,6.6875,2.2411,2.2554,2.2676,2.2513,2.2567,2.2608,2.2445,2.2411,2.2411,2.2411,2.252,2.2608,2.2554,2.25,2.2466,2.2466,2.2466,2.2466,2.2466,2.2466,2.2466,2.2466,2.2466,2.2466,2.2466,2.2567,2.2622,2.2622,2.2764,2.2907,2.3008,2.3049,2.3117,2.3219,2.6888,2.8864,2.8864,2.999,3.0566,3.0566,3.0566,3.2516,3.6307,4.0102,4.1812,4.1926,4.4607,4.5745,4.5745,4.5745,4.5745,4.5745,4.5745,4.5745,4.5745,4.5745,4.5745,4.5745,4.5745,4.5745,4.5745,4.5745,4.5745,4.5745,4.5745,4.5745,4.5745,4.5745,4.5745,4.5745,4.5745,4.5745,4.5745,4.5745,4.5745,4.5745,4.5745,4.5745,4.5745,4.5745,4.5745,4.5745,4.5745,4.5745,4.5745,4.5745,4.5745,4.6143,4.7195,4.7208,4.8648,5.2226,5.353,5.5122,5.7658,6.1173,6.3177,6.3177,6.5569,6.6875,6.6875,6.6875,6.6875,6.6875,6.6875,6.6875,6.6875,6.6875,6.6875,6.6875,6.6875,6.6875,2.2588,2.273,2.2832,2.2656,2.2642,2.2622,2.2391,2.2337,2.2337,2.2337,2.2411,2.2445,2.2357,2.2337,2.2337,2.2337,2.2337,2.2337,2.2337,2.2337,2.2337,2.2337,2.2337,2.2337,2.2337,2.2411,2.2466,2.2466,2.2608,2.273,2.2818,2.2886,2.2995,2.313,2.5386,2.6549,2.6611,2.6611,2.6611,2.6611,2.6611,2.7886,3.0265,3.7006,4.0102,4.0367,4.4045,4.5745,4.5745,4.5745,4.5745,4.5745,4.5745,4.5745,4.5745,4.5745,4.5745,4.5745,4.5745,4.5745,4.5745,4.5745,4.5745,4.5745,4.5745,4.5745,4.5745,4.5745,4.5745,4.5745,4.5745,4.5745,4.5745,4.5745,4.5745,4.5745,4.5745,4.5745,4.5745,4.5745,4.5745,4.5745,4.5745,4.5745,4.5745,4.5745,4.5745,4.5745,4.5745,4.5745,4.6539,4.8648,5.0107,5.1824,5.4062,5.7493,6.0137,6.156,6.358,6.5423,6.6855,6.6875,6.6875,6.6875,6.6875,6.6875,6.6875,6.6875,6.6875,6.6875,6.6875,6.6875,2.292,2.2974,2.2995,2.2974,2.2744,2.25,2.2378,2.2337,2.2337,2.2337,2.2337,2.2337,2.2337,2.2337,2.2337,2.2337,2.2337,2.2337,2.2337,2.2337,2.2337,2.2337,2.2337,2.2337,2.2337,2.2337,2.2337,2.2337,2.2466,2.2534,2.2554,2.2696,2.2832,2.2995,2.3008,2.3083,2.3205,2.3219,2.3219,2.3219,2.3219,2.3219,2.3506,3.4215,3.9408,4.0367,4.4045,4.5745,4.5745,4.5745,4.5745,4.5745,4.5745,4.5745,4.5745,4.5745,4.5745,4.5745,4.5745,4.5745,4.5745,4.5745,4.5745,4.5745,4.5745,4.5745,4.5745,4.5745,4.5745,4.5745,4.5745,4.5745,4.5745,4.5745,4.5745,4.5745,4.5745,4.5745,4.5745,4.5745,4.5745,4.5745,4.5745,4.5745,4.5745,4.5745,4.5745,4.5745,4.5745,4.5745,4.5745,4.5745,4.8648,5.0496,5.0496,5.3796,5.7248,6.0379,6.1209,6.303,6.633,6.6748,6.6875,6.6875,6.6875,6.6875,6.6875,6.6875,6.6875,6.6875,6.6875,6.6875,2.2642,2.2744,2.2798,2.2676,2.252,2.2378,2.2337,2.2337,2.2337,2.2337,2.2337,2.2337,2.2337,2.2337,2.2337,2.2337,2.2337,2.2337,2.2337,2.2337,2.2337,2.2337,2.2337,2.2337,2.2337,2.2337,2.2337,2.2337,2.2378,2.2432,2.2554,2.2588,2.2676,2.2832,2.294,2.3029,2.3063,2.3171,2.3219,2.3219,2.3219,2.3219,2.3369,2.8864,3.4486,4.0367,4.4045,4.5745,4.5745,4.5745,4.5745,4.5745,4.5745,4.5745,4.5745,4.5745,4.5745,4.5745,4.5745,4.5745,4.5745,4.5745,4.5745,4.5745,4.5745,4.5745,4.5745,4.5745,4.5745,4.5745,4.5745,4.5745,4.5745,4.5745,4.5745,4.5745,4.5745,4.5745,4.5745,4.5745,4.5745,4.5745,4.5745,4.5745,4.5745,4.5745,4.5745,4.5745,4.5745,4.5745,4.5745,4.5745,4.6416,4.6813,4.6813,5.0092,5.2478,5.3279,5.854,6.1965,6.2645,6.5404,6.6875,6.6875,6.6875,6.6875,6.6875,6.6875,6.6875,6.6875,6.6875,6.6875,2.273,2.2784,2.2744,2.2588,2.2445,2.2337,2.2337,2.2337,2.2337,2.2337,2.2337,2.2337,2.2337,2.2337,2.2337,2.2337,2.2337,2.2337,2.2337,2.2337,2.2337,2.2337,2.2337,2.2337,2.2337,2.2337,2.2337,2.2337,2.2337,2.2378,2.2445,2.2445,2.252,2.2676,2.2744,2.2832,2.2907,2.3049,2.3117,2.3117,2.3185,2.3219,2.3369,2.7181,3.2939,4.0252,4.2202,4.3055,4.3205,4.4895,4.462,4.3218,4.5046,4.5745,4.5745,4.5745,4.5745,4.5745,4.5745,4.5745,4.5745,4.5745,4.5745,4.5745,4.5745,4.5745,4.5745,4.5745,4.5745,4.5745,4.5745,4.5745,4.5745,4.5745,4.5745,4.5745,4.5745,4.5745,4.5745,4.5745,4.5745,4.5745,4.5745,4.5745,4.5745,4.5745,4.5745,4.5745,4.5745,4.5745,4.5745,4.5745,4.5745,4.5745,4.5745,4.7467,4.919,5.0915,5.446,5.8,6.1467,6.3324,6.513,6.6855,6.6875,6.6875,6.6875,6.6875,6.6875,6.6875,6.6875,6.6875,2.2873,2.2832,2.271,2.2554,2.2432,2.2337,2.2337,2.2337,2.2337,2.2337,2.2337,2.2337,2.2337,2.2337,2.2337,2.2337,2.2337,2.2337,2.2337,2.2337,2.2337,2.2337,2.2337,2.2337,2.2337,2.2337,2.2337,2.2337,2.2337,2.2337,2.2337,2.2337,2.2391,2.252,2.2534,2.2608,2.2744,2.2886,2.2995,2.3008,2.3151,2.3219,2.3369,2.646,3.1688,3.8283,3.9558,3.9685,3.9408,4.3907,4.3494,4.053,4.4195,4.5745,4.5745,4.5745,4.5745,4.5745,4.5745,4.5745,4.5745,4.5745,4.5745,4.5745,4.5745,4.5745,4.5745,4.5745,4.5745,4.5745,4.5745,4.5745,4.5745,4.5745,4.5745,4.5745,4.5745,4.5745,4.5745,4.5745,4.5745,4.5745,4.5745,4.5745,4.5745,4.5745,4.5745,4.5745,4.5745,4.5745,4.5745,4.5745,4.5745,4.5745,4.5745,4.5745,4.6936,4.9972,5.0646,5.3678,5.9487,6.0414,6.2351,6.595,6.6583,6.6875,6.6875,6.6875,6.6875,6.6875,6.6875,6.6875,2.2608,2.2608,2.2554,2.2411,2.2357,2.2337,2.2337,2.2337,2.2337,2.2337,2.2337,2.2337,2.2337,2.2337,2.2337,2.2337,2.2337,2.2337,2.2337,2.2337,2.2337,2.2337,2.2337,2.2337,2.2337,2.2337,2.2337,2.2337,2.2337,2.2337,2.2337,2.2337,2.2337,2.2378,2.2479,2.2574,2.2588,2.273,2.2886,2.3008,2.3151,2.3219,2.3225,2.3793,2.6333,3.069,3.7307,3.8283,3.5758,4.2792,4.3494,4.053,4.4195,4.5745,4.5745,4.5745,4.5745,4.5745,4.5745,4.5745,4.5745,4.5745,4.5745,4.5745,4.5745,4.5745,4.5745,4.5745,4.5745,4.5745,4.5745,4.5745,4.5745,4.5745,4.5745,4.5745,4.5745,4.5745,4.5745,4.5745,4.5745,4.5745,4.5745,4.5745,4.5745,4.5745,4.5745,4.5745,4.5745,4.5745,4.5745,4.5745,4.5745,4.5745,4.5745,4.5745,4.5869,4.6416,4.9311,5.1422,5.236,5.5387,5.8705,6.2241,6.5385,6.6875,6.6875,6.6875,6.6875,6.6875,6.6875,6.6875,2.2432,2.25,2.252,2.2378,2.2337,2.2337,2.2337,2.2337,2.2337,2.2337,2.2337,2.2337,2.2337,2.2337,2.2337,2.2337,2.2337,2.2337,2.2337,2.2337,2.2337,2.2337,2.2337,2.2337,2.2337,2.2337,2.2337,2.2337,2.2337,2.2337,2.2337,2.2337,2.2337,2.2337,2.2391,2.2432,2.2432,2.2588,2.2784,2.3008,2.3083,2.3151,2.3219,2.3219,2.5355,2.9015,3.2385,3.2939,3.1811,3.7156,3.8411,3.7285,4.1084,4.3907,4.5745,4.5745,4.5745,4.5745,4.5745,4.5745,4.5745,4.5745,4.5745,4.5745,4.5745,4.5745,4.5745,4.5745,4.5745,4.5745,4.5745,4.5745,4.5745,4.5745,4.5745,4.5745,4.5745,4.5745,4.5745,4.5745,4.5745,4.5745,4.5745,4.5745,4.5745,4.5745,4.5745,4.5745,4.5745,4.5745,4.5745,4.5745,4.5745,4.5745,4.5745,4.5745,4.5745,4.5745,4.7195,4.8919,5.0885,5.2478,5.5006,5.854,6.213,6.4876,6.6875,6.6875,6.6875,6.6875,6.6875,6.6875,2.2337,2.2411,2.2479,2.2357,2.2337,2.2337,2.2337,2.2337,2.2337,2.2337,2.2337,2.2337,2.2337,2.2337,2.2337,2.2337,2.2337,2.2337,2.2337,2.2337,2.2337,2.2337,2.2337,2.2337,2.2337,2.2337,2.2337,2.2337,2.2337,2.2337,2.2337,2.2337,2.2337,2.2337,2.2337,2.2337,2.2337,2.2479,2.2696,2.2961,2.2995,2.3083,2.3219,2.3219,2.4782,2.7466,2.8438,2.8296,2.7886,3.2516,3.3934,3.3512,3.8283,4.1788,4.4345,4.532,4.5745,4.5745,4.5745,4.5745,4.5745,4.5745,4.5745,4.5745,4.5745,4.5745,4.5745,4.5745,4.5745,4.5745,4.5745,4.5745,4.5745,4.5745,4.5745,4.5745,4.5745,4.5745,4.5745,4.5745,4.5745,4.5745,4.5745,4.5745,4.5745,4.5745,4.5745,4.5745,4.5745,4.5745,4.5745,4.5745,4.5745,4.5745,4.5745,4.5745,4.5745,4.5745,4.5745,4.6922,4.9581,4.9702,5.1303,5.4857,5.751,6.1044,6.5531,6.5531,6.6057,6.6875,6.6875,6.6875,2.2337,2.2337,2.2357,2.2337,2.2337,2.2337,2.2337,2.2337,2.2337,2.2337,2.2337,2.2337,2.2337,2.2337,2.2337,2.2337,2.2337,2.2337,2.2337,2.2337,2.2337,2.2337,2.2337,2.2337,2.2337,2.2337,2.2337,2.2337,2.2337,2.2337,2.2337,2.2337,2.2337,2.2337,2.2337,2.2337,2.2337,2.2479,2.2642,2.2798,2.294,2.3083,2.3219,2.3219,2.3369,2.3649,2.7316,2.6888,2.4073,3.1396,3.2385,2.999,3.7307,4.0252,4.0807,4.4345,4.5745,4.5745,4.5745,4.5745,4.5745,4.5745,4.5745,4.5745,4.5745,4.5745,4.5745,4.5745,4.5745,4.5745,4.5745,4.5745,4.5745,4.5745,4.5745,4.5745,4.5745,4.5745,4.5745,4.5745,4.5745,4.5745,4.5745,4.5745,4.5745,4.5745,4.5745,4.5745,4.5745,4.5745,4.5745,4.5745,4.5745,4.5745,4.5745,4.5745,4.5745,4.5745,4.5745,4.5758,4.6019,4.6019,4.7603,5.1154,5.1422,5.499,6.1873,6.1873,6.358,6.6875,6.6875,6.6875,2.2337,2.2337,2.2337,2.2337,2.2337,2.2337,2.2337,2.2337,2.2337,2.2337,2.2337,2.2337,2.2337,2.2337,2.2337,2.2337,2.2337,2.2337,2.2337,2.2337,2.2337,2.2337,2.2337,2.2337,2.2337,2.2337,2.2337,2.2337,2.2337,2.2337,2.2337,2.2337,2.2337,2.2337,2.2337,2.2337,2.2337,2.2391,2.2479,2.2642,2.2784,2.294,2.3083,2.3185,2.3219,2.3225,2.4632,2.4503,2.3355,2.6183,2.7886,2.914,3.182,3.4335,3.7006,4.0656,4.2089,4.2503,4.4895,4.5745,4.5745,4.5745,4.5745,4.5745,4.5745,4.5745,4.5745,4.5745,4.5745,4.5745,4.5745,4.5745,4.5745,4.5745,4.5745,4.5745,4.5745,4.5745,4.5745,4.5745,4.5745,4.5745,4.5745,4.5745,4.5745,4.5745,4.5745,4.5745,4.5745,4.5745,4.5745,4.5745,4.5745,4.5745,4.5745,4.5745,4.5745,4.5745,4.5745,4.5745,4.5745,4.5745,4.6266,4.7589,4.7589,5.2241,6.1578,6.1578,6.3415,6.6875,6.6875,6.6875,2.2337,2.2337,2.2337,2.2337,2.2337,2.2337,2.2337,2.2337,2.2337,2.2337,2.2337,2.2337,2.2337,2.2337,2.2337,2.2337,2.2337,2.2337,2.2337,2.2337,2.2337,2.2337,2.2337,2.2337,2.2337,2.2337,2.2337,2.2337,2.2337,2.2337,2.2337,2.2337,2.2337,2.2337,2.2337,2.2337,2.2337,2.2337,2.2411,2.2554,2.271,2.2873,2.3008,2.3151,2.3219,2.3219,2.3219,2.3219,2.3219,2.3219,2.4632,2.7039,2.8438,3.0415,3.3089,3.6877,3.8272,3.8712,4.2516,4.3769,4.4032,4.532,4.5745,4.5745,4.5745,4.5745,4.5745,4.5745,4.5745,4.5745,4.5745,4.5745,4.5745,4.5745,4.5745,4.5745,4.5745,4.5745,4.5745,4.5745,4.5745,4.5745,4.5745,4.5745,4.5745,4.5745,4.5745,4.5745,4.5745,4.5745,4.5745,4.5745,4.5745,4.5745,4.5745,4.5745,4.5745,4.5745,4.5745,4.5745,4.5745,4.5745,4.5745,4.5745,4.5745,4.9716,5.8,5.9209,6.1596,6.513,6.6349,6.6875,0.0,0.0,0.0,2.2337,2.2337,2.2337,2.2337,2.2337,2.2337,2.2337,2.2337,2.2337,2.2337,2.2337,2.2337,2.2337,2.2337,2.2337,2.2337,2.2337,2.2337,2.2337,2.2337,2.2337,2.2337,2.2337,2.2337,2.2337,2.2337,2.2337,2.2337,2.2337,2.2337,2.2337,2.2337,2.2337,2.2337,2.2337,2.2411,2.2554,2.271,2.2852,2.3008,2.3151,2.3219,2.3219,2.3219,2.3219,2.3219,2.3219,2.3219,2.3506,2.7316,2.8714,2.914,3.2939,3.4335,3.4907,3.8562,3.9963,4.0656,4.4345,4.5595,4.5745,4.5745,4.5745,4.5745,4.5745,4.5745,4.5745,4.5745,4.5745,4.5745,4.5745,4.5745,4.5745,4.5745,4.5745,4.5745,4.5745,4.5745,4.5745,4.5745,4.5745,4.5745,4.5745,4.5745,4.5745,4.5745,4.5745,4.5745,4.5745,4.5745,4.5745,4.5745,4.5745,4.5745,4.5745,4.5745,4.5745,4.5745,4.5745,4.5745,4.5745,4.5745,4.7467,5.09,5.4359,5.8034,6.1578,6.5041,6.6836,2.2337,0.0,0.0,0.0,0.0,0.0,2.2337,2.2337,2.2337,2.2337,2.2337,2.2337,2.2337,2.2337,2.2337,2.2337,2.2337,2.2337,2.2337,2.2337,2.2337,2.2337,2.2337,2.2337,2.2337,2.2337,2.2337,2.2337,2.2337,2.2337,2.2337,2.2337,2.2337,2.2337,2.2337,2.2337,2.2337,2.2337,2.2357,2.2391,2.2656,2.2798,2.2852,2.3097,2.3219,2.3219,2.3219,2.3219,2.3219,2.3219,2.3219,2.3369,2.4353,2.4782,2.5205,2.9015,3.0415,3.0963,3.4756,3.7854,4.0264,4.1373,4.3494,4.5745,4.5745,4.5745,4.5745,4.5745,4.5745,4.5745,4.5745,4.5745,4.5745,4.5745,4.5745,4.5745,4.5745,4.5745,4.5745,4.5745,4.5745,4.5745,4.5745,4.5745,4.5745,4.5745,4.5745,4.5745,4.5745,4.5745,4.5745,4.5745,4.5745,4.5745,4.5745,4.5745,4.5745,4.5745,4.5745,4.5745,4.5745,4.5745,4.5745,4.5745,4.5745,4.6143,4.7195,5.0751,5.4327,5.792,6.1449,6.4493,0.0,0.0,0.0,0.0,0.0,0.0,2.2337,2.2337,2.2337,2.2337,2.2337,2.2337,2.2337,2.2337,2.2337,2.2337,2.2337,2.2337,2.2337,2.2337,2.2337,2.2337,2.2337,2.2337,2.2337,2.2337,2.2337,2.2337,2.2337,2.2337,2.2337,2.2337,2.2337,2.2337,2.2337,2.2337,2.2337,2.2337,2.2337,2.2337,2.2642,2.2784,2.2798,2.3083,2.3219,2.3219,2.3219,2.3219,2.3219,2.3219,2.3219,2.3219,2.3219,2.3219,2.3499,2.5762,2.6468,2.7039,3.084,3.3633,3.5887,3.913,4.1511,4.3619,4.517,4.5745,4.5745,4.5745,4.5745,4.5745,4.5745,4.5745,4.5745,4.5745,4.5745,4.5745,4.5745,4.5745,4.5745,4.5745,4.5745,4.5745,4.5745,4.5745,4.5745,4.5745,4.5745,4.5745,4.5745,4.5745,4.5745,4.5745,4.5745,4.5745,4.5745,4.5745,4.5745,4.5745,4.5745,4.5745,4.5745,4.5745,4.5745,4.5745,4.5745,4.5745,4.5745,4.9311,5.353,5.854,6.0691,6.3561,0.0,0.0,0.0,0.0,2.2337,0.0,2.2337,2.2337,2.2337,2.2337,2.2337,2.2337,2.2337,2.2337,2.2337,2.2337,2.2337,2.2337,2.2337,2.2337,2.2337,2.2337,2.2337,2.2337,2.2337,2.2337,2.2337,2.2337,2.2337,2.2337,2.2337,2.2337,2.2337,2.2337,2.2337,2.2337,2.2337,2.2337,2.2337,2.2337,2.2642,2.2784,2.2798,2.3083,2.3219,2.3219,2.3219,2.3219,2.3219,2.3219,2.3219,2.3219,2.3219,2.3219,2.3219,2.3219,2.3219,2.3649,2.7039,2.8588,3.0132,3.7156,3.9408,4.0264,4.4457,4.5471,4.517,4.5595,4.5745,4.5745,4.5745,4.5745,4.5745,4.5745,4.5745,4.5745,4.5745,4.5745,4.5745,4.5745,4.5745,4.5745,4.5745,4.5745,4.5745,4.5745,4.5745,4.5745,4.5745,4.5745,4.5745,4.5745,4.5745,4.5745,4.5745,4.5745,4.5745,4.5745,4.5745,4.5745,4.5745,4.5745,4.5745,4.5745,4.5745,4.5745,4.5745,4.8919,5.3811,6.0379,6.0821,6.292,0.0,0.0,0.0,2.2337,2.2337,0.0,2.2337,2.2337,2.2337,2.2337,2.2337,2.2337,2.2337,2.2337,2.2337,2.2337,2.2337,2.2337,2.2337,2.2337,2.2337,2.2337,2.2337,2.2337,2.2337,2.2337,2.2337,2.2337,2.2337,2.2337,2.2337,2.2337,2.2337,2.2337,2.2337,2.2337,2.2337,2.2337,2.2337,2.2337,2.2642,2.2784,2.2798,2.3083,2.3219,2.3219,2.3219,2.3219,2.3219,2.3219,2.3219,2.3219,2.3219,2.3219,2.3219,2.3219,2.3219,2.3369,2.4073,2.6333,2.9707,3.4064,3.5607,3.6877,4.3644,4.3632,4.1788,4.4882,4.5745,4.5745,4.5745,4.5745,4.5745,4.5745,4.5745,4.5745,4.5745,4.5745,4.5745,4.5745,4.5745,4.5745,4.5745,4.5745,4.5745,4.5745,4.5745,4.5745,4.5745,4.5745,4.5745,4.5745,4.5745,4.5745,4.5745,4.5745,4.5745,4.5745,4.5745,4.5745,4.5745,4.5745,4.5745,4.5745,4.5745,4.5745,4.5745,4.6416,4.8919,5.313,5.6047,5.9209,0.0,2.2337,2.2337,2.2337,2.2337,0.0,0.0,2.2337,2.2337,2.2337,2.2337,2.2337,2.2337,2.2337,2.2337,2.2337,2.2337,2.2337,2.2337,2.2337,2.2337,2.2337,2.2337,2.2337,2.2337,2.2337,2.2337,2.2337,2.2337,2.2337,2.2337,2.2337,2.2337,2.2337,2.2337,2.2337,2.2337,2.2337,2.2337,2.2337,2.2642,2.2784,2.2798,2.3083,2.3219,2.3219,2.3219,2.3219,2.3219,2.3219,2.3219,2.3219,2.3219,2.3219,2.3219,2.3219,2.3219,2.3219,2.3219,2.4503,2.6611,3.0415,3.167,3.2808,3.8434,4.0102,4.0807,4.462,4.5745,4.5745,4.5745,4.5745,4.5745,4.5745,4.5745,4.5745,4.5745,4.5745,4.5745,4.5745,4.5745,4.5745,4.5745,4.5745,4.5745,4.5745,4.5745,4.5745,4.5745,4.5745,4.5745,4.5745,4.5745,4.5745,4.5745,4.5745,4.5745,4.5745,4.5745,4.5745,4.5745,4.5745,4.5745,4.5745,4.5745,4.5745,4.5745,4.5745,4.7589,5.1034,5.2894,5.5519,2.2391,2.2337,2.2337,2.2337,2.2337,2.2337,0.0,0.0,0.0,2.2337,2.2337,2.2337,2.2337,2.2337,2.2303,2.2181,2.2269,0.0,0.0,2.2269,0.0,2.2337,2.2337,2.2337,2.2337,2.2337,2.2337,2.2337,2.2337,2.2337,2.2337,2.2337,2.2337,2.2337,2.2337,2.2337,2.2337,2.2337,2.2357,2.2378,2.2656,2.2798,2.2832,2.3097,2.3219,2.3219,2.3219,2.3219,2.3219,2.3219,2.3219,2.3219,2.3219,2.3219,2.3219,2.3219,2.3219,2.3219,2.3219,2.3219,2.3779,2.7593,2.9432,3.0566,3.3633,3.7156,4.0807,4.462,4.5745,4.5745,4.5745,4.5745,4.5745,4.5745,4.5745,4.5745,4.5745,4.5745,4.5745,4.5745,4.5745,4.5745,4.5745,4.5745,4.5745,4.5745,4.5745,4.5745,4.5745,4.5745,4.5745,4.5745,4.5745,4.5745,4.5745,4.5745,4.5745,4.5745,4.5745,4.5745,4.5745,4.5745,4.5745,4.5745,4.5745,4.5745,4.5745,4.5745,4.7195,4.9986,5.0646,5.2478,2.2445,2.2337,2.2337,2.2337,2.2337,2.2337,2.2337,0.0,2.2337,2.2337,0.0,2.2337,2.2337,0.0,0.0,0.0,0.0,0.0,2.1618,2.2004,2.2337,2.2337,2.2337,2.2337,2.2337,2.2337,2.2337,2.2337,2.2337,2.2337,2.2337,2.2337,2.2337,2.2337,2.2337,2.2337,2.2337,2.2337,2.2411,2.2534,2.2696,2.2852,2.2995,2.3151,2.3219,2.3219,2.3219,2.3219,2.3219,2.3219,2.3219,2.3219,2.3219,2.3219,2.3219,2.3219,2.3219,2.3219,2.3219,2.3219,2.3779,2.7593,3.1114,3.3914,3.4335,3.7156,4.0807,4.462,4.5745,4.5745,4.5745,4.5745,4.5745,4.5745,4.5745,4.5745,4.5745,4.5745,4.5745,4.5745,4.5745,4.5745,4.5745,4.5745,4.5745,4.5745,4.5745,4.5745,4.5745,4.5745,4.5745,4.5745,4.5745,4.5745,4.5745,4.5745,4.5745,4.5745,4.5745,4.5745,4.5745,4.5745,4.5745,4.5745,4.5745,4.5745,4.5745,4.5745,4.5869,4.6416,4.9581,5.1154,0.0,2.2466,2.2445,2.2357,2.2411,2.2445,2.2357,2.2337,2.2337,2.2337,0.0,0.0,0.0,0.0,0.0,0.0,2.2181,0.0,0.0,0.0,2.2337,2.2337,0.0,2.2337,2.2337,2.2337,2.2337,2.2337,2.2337,2.2337,2.2337,2.2337,2.2337,2.2337,2.2337,2.2337,2.2337,2.2337,2.2411,2.2554,2.271,2.2873,2.3008,2.3151,2.3219,2.3219,2.3219,2.3219,2.3219,2.3219,2.3219,2.3219,2.3219,2.3219,2.3219,2.3219,2.3219,2.3219,2.3219,2.3219,2.3499,2.5054,2.6611,2.8296,3.0539,3.3934,3.7586,4.1385,4.407,4.5745,4.5745,4.5745,4.5745,4.5745,4.5745,4.5745,4.5745,4.5745,4.5745,4.5745,4.5745,4.5745,4.5745,4.5745,4.5745,4.5745,4.5745,4.5745,4.5745,4.5745,4.5745,4.5745,4.5745,4.5745,4.5745,4.5745,4.5745,4.5745,4.5745,4.5745,4.5745,4.5745,4.5745,4.5745,4.5745,4.5745,4.5745,4.5745,4.5745,4.5745,4.7208,4.7876,2.2456,2.2642,2.2588,2.2432,2.2445,2.2466,2.2357,2.2337,2.2337,2.2337,2.2337,0.0,0.0,0.0,0.0,0.0,0.0,2.2289,0.0,2.2235,0.0,0.0,0.0,0.0,2.2337,2.2337,2.2337,2.2337,2.2337,2.2337,2.2337,2.2337,2.2337,2.2337,2.2337,2.2337,2.2337,2.2378,2.2466,2.2622,2.2764,2.292,2.3063,2.3171,2.3219,2.3219,2.3219,2.3219,2.3219,2.3219,2.3219,2.3219,2.3219,2.3219,2.3219,2.3219,2.3219,2.3219,2.3219,2.3219,2.3219,2.3219,2.3219,2.3929,2.7735,3.084,3.3914,3.8712,4.2089,4.4457,4.5471,4.5745,4.5745,4.5745,4.5745,4.5745,4.5745,4.5745,4.5745,4.5745,4.5745,4.5745,4.5745,4.5745,4.5745,4.5745,4.5745,4.5745,4.5745,4.5745,4.5745,4.5745,4.5745,4.5745,4.5745,4.5745,4.5745,4.5745,4.5745,4.5745,4.5745,4.5745,4.5745,4.5745,4.5745,4.5745,4.5745,4.5745,4.5745,4.5745,4.5745,4.5745,2.2102,2.2886,2.273,2.2588,2.2445,2.2337,2.2337,2.2337,2.2337,2.2337,2.2337,2.2337,0.0,0.0,0.0,0.0,0.0,0.0,0.0,0.0,0.0,0.0,0.0,0.0,0.0,2.2337,2.2337,0.0,2.2337,2.2337,2.2337,2.2337,2.2337,2.2337,2.2337,2.2337,2.2337,2.2479,2.2622,2.2784,2.292,2.3083,2.3219,2.3219,2.3219,2.3219,2.3219,2.3219,2.3219,2.3219,2.3219,2.3219,2.3219,2.3219,2.3219,2.3219,2.3219,2.3219,2.3219,2.3219,2.3219,2.3219,2.3219,2.3929,2.7735,2.9015,3.069,3.8004,4.0252,4.1084,4.4771,4.5745,4.5745,4.5745,4.5745,4.5745,4.5745,4.5745,4.5745,4.5745,4.5745,4.5745,4.5745,4.5745,4.5745,4.5745,4.5745,4.5745,4.5745,4.5745,4.5745,4.5745,4.5745,4.5745,4.5745,4.5745,4.5745,4.5745,4.5745,4.5745,4.5745,4.5745,4.5745,4.5745,4.5745,4.5745,4.5745,4.5745,4.5745,4.5745,4.5745,4.5745,2.2172,2.3259,2.313,2.2798,2.2744,2.271,2.2411,2.2337,2.2337,2.2337,2.2337,2.2337,0.0,0.0,0.0,0.0,0.0,0.0,0.0,0.0,0.0,0.0,0.0,0.0,0.0,0.0,0.0,0.0,2.2337,0.0,2.2337,2.2337,2.2337,2.2337,2.2337,2.2337,2.2337,2.2479,2.2622,2.2784,2.294,2.3083,2.3219,2.3219,2.3219,2.3219,2.3219,2.3219,2.3219,2.3219,2.3219,2.3219,2.3219,2.3219,2.3219,2.3219,2.3219,2.3219,2.3219,2.3219,2.3219,2.3219,2.3219,2.3499,2.4775,2.6888,2.9441,3.1961,3.6307,4.0379,4.1662,4.3907,4.5745,4.5745,4.5745,4.5745,4.5745,4.5745,4.5745,4.5745,4.5745,4.5745,4.5745,4.5745,4.5745,4.5745,4.5745,4.5745,4.5745,4.5745,4.5745,4.5745,4.5745,4.5745,4.5745,4.5745,4.5745,4.5745,4.5745,4.5745,4.5745,4.5745,4.5745,4.5745,4.5745,4.5745,4.5745,4.5745,4.5745,4.5745,4.5745,4.5745,2.0368,2.2391,2.3449,2.3097,2.3008,2.292,2.2567,2.2445,2.2411,2.2411,2.2378,0.0,0.0,0.0,0.0,0.0,0.0,0.0,0.0,2.2337,0.0,0.0,0.0,0.0,0.0,0.0,0.0,0.0,0.0,0.0,0.0,2.2337,2.2337,2.2337,2.2337,2.2357,2.2411,2.2554,2.271,2.2873,2.3008,2.313,2.3219,2.3219,2.3219,2.3219,2.3219,2.3219,2.3219,2.3219,2.3219,2.3219,2.3219,2.3219,2.3219,2.3219,2.3219,2.3219,2.3219,2.3219,2.3219,2.3219,2.3219,2.3219,2.3219,2.4911,2.7181,2.8588,3.2385,3.6737,3.9408,4.1926,4.4032,4.5334,4.5745,4.5745,4.5745,4.5745,4.5745,4.5745,4.5745,4.5745,4.5745,4.5745,4.5745,4.5745,4.5745,4.5745,4.5745,4.5745,4.5745,4.5745,4.5745,4.5745,4.5745,4.5745,4.5745,4.5745,4.5745,4.5745,4.5745,4.5745,4.5852,4.6039,4.5852,4.5852,4.6066,4.5852,4.5745,4.5745,4.5745,4.5745]}]]